[[{"header":{"parameterUnit":"m.s-1","parameterCategory":1,"la1":30.6,"la2":28.766,"lo1":-90.7593,"lo2":-88.6598,"dy":0.0162,"dx":0.0183,"nx":116,"ny":114,"refTime":"2024-04-10T18:00:00:Z","depth":0,"parameterNumber":2,"parameterNumberName":"U-component_of_WINDS"},"data":[0.0,0.0,0.0,0.0,0.0,0.0,0.0,0.0,0.0,0.0,0.0,0.0,0.0,0.0,0.0,0.0,0.0,0.0,0.0,0.0,0.0,0.0,0.0,0.0,0.0,0.0,0.0,0.0,0.0,0.0,0.0,0.0,0.0,0.0,0.0,0.0,0.0,0.0,0.0,0.0,0.0,0.0,0.0,0.0,0.0,0.0,0.0,0.0,0.0,0.0,0.0,0.0,0.0,0.0,0.0,0.0,0.0,0.0,0.0,0.0,0.0,0.0,0.0,0.0,0.0,0.0,0.0,0.0,0.0,0.0,0.0,0.0,0.0,0.0,0.0,0.0,0.0,0.0,0.0,0.0,0.0,0.0,0.0,0.0,0.0,0.0,0.0,0.0,0.0,0.0,0.0,0.0,0.0,0.0,0.0,0.0,0.0,0.0,0.0,0.0,0.0,0.0,0.0,0.0,0.0,0.0,0.0,0.0,0.0,0.0,0.0,0.0,0.0,0.0,0.0,0.0,0.0,0.0,0.0,0.0,0.0,0.0,0.0,0.0,0.0,0.0,0.0,0.0,0.0,0.0,0.0,0.0,0.0,0.0,0.0,0.0,0.0,0.0,0.0,0.0,0.0,0.0,0.0,0.0,0.0,0.0,0.0,0.0,0.0,0.0,0.0,0.0,0.0,0.0,0.0,0.0,0.0,0.0,0.0,0.0,0.0,0.0,0.0,0.0,0.0,0.0,0.0,0.0,0.0,0.0,0.0,0.0,0.0,0.0,0.0,0.0,0.0,0.0,0.0,0.0,0.0,0.0,0.0,0.0,0.0,0.0,0.0,0.0,0.0,0.0,0.0,0.0,0.0,0.0,0.0,0.0,0.0,0.0,0.0,0.0,0.0,0.0,0.0,0.0,0.0,0.0,0.0,0.0,0.0,0.0,0.0,0.0,0.0,0.0,0.0,0.0,0.0,0.0,0.0,0.0,0.0,0.0,0.0,0.0,0.0,0.0,0.0,0.0,0.0,0.0,0.0,0.0,0.0,0.0,0.0,0.0,0.0,0.0,0.0,0.0,0.0,0.0,0.0,0.0,0.0,0.0,0.0,0.0,0.0,0.0,0.0,0.0,0.0,0.0,0.0,0.0,0.0,0.0,0.0,0.0,0.0,0.0,0.0,0.0,0.0,0.0,0.0,0.0,0.0,0.0,0.0,0.0,0.0,0.0,0.0,0.0,0.0,0.0,0.0,0.0,0.0,0.0,0.0,0.0,0.0,0.0,0.0,0.0,0.0,0.0,0.0,0.0,0.0,0.0,0.0,0.0,0.0,0.0,0.0,0.0,0.0,0.0,0.0,0.0,0.0,0.0,0.0,0.0,0.0,0.0,0.0,0.0,0.0,0.0,0.0,0.0,0.0,0.0,0.0,0.0,0.0,0.0,0.0,0.0,0.0,0.0,0.0,0.0,0.0,0.0,0.0,0.0,0.0,0.0,0.0,0.0,0.0,0.0,0.0,0.0,0.0,0.0,0.0,0.0,0.0,0.0,0.0,0.0,0.0,0.0,0.0,0.0,0.0,0.0,0.0,0.0,0.0,0.0,0.0,0.0,0.0,0.0,0.0,0.0,0.0,0.0,0.0,0.0,0.0,0.0,0.0,0.0,0.0,0.0,0.0,0.0,0.0,0.0,0.0,0.0,0.0,0.0,0.0,0.0,0.0,0.0,0.0,0.0,0.0,0.0,0.0,0.0,0.0,0.0,0.0,0.0,0.0,0.0,0.0,0.0,0.0,0.0,0.0,0.0,0.0,0.0,0.0,0.0,0.0,0.0,0.0,0.0,0.0,0.0,0.0,0.0,0.0,0.0,0.0,0.0,0.0,0.0,0.0,0.0,0.0,0.0,0.0,0.0,0.0,0.0,0.0,0.0,0.0,0.0,0.0,0.0,0.0,0.0,0.0,0.0,0.0,0.0,0.0,0.0,0.0,0.0,0.0,0.0,0.0,0.0,0.0,0.0,0.0,0.0,0.0,0.0,0.0,0.0,0.0,0.0,0.0,0.0,0.0,0.0,0.0,0.0,0.0,0.0,0.0,0.0,0.0,0.0,0.0,0.0,0.0,0.0,0.0,0.0,0.0,0.0,0.0,0.0,0.0,0.0,0.0,0.0,0.0,0.0,0.0,0.0,0.0,0.0,0.0,0.0,0.0,0.0,0.0,0.0,0.0,0.0,0.0,0.0,0.0,0.0,0.0,0.0,0.0,0.0,0.0,0.0,0.0,0.0,0.0,0.0,0.0,0.0,0.0,0.0,0.0,0.0,0.0,0.0,0.0,0.0,0.0,0.0,0.0,0.0,0.0,0.0,0.0,0.0,0.0,0.0,0.0,0.0,0.0,0.0,0.0,0.0,0.0,0.0,0.0,0.0,0.0,0.0,0.0,0.0,0.0,0.0,0.0,0.0,0.0,0.0,0.0,0.0,0.0,0.0,0.0,0.0,0.0,0.0,0.0,0.0,0.0,0.0,0.0,0.0,0.0,0.0,0.0,0.0,0.0,0.0,0.0,0.0,0.0,0.0,0.0,0.0,0.0,0.0,0.0,0.0,0.0,0.0,0.0,0.0,0.0,0.0,0.0,0.0,0.0,0.0,0.0,0.0,0.0,0.0,0.0,0.0,0.0,0.0,0.0,0.0,0.0,0.0,0.0,0.0,0.0,0.0,0.0,0.0,0.0,0.0,0.0,0.0,0.0,0.0,0.0,0.0,0.0,0.0,0.0,0.0,0.0,0.0,0.0,0.0,0.0,0.0,0.0,0.0,0.0,0.0,0.0,0.0,0.0,0.0,0.0,0.0,0.0,0.0,0.0,0.0,0.0,0.0,0.0,0.0,0.0,0.0,0.0,0.0,0.0,0.0,0.0,0.0,0.0,0.0,0.0,0.0,0.0,0.0,0.0,0.0,0.0,0.0,0.0,0.0,0.0,0.0,0.0,0.0,0.0,0.0,0.0,0.0,0.0,0.0,0.0,0.0,0.0,0.0,0.0,0.0,0.0,0.0,0.0,0.0,0.0,0.0,0.0,0.0,0.0,0.0,0.0,0.0,0.0,0.0,0.0,0.0,0.0,0.0,0.0,0.0,0.0,0.0,0.0,0.0,0.0,0.0,0.0,0.0,0.0,0.0,0.0,0.0,0.0,0.0,0.0,0.0,0.0,0.0,0.0,0.0,0.0,0.0,0.0,0.0,0.0,0.0,0.0,0.0,0.0,0.0,0.0,0.0,0.0,0.0,0.0,0.0,0.0,0.0,0.0,0.0,0.0,0.0,0.0,0.0,0.0,0.0,0.0,0.0,0.0,0.0,0.0,0.0,0.0,0.0,0.0,0.0,0.0,0.0,0.0,0.0,0.0,0.0,0.0,0.0,0.0,0.0,0.0,0.0,0.0,0.0,0.0,0.0,0.0,0.0,0.0,0.0,0.0,0.0,0.0,0.0,0.0,0.0,0.0,0.0,0.0,0.0,0.0,0.0,0.0,0.0,0.0,0.0,0.0,0.0,0.0,0.0,0.0,0.0,0.0,0.0,0.0,0.0,0.0,0.0,0.0,0.0,0.0,0.0,0.0,0.0,0.0,0.0,0.0,0.0,0.0,0.0,0.0,0.0,0.0,0.0,0.0,0.0,0.0,0.0,0.0,0.0,0.0,0.0,0.0,0.0,0.0,0.0,0.0,0.0,0.0,0.0,0.0,0.0,0.0,0.0,0.0,0.0,0.0,0.0,0.0,0.0,0.0,0.0,0.0,0.0,0.0,0.0,0.0,0.0,0.0,0.0,0.0,0.0,0.0,0.0,0.0,0.0,0.0,0.0,0.0,0.0,0.0,0.0,0.0,0.0,0.0,0.0,0.0,0.0,0.0,0.0,0.0,0.0,0.0,0.0,0.0,0.0,0.0,0.0,0.0,0.0,0.0,0.0,0.0,0.0,0.0,0.0,0.0,0.0,0.0,0.0,0.0,0.0,0.0,0.0,0.0,0.0,0.0,0.0,0.0,0.0,0.0,0.0,0.0,0.0,0.0,0.0,0.0,0.0,0.0,0.0,0.0,0.0,0.0,0.0,0.0,0.0,0.0,0.0,0.0,0.0,0.0,0.0,0.0,0.0,0.0,0.0,0.0,0.0,0.0,0.0,0.0,0.0,0.0,0.0,0.0,0.0,0.0,0.0,0.0,0.0,0.0,0.0,0.0,0.0,0.0,0.0,0.0,0.0,0.0,0.0,0.0,0.0,0.0,0.0,0.0,0.0,0.0,0.0,0.0,0.0,0.0,0.0,0.0,0.0,0.0,0.0,0.0,0.0,0.0,0.0,0.0,0.0,0.0,0.0,0.0,0.0,0.0,0.0,0.0,0.0,0.0,0.0,0.0,0.0,0.0,0.0,0.0,0.0,0.0,0.0,0.0,0.0,0.0,0.0,0.0,0.0,0.0,0.0,0.0,0.0,0.0,0.0,0.0,0.0,0.0,0.0,0.0,0.0,0.0,0.0,0.0,0.0,0.0,0.0,0.0,0.0,0.0,0.0,0.0,0.0,0.0,0.0,0.0,0.0,0.0,0.0,0.0,0.0,0.0,0.0,0.0,0.0,0.0,0.0,0.0,0.0,0.0,0.0,0.0,0.0,0.0,0.0,0.0,0.0,0.0,0.0,0.0,0.0,0.0,0.0,0.0,0.0,0.0,0.0,0.0,0.0,0.0,0.0,0.0,0.0,0.0,0.0,0.0,0.0,0.0,0.0,0.0,0.0,0.0,0.0,0.0,0.0,0.0,0.0,0.0,0.0,0.0,0.0,0.0,0.0,0.0,0.0,0.0,0.0,0.0,0.0,0.0,0.0,0.0,0.0,0.0,0.0,0.0,0.0,0.0,0.0,0.0,0.0,0.0,0.0,0.0,0.0,0.0,0.0,0.0,0.0,0.0,0.0,0.0,0.0,0.0,0.0,0.0,0.0,0.0,0.0,0.0,0.0,0.0,0.0,0.0,0.0,0.0,0.0,0.0,0.0,0.0,0.0,0.0,0.0,0.0,0.0,0.0,0.0,0.0,0.0,0.0,0.0,0.0,0.0,0.0,0.0,0.0,0.0,0.0,0.0,0.0,0.0,0.0,0.0,0.0,0.0,0.0,0.0,0.0,0.0,0.0,0.0,0.0,0.0,0.0,0.0,0.0,0.0,0.0,0.0,0.0,0.0,0.0,0.0,0.0,0.0,0.0,0.0,0.0,0.0,0.0,0.0,0.0,0.0,0.0,0.0,0.0,0.0,0.0,0.0,0.0,0.0,0.0,0.0,0.0,0.0,0.0,0.0,0.0,0.0,0.0,0.0,0.0,0.0,0.0,0.0,0.0,0.0,0.0,0.0,0.0,0.0,0.0,0.0,0.0,0.0,0.0,0.0,0.0,0.0,0.0,0.0,0.0,0.0,0.0,0.0,0.0,0.0,0.0,0.0,0.0,0.0,0.0,0.0,0.0,0.0,0.0,0.0,0.0,0.0,0.0,0.0,0.0,0.0,0.0,0.0,0.0,0.0,0.0,0.0,0.0,0.0,0.0,0.0,0.0,0.0,0.0,0.0,0.0,0.0,0.0,0.0,0.0,0.0,0.0,0.0,0.0,0.0,0.0,0.0,0.0,0.0,0.0,0.0,0.0,0.0,0.0,0.0,0.0,0.0,0.0,0.0,0.0,0.0,0.0,0.0,0.0,0.0,0.0,0.0,0.0,0.0,0.0,0.0,0.0,0.0,0.0,0.0,0.0,0.0,0.0,0.0,0.0,0.0,0.0,0.0,0.0,0.0,0.0,0.0,0.0,0.0,0.0,0.0,0.0,0.0,0.0,0.0,0.0,0.0,0.0,0.0,0.0,0.0,0.0,0.0,0.0,0.0,0.0,0.0,0.0,0.0,0.0,0.0,0.0,0.0,0.0,0.0,0.0,0.0,0.0,0.0,0.0,0.0,0.0,0.0,0.0,0.0,0.0,0.0,0.0,0.0,0.0,0.0,0.0,0.0,0.0,0.0,0.0,0.0,0.0,0.0,0.0,0.0,0.0,0.0,0.0,0.0,0.0,0.0,0.0,0.0,0.0,0.0,-4.0383,0.0,0.0,0.0,0.0,0.0,0.0,0.0,0.0,0.0,0.0,0.0,0.0,0.0,0.0,0.0,0.0,0.0,0.0,0.0,0.0,0.0,0.0,0.0,0.0,-3.9082,-3.9205,-3.9489,-3.9389,-3.9513,-4.004,0.0,0.0,0.0,0.0,0.0,-4.1095,-4.1095,-4.1128,-4.116,-4.116,-4.0988,-4.0677,-4.0204,-3.9568,-3.875,0.0,0.0,0.0,0.0,0.0,0.0,0.0,0.0,0.0,0.0,0.0,0.0,0.0,0.0,0.0,0.0,0.0,0.0,0.0,0.0,0.0,0.0,0.0,0.0,0.0,0.0,0.0,0.0,0.0,0.0,0.0,0.0,0.0,0.0,0.0,0.0,0.0,0.0,0.0,0.0,0.0,0.0,0.0,0.0,0.0,0.0,0.0,0.0,0.0,0.0,0.0,0.0,0.0,0.0,0.0,0.0,0.0,0.0,0.0,0.0,0.0,0.0,0.0,0.0,0.0,0.0,0.0,0.0,0.0,0.0,0.0,-4.0992,0.0,0.0,0.0,0.0,0.0,0.0,0.0,0.0,0.0,0.0,0.0,0.0,0.0,0.0,0.0,0.0,0.0,0.0,0.0,0.0,0.0,-3.9082,-3.9082,-3.9178,-3.9311,-3.9489,-3.9449,-3.9784,-4.0665,-4.0724,-4.1,-4.169,-4.1567,-4.1499,-4.1499,-4.1515,-4.1597,-4.1704,-4.1588,-4.1567,-4.1619,-4.1487,-4.0643,-3.9245,-3.9245,0.0,0.0,0.0,0.0,0.0,0.0,0.0,0.0,0.0,0.0,0.0,0.0,0.0,0.0,0.0,0.0,0.0,0.0,0.0,0.0,0.0,0.0,0.0,0.0,0.0,0.0,0.0,0.0,0.0,0.0,0.0,0.0,0.0,0.0,0.0,0.0,0.0,0.0,0.0,0.0,0.0,0.0,0.0,0.0,0.0,0.0,0.0,0.0,0.0,0.0,0.0,0.0,0.0,0.0,0.0,0.0,0.0,0.0,0.0,0.0,0.0,0.0,0.0,0.0,-4.4432,-4.4432,-4.4432,-4.4432,-4.4358,-4.302,-4.2203,-4.1794,0.0,0.0,0.0,0.0,0.0,0.0,0.0,0.0,0.0,0.0,0.0,0.0,0.0,0.0,0.0,0.0,0.0,0.0,0.0,0.0,-3.9082,-3.9082,-3.9526,-3.9717,-3.9526,-4.0299,-4.0801,-4.0715,-4.1739,-4.2433,-4.2544,-4.2947,-4.3167,-4.3167,-4.3235,-4.3398,-4.3639,-4.3117,-4.2746,-4.2511,-4.1883,-4.1356,-4.096,-4.1034,-4.0987,-4.0856,0.0,0.0,0.0,0.0,0.0,0.0,0.0,0.0,0.0,0.0,0.0,0.0,0.0,0.0,0.0,0.0,0.0,0.0,0.0,0.0,0.0,0.0,0.0,0.0,0.0,0.0,0.0,0.0,0.0,0.0,0.0,0.0,0.0,0.0,0.0,0.0,0.0,0.0,0.0,0.0,0.0,-4.0405,-4.1311,0.0,0.0,0.0,0.0,0.0,0.0,0.0,0.0,0.0,0.0,0.0,0.0,0.0,0.0,-4.5101,-4.5138,-4.5472,-4.6178,-4.6178,-4.6178,-4.6178,-4.6178,-4.6178,-4.6141,-4.5955,0.0,-4.2575,-4.1869,0.0,0.0,0.0,0.0,0.0,0.0,0.0,0.0,0.0,0.0,0.0,0.0,0.0,0.0,0.0,0.0,0.0,0.0,0.0,0.0,0.0,-3.9539,-3.9693,-3.9728,-4.0436,-4.1004,-4.1342,-4.2215,-4.2909,-4.3414,-4.3463,-4.3515,-4.3515,-4.371,-4.415,-4.4842,-4.4968,-4.4935,-4.483,-4.4655,-4.4438,-4.4225,-4.3915,-4.2811,-4.1123,-4.1123,0.0,0.0,0.0,0.0,0.0,0.0,0.0,0.0,0.0,0.0,0.0,0.0,0.0,0.0,0.0,0.0,0.0,0.0,0.0,0.0,0.0,0.0,0.0,0.0,0.0,0.0,0.0,0.0,0.0,0.0,0.0,0.0,0.0,0.0,0.0,0.0,0.0,0.0,0.0,-4.0785,-4.1349,-4.2166,-4.2575,-4.2983,0.0,0.0,0.0,0.0,0.0,0.0,0.0,0.0,0.0,-4.5398,-4.5398,-4.5584,-4.5955,-4.5955,-4.6238,-4.6741,-4.6741,-4.6741,-4.6741,-4.6741,-4.6632,-4.6513,-4.6513,-4.5881,-4.4804,-4.4023,-4.3689,-4.3615,0.0,0.0,0.0,0.0,0.0,-4.1609,0.0,0.0,0.0,0.0,0.0,0.0,0.0,0.0,0.0,0.0,0.0,0.0,-3.9389,-3.9587,-3.9728,-3.9807,-4.0611,-4.1381,-4.1893,-4.2632,-4.3311,-4.3986,-4.3664,-4.3625,-4.3791,-4.4337,-4.5005,-4.5873,-4.6389,-4.6632,-4.6621,-4.6795,-4.6719,-4.6422,-4.596,-4.4426,-4.2095,-4.1842,-4.1752,-4.1699,0.0,0.0,0.0,0.0,0.0,0.0,0.0,0.0,0.0,0.0,0.0,0.0,0.0,0.0,0.0,0.0,0.0,0.0,0.0,0.0,0.0,0.0,0.0,0.0,0.0,0.0,0.0,0.0,0.0,0.0,0.0,0.0,0.0,0.0,0.0,0.0,0.0,-4.1861,-4.2203,-4.302,-4.3095,-4.3355,0.0,0.0,0.0,0.0,0.0,0.0,-4.5547,-4.5621,-4.5881,-4.6475,-4.6698,-4.6921,-4.7107,-4.733,-4.7648,-4.8053,-4.8053,-4.8053,-4.8053,-4.8053,-4.7949,-4.7738,-4.7738,-4.7627,-4.733,-4.6104,-4.5621,-4.5547,-4.4878,-4.4283,-4.3763,-4.3763,-4.3355,-4.2835,0.0,0.0,0.0,0.0,0.0,0.0,0.0,0.0,0.0,0.0,0.0,-3.9401,-3.9137,-3.9785,-4.0058,-3.9559,-4.1219,-4.2226,-4.2008,-4.3226,-4.3952,-4.3986,-4.3664,-4.3864,-4.4618,-4.5712,-4.6477,-4.6824,-4.7061,-4.7061,-4.6884,-4.6899,-4.6688,-4.6305,-4.6285,-4.5716,-4.4747,-4.3835,-4.3456,-4.3314,-4.2543,0.0,0.0,0.0,0.0,0.0,0.0,0.0,0.0,0.0,0.0,0.0,0.0,0.0,0.0,0.0,0.0,0.0,0.0,0.0,0.0,0.0,0.0,0.0,0.0,0.0,0.0,0.0,0.0,0.0,0.0,0.0,0.0,0.0,0.0,0.0,0.0,0.0,0.0,-4.3838,-4.3949,0.0,0.0,0.0,0.0,-4.5212,-4.5955,-4.6401,-4.6438,-4.6438,-4.6475,-4.6513,-4.7256,-4.7999,-4.8779,-4.9559,-5.0339,-5.1192,-5.1192,-5.1192,-5.1192,-5.1192,-5.1174,-5.1156,-5.1156,-5.0673,-4.9745,-4.7404,-4.6438,-4.6438,-4.6401,-4.6364,-4.629,-4.629,-4.629,-4.6252,0.0,0.0,0.0,0.0,0.0,-3.8689,-3.8689,-3.8689,-3.8689,-3.8689,-3.9021,-3.9272,-3.935,-4.0216,-4.0798,-4.0798,-4.2394,-4.3395,-4.3308,-4.3879,-4.4256,-4.4265,-4.426,-4.481,-4.5885,-4.6866,-4.7559,-4.7937,-4.9129,-4.9561,-4.9302,-5.0017,-5.0084,-4.9561,-4.855,-4.7796,-4.7202,-4.5321,-4.4478,-4.4319,-4.3473,-4.3108,0.0,0.0,0.0,0.0,0.0,0.0,0.0,0.0,0.0,0.0,0.0,0.0,0.0,0.0,0.0,0.0,0.0,0.0,0.0,0.0,0.0,0.0,0.0,0.0,0.0,0.0,0.0,0.0,0.0,0.0,0.0,0.0,0.0,0.0,0.0,0.0,0.0,-4.4729,-4.4841,0.0,-4.5547,-4.5881,-4.6067,-4.6067,-4.681,-4.7516,-4.8036,-4.8556,-4.9076,-4.9633,-4.993,-5.0228,-5.0525,-5.0785,-5.119,-5.1677,-5.1677,-5.1677,-5.1677,-5.1677,-5.1556,-5.1416,-5.1416,-5.1231,-5.0859,-5.0005,-4.8704,-4.7256,-4.7256,-4.6958,-4.6513,-4.6513,-4.6513,-4.6513,0.0,0.0,0.0,0.0,0.0,-3.8689,-3.8689,-3.8689,-3.8719,-3.884,-3.8993,-3.9232,-3.9599,-4.0515,-4.1233,-4.1504,-4.3081,-4.4006,-4.3884,-4.4222,-4.4482,-4.4653,-4.5333,-4.6153,-4.7062,-4.8256,-4.9032,-4.9322,-5.0775,-5.1299,-5.1013,-5.1775,-5.1872,-5.1287,-5.0261,-4.969,-4.9307,-4.7128,-4.5692,-4.4797,-4.4208,-4.3769,-4.3515,0.0,0.0,0.0,0.0,0.0,0.0,0.0,0.0,0.0,0.0,0.0,0.0,0.0,0.0,0.0,0.0,0.0,0.0,0.0,0.0,0.0,0.0,0.0,0.0,0.0,0.0,0.0,0.0,0.0,0.0,0.0,0.0,0.0,0.0,0.0,-4.4729,-4.5584,-4.5695,-4.5918,-4.6438,-4.6995,-4.7293,-4.7293,-4.8333,-4.9187,-4.9707,-5.0265,-5.0822,-5.1379,-5.1676,-5.1788,-5.1788,-5.2085,-5.2306,-5.2462,-5.2462,-5.2462,-5.2462,-5.2462,-5.2377,-5.2197,-5.2197,-5.2048,-5.1825,-5.2085,-5.0933,-4.8964,-4.8964,-4.863,-4.8147,-4.8147,-4.8147,-4.811,0.0,0.0,0.0,0.0,0.0,-3.8689,-3.8689,-3.8689,-3.8795,-3.9027,-3.9082,-3.9298,-3.9818,-4.0642,-4.1282,-4.1609,-4.3168,-4.4024,-4.3734,-4.4235,-4.4754,-4.5281,-4.685,-4.7836,-4.81,-4.9868,-5.0874,-5.104,-5.1764,-5.2054,-5.1844,-5.1844,-5.1663,-5.1287,-5.1231,-5.1193,-5.1043,-4.9362,-4.7187,-4.4801,-4.4782,-4.4268,-4.3551,0.0,0.0,0.0,0.0,0.0,0.0,0.0,0.0,0.0,0.0,0.0,0.0,0.0,0.0,0.0,0.0,0.0,0.0,0.0,0.0,0.0,0.0,0.0,0.0,0.0,0.0,0.0,0.0,0.0,0.0,0.0,0.0,0.0,-4.5119,-4.5238,-4.5658,-4.6475,-4.655,-4.6587,-4.6661,-4.8073,-4.8964,-4.8964,-5.0525,-5.1454,-5.1454,-5.1454,-5.1454,-5.1454,-5.2234,-5.2642,-5.2642,-5.3423,-5.3794,-5.3794,-5.3794,-5.3794,-5.3794,-5.3794,-5.3794,-5.3794,-5.3794,-5.3348,-5.2717,-5.3497,-5.2865,-5.1454,-5.1454,-5.1416,-5.1416,-5.1416,-5.1416,-5.1268,0.0,0.0,0.0,-3.8673,-3.8689,-3.8689,-3.8689,-3.8689,-3.8719,-3.881,-3.8979,-3.9232,-3.9575,-4.1071,-4.2079,-4.2096,-4.3868,-4.4756,-4.422,-4.5116,-4.6172,-4.7335,-4.7859,-4.8738,-5.0084,-5.0619,-5.122,-5.1926,-5.2731,-5.2937,-5.2623,-5.3202,-5.3272,-5.2856,-5.2149,-5.1851,-5.1738,-5.0664,-4.9079,-4.7205,-4.614,-4.5184,-4.4378,0.0,0.0,0.0,0.0,0.0,0.0,0.0,0.0,0.0,0.0,0.0,0.0,0.0,0.0,0.0,0.0,0.0,0.0,0.0,0.0,0.0,0.0,0.0,0.0,0.0,0.0,0.0,0.0,0.0,0.0,0.0,-4.5008,-4.5254,-4.5254,-4.579,-4.6698,-4.8073,-4.8259,-4.8704,-4.993,-5.045,-5.0711,-5.0711,-5.1676,-5.2271,-5.2271,-5.2828,-5.3162,-5.3162,-5.3348,-5.346,-5.346,-5.3683,-5.3794,-5.3794,-5.3794,-5.3794,-5.3794,-5.3794,-5.3794,-5.3794,-5.3794,-5.3683,-5.3497,-5.372,-5.3534,-5.3088,-5.2494,-5.1899,-5.1416,-5.1416,-5.1416,-5.1379,0.0,0.0,0.0,-3.8673,-3.8689,-3.8689,-3.8689,-3.8689,-3.8735,-3.8833,-3.8892,-3.911,-3.9623,-4.1189,-4.2231,-4.2314,-4.4019,-4.499,-4.4751,-4.5983,-4.7131,-4.8002,-4.8807,-4.9709,-5.0628,-5.1451,-5.2069,-5.2482,-5.3311,-5.3512,-5.3163,-5.3628,-5.3682,-5.3383,-5.2843,-5.2598,-5.252,-5.1667,-5.0729,-4.9701,-4.8198,-4.6636,-4.5186,-4.4856,-4.4415,-4.3975,-4.3608,-4.3515,-4.3515,-4.3515,0.0,0.0,0.0,0.0,0.0,0.0,0.0,0.0,0.0,0.0,0.0,0.0,0.0,0.0,0.0,0.0,0.0,0.0,0.0,0.0,0.0,0.0,0.0,0.0,-4.5901,-4.6389,-4.6723,-4.7202,-4.7999,-4.9262,-4.9745,-5.0339,-5.1305,-5.1714,-5.1899,-5.1899,-5.2642,-5.3088,-5.3088,-5.3571,-5.3943,-5.4314,-5.398,-5.398,-5.4314,-5.398,-5.3794,-5.3794,-5.3794,-5.3794,-5.3794,-5.3794,-5.3794,0.0,-5.3794,-5.3794,-5.3794,-5.3794,-5.3794,0.0,0.0,0.0,0.0,0.0,-5.2419,-5.2345,0.0,0.0,0.0,-3.8689,-3.8689,-3.8689,-3.8689,-3.8689,-3.8795,-3.9036,-3.887,-3.8993,-3.9728,-4.1041,-4.1933,-4.2181,-4.3691,-4.4874,-4.5345,-4.671,-4.7673,-4.8087,-4.9721,-5.0632,-5.063,-5.2263,-5.3036,-5.286,-5.3589,-5.3777,-5.3481,-5.3481,-5.34,-5.3297,-5.3297,-5.3272,-5.313,-5.2454,-5.2087,-5.1867,-5.0345,-4.8306,-4.6067,-4.5296,-4.4838,-4.4635,-4.3901,-4.3588,-4.3515,-4.3515,0.0,0.0,0.0,0.0,0.0,0.0,0.0,0.0,0.0,0.0,0.0,0.0,0.0,0.0,0.0,0.0,0.0,0.0,0.0,0.0,0.0,0.0,0.0,0.0,-4.7089,-4.8026,-4.8842,-4.9172,-4.9596,-5.0302,-5.1045,-5.1565,-5.1676,-5.2308,-5.2754,-5.2754,-5.3423,-5.3831,-5.3943,0.0,0.0,0.0,0.0,-5.4426,-5.5131,-5.4463,-5.4054,-5.3943,-5.3943,-5.3905,-5.3794,-5.3794,-5.3794,-5.3794,-5.3794,-5.3794,-5.3794,-5.3794,-5.3794,-5.3794,-5.3794,-5.3794,-5.3794,-5.3794,-5.3794,0.0,0.0,0.0,-3.8689,-3.8689,-3.8689,-3.8689,-3.8689,-3.8689,-3.8704,-3.8765,-3.8719,-3.8818,-3.9205,-4.0276,-4.1126,-4.1633,-4.2988,-4.4612,-4.6465,-4.6679,-4.7703,-4.9956,-5.0455,-5.1314,-5.2623,-5.2731,-5.3115,-5.3824,-5.3664,-5.3561,-5.3481,-5.338,-5.3277,-5.3209,-5.3209,-5.3188,-5.3167,-5.3041,-5.2601,-5.1903,-5.0949,-4.9481,-4.7755,-4.6929,-4.5828,-4.4654,-4.4525,-4.4048,-4.3515,-4.3515,-4.3515,-4.3515,-4.3515,-4.3515,0.0,0.0,0.0,0.0,0.0,0.0,0.0,0.0,0.0,0.0,0.0,0.0,0.0,0.0,0.0,0.0,0.0,0.0,0.0,-4.6966,-4.7956,-4.8912,-4.9657,-5.099,-5.1936,-5.2085,-5.2271,-5.2605,-5.3274,-5.3497,-5.3571,-5.3571,-5.372,-5.4091,-5.4723,-5.476,0.0,-5.6023,-5.5912,-5.5874,-5.606,-5.5874,-5.5466,-5.476,0.0,0.0,-5.3794,-5.3794,-5.3794,-5.3794,-5.3794,-5.3794,-5.3794,-5.3794,-5.3794,-5.3794,-5.3794,-5.3794,-5.3794,-5.3794,-5.3794,-5.3794,0.0,-3.8481,-3.8643,-3.8673,-3.8689,-3.8689,-3.8689,-3.8689,-3.8689,-3.8689,-3.8689,-3.881,-3.9092,-3.9941,-4.0775,-4.1445,-4.3103,-4.4849,-4.6523,-4.6898,-4.8,-5.0202,-5.0738,-5.1493,-5.2585,-5.2827,-5.3195,-5.3643,-5.344,-5.3355,-5.3355,-5.3293,-5.323,-5.3203,-5.3203,-5.3203,-5.3203,-5.3203,-5.2968,-5.2491,-5.1279,-5.0288,-4.937,-4.7736,-4.6599,-4.5792,-4.4984,-4.4452,-4.4048,-4.3644,-4.3515,-4.3515,-4.3515,-4.3515,-4.3515,0.0,0.0,0.0,0.0,0.0,0.0,0.0,0.0,0.0,0.0,0.0,0.0,0.0,0.0,-4.6507,-4.6507,0.0,-4.7519,-4.8328,-4.8975,-4.9806,-5.099,-5.1992,-5.2605,-5.2605,-5.2977,-5.3348,-5.3757,-5.3794,-5.3794,-5.3794,-5.4166,-5.4574,-5.4983,-5.5429,-5.6023,-5.6878,-5.6506,-5.6506,-5.6915,-5.6506,-5.6097,-5.5652,-5.5206,-5.4797,-5.4388,-5.398,-5.3794,-5.3794,-5.3794,-5.3794,-5.3794,-5.3794,-5.3794,-5.3794,-5.3794,-5.3794,-5.3794,-5.3794,-5.3794,-5.3794,0.0,0.0,-3.8512,-3.8643,-3.8658,-3.8658,-3.871,-3.8689,-3.8689,-3.8689,-3.8689,-3.878,-3.9007,-3.9663,-4.0457,-4.1431,-4.3168,-4.4758,-4.6005,-4.6837,-4.797,-4.9583,-5.0639,-5.1449,-5.1997,-5.2784,-5.3225,-5.3209,-5.3225,-5.3225,-5.3209,-5.3225,-5.3203,-5.3203,-5.3203,-5.3203,-5.3203,-5.3203,-5.3203,-5.3057,-5.1463,-5.0802,-5.0545,-4.8213,-4.7223,-4.6892,-4.5461,-4.4856,-4.4599,-4.3754,-4.3515,-4.3515,-4.3515,-4.3515,-4.3551,-4.3681,-4.4195,0.0,0.0,0.0,0.0,0.0,0.0,0.0,0.0,0.0,-4.6177,-4.6324,-4.6874,-4.7333,-4.7333,-4.8012,-4.8822,-4.952,-5.0025,-5.0823,-5.2153,-5.2603,-5.2828,-5.2828,-5.3423,-5.3794,-5.3794,-5.3794,-5.3794,-5.3794,-5.4574,-5.5094,-5.5243,-5.606,-5.6915,-5.7732,-5.71,-5.71,-5.7732,-5.71,-5.6692,-5.6506,-5.5652,-5.5169,-5.4983,-5.4166,-5.3794,-5.3794,-5.3794,-5.3794,-5.3794,-5.3794,-5.3794,-5.3794,-5.3794,-5.3794,-5.3794,-5.3794,-5.3794,-5.3794,0.0,0.0,0.0,-3.8512,-3.8507,-3.8559,-3.8673,-3.8689,-3.8689,-3.8689,-3.8689,-3.8704,-3.8735,-3.9038,-3.9863,-4.1356,-4.2173,-4.3221,-4.4798,-4.5662,-4.6801,-4.84,-5.0017,-5.121,-5.1977,-5.2784,-5.323,-5.3297,-5.323,-5.323,-5.3297,-5.323,-5.3203,-5.3203,-5.3203,-5.3203,-5.3203,-5.3203,-5.3203,-5.3057,-5.1463,-5.0802,-5.0618,-4.8857,-4.77,-4.6966,-4.6104,-4.5296,-4.4599,-4.3754,-4.3515,-4.3515,-4.3515,-4.3515,-4.3644,-4.4378,-4.4635,-4.4856,-4.5553,-4.5847,-4.5883,-4.5883,-4.5883,-4.6104,0.0,0.0,-4.7149,-4.7902,-4.8122,-4.8196,-4.8196,-4.8934,-4.958,-4.9653,-5.108,-5.2176,-5.238,-5.3124,-5.3683,-5.3683,-5.3757,-5.3794,-5.3794,-5.3794,-5.3794,-5.3794,-5.4574,-5.5354,-5.6097,-5.6915,-5.7732,-5.8549,-5.8475,-5.8475,-5.8549,-5.8475,-5.8066,-5.736,-5.6543,-5.5763,-5.4983,-5.4166,-5.3794,-5.3794,-5.3794,-5.3794,-5.3794,-5.3794,-5.3794,-5.3794,-5.3794,-5.3794,-5.3794,-5.3794,-5.3794,-5.3794,0.0,0.0,0.0,-3.8352,-3.8417,-3.8481,-3.8559,-3.8575,-3.859,-3.8673,-3.8689,-3.8689,-3.8689,-3.9215,-3.9844,-4.0508,-4.1634,-4.2763,-4.3938,-4.5186,-4.6617,-4.8233,-4.9444,-5.0472,-5.1279,-5.2087,-5.2511,-5.2516,-5.2989,-5.3209,-5.3251,-5.3209,-5.3203,-5.3203,-5.3203,-5.2931,-5.2491,-5.2491,-5.2234,-5.172,-5.0545,-5.0105,-4.9921,-4.8233,-4.7369,-4.7003,-4.6177,-4.5369,0.0,0.0,-4.3515,-4.3588,-4.4048,-4.4195,-4.4378,-4.5149,-4.5736,-4.6269,-4.7095,-4.7315,-4.7315,-4.7315,-4.7315,-4.7388,-4.77,-4.7773,-4.7902,-4.8233,-4.8306,-4.8453,-4.8967,-4.9412,-5.0004,0.0,-5.1838,-5.2602,-5.3084,-5.3532,-5.3794,-5.3794,-5.3794,-5.3794,-5.3794,-5.3794,-5.398,-5.4463,-5.528,-5.6134,-5.6952,-5.7769,-5.8364,-5.8698,-5.8698,-5.8698,-5.8698,-5.8698,-5.8549,-5.8178,-5.6915,-5.6097,-5.5726,-5.4388,-5.3794,-5.3794,-5.3794,-5.3794,-5.3794,-5.3794,-5.3794,-5.3794,-5.3794,-5.3794,-5.3794,-5.3794,-5.3794,-5.3794,0.0,0.0,0.0,-3.8257,-3.8287,-3.8385,-3.8444,-3.8476,-3.8544,-3.8643,-3.8673,-3.8689,-3.8689,-3.9203,-3.9643,-3.9879,-4.0965,-4.2066,-4.3094,-4.4452,-4.5847,-4.7241,-4.8563,-4.9517,-5.0105,-5.1132,-5.1683,-5.1683,-5.227,-5.2564,-5.2564,-5.2564,-5.2564,-5.2564,-5.2564,-5.2234,-5.1683,-5.1683,-5.1316,-5.0729,-4.9664,-4.9243,-4.904,-4.7388,-4.6636,-4.6342,-4.5773,-4.5186,0.0,0.0,-4.3662,-4.3938,-4.4525,-4.4856,-4.5186,-4.5993,-4.6801,-4.7553,-4.8159,-4.8306,-4.8306,-4.8306,-4.8306,-4.8306,-4.8306,-4.8306,-4.8306,-4.8306,-4.8306,-4.8563,-4.9446,-4.9855,-5.0502,-5.1981,-5.2562,-5.3029,-5.3641,-5.3774,-5.3794,-5.3794,-5.3794,-5.3794,-5.3794,-5.3794,-5.4054,-5.4648,-5.5689,-5.6543,-5.7138,-5.8141,-5.8698,-5.8698,-5.8698,-5.8698,-5.8698,-5.8698,-5.8586,-5.8364,-5.6952,-5.6172,-5.5874,-5.4463,-5.3794,-5.3794,-5.3794,-5.3794,-5.3794,-5.3794,-5.3794,-5.3794,-5.3794,-5.3794,-5.3794,-5.3794,-5.3794,-5.3794,0.0,0.0,0.0,0.0,-3.8191,-3.8257,-3.8385,-3.8444,-3.8491,-3.8491,-3.8643,-3.8689,-3.8689,-3.8726,-3.9056,-3.9827,-3.9937,-4.0634,-4.2213,-4.3094,-4.3938,-4.4782,-4.7095,-4.8343,-4.8379,-4.9994,-5.0839,-5.0839,-5.0875,-5.0875,-5.0875,-5.0875,-5.0875,-5.0875,-5.0875,-5.0875,-5.0839,-5.0839,-5.0839,-5.0655,-4.9003,-4.8343,-4.8159,-4.6544,-4.5443,-4.4764,-4.4728,0.0,0.0,0.0,-4.4011,-4.4654,-4.4691,-4.5259,0.0,-4.6819,-4.7626,-4.8269,-4.8306,-4.8306,-4.8306,-4.8306,-4.8306,-4.8306,-4.8306,-4.8306,-4.8306,-4.8306,-4.8306,-4.8582,-4.9506,-5.0335,-5.1224,-5.2324,-5.3158,-5.3696,-5.3775,-5.3794,-5.3794,-5.3794,-5.3794,-5.3794,0.0,-5.3794,-5.3831,-5.3831,-5.5354,-5.632,-5.6357,-5.7843,-5.8698,-5.8698,-5.8698,-5.8698,-5.8698,-5.8698,-5.8326,-5.7546,-5.6692,-5.5874,-5.502,-5.4203,-5.3794,-5.3794,-5.3794,-5.3794,-5.3794,-5.3794,-5.3794,-5.3794,-5.3794,-5.3794,-5.3794,-5.3794,-5.3794,-5.3794,0.0,0.0,0.0,0.0,0.0,-3.8207,-3.8274,-3.8303,-3.8385,-3.8449,-3.8528,0.0,0.0,0.0,0.0,0.0,-3.957,-4.012,-4.0671,-4.247,-4.3608,-4.3901,-4.57,-4.6728,-4.6728,-4.8306,-4.915,-4.915,-5.0251,-5.0802,-5.0802,-5.0802,-5.0802,-5.0802,-5.0802,-5.0178,-4.915,-4.915,-4.8526,-4.7498,-4.6948,-4.6728,-4.6581,-4.5516,-4.4966,-4.4635,0.0,0.0,0.0,0.0,0.0,-4.4764,-4.5333,-4.6067,-4.6856,-4.7663,-4.8086,-4.8306,-4.8306,-4.8306,-4.8306,-4.8306,-4.8306,-4.8306,-4.8306,-4.8306,-4.8306,-4.8306,-4.8306,-4.8746,-5.0181,-5.076,-5.1484,-5.2793,-5.3393,-5.3694,-5.36,-5.3676,-5.3716,-5.3716,-5.3774,0.0,0.0,0.0,0.0,-5.5391,-5.5986,-5.6766,-5.7843,-5.8401,-5.8698,-5.8698,-5.8698,-5.8698,-5.8698,-5.8178,-5.7769,-5.7472,-5.6097,-5.502,-5.4203,-5.3943,-5.3794,-5.3794,-5.3794,-5.3794,-5.3794,-5.3794,-5.3794,-5.3794,-5.3794,-5.3794,-5.3794,-5.3794,-5.3794,-5.3794,0.0,0.0,0.0,0.0,0.0,0.0,0.0,0.0,0.0,0.0,0.0,0.0,0.0,0.0,0.0,0.0,0.0,-3.957,-3.9879,-4.1348,-4.2323,-4.2616,-4.4195,-4.5039,-4.5039,-4.6617,-4.7462,-4.7462,-4.8526,-4.904,-4.904,-4.904,-4.904,-4.904,-4.904,-4.8453,-4.7462,-4.7462,-4.6838,-4.5883,-4.559,-4.548,-4.5369,-4.4599,-4.4268,0.0,0.0,0.0,0.0,0.0,-4.4232,-4.5223,-4.5736,-4.6654,-4.7626,-4.8159,-4.8306,-4.8306,-4.8306,-4.8306,-4.8306,-4.8306,-4.8306,-4.8306,-4.8306,-4.8306,-4.8306,-4.8306,-4.8306,-4.882,-5.0532,-5.0944,-5.1539,-5.3121,-5.3518,-5.3598,-5.3578,-5.3674,-5.3714,-5.3716,-5.3793,-5.3794,0.0,0.0,0.0,-5.5317,-5.5949,-5.6766,-5.7806,-5.8401,-5.8698,-5.8698,-5.8698,-5.8549,-5.8289,-5.7769,-5.7212,-5.658,-5.5243,-5.4314,-5.3794,-5.3794,-5.3794,-5.3794,-5.3794,-5.3794,-5.3794,-5.3794,-5.3794,-5.3794,-5.3794,-5.3794,-5.3794,-5.3794,-5.3794,-5.3794,0.0,0.0,0.0,0.0,0.0,0.0,0.0,0.0,0.0,0.0,0.0,0.0,0.0,0.0,0.0,0.0,0.0,0.0,-3.979,-3.9879,0.0,-4.1022,-4.2543,-4.3387,-4.3441,-4.4966,-4.581,-4.5847,-4.5883,-4.5883,-4.5883,-4.5883,-4.5883,-4.5883,-4.5883,-4.5883,-4.5847,-4.5847,-4.581,-4.57,-4.4966,-4.4635,-4.4562,-4.3791,0.0,0.0,0.0,0.0,0.0,0.0,-4.4562,-4.592,-4.5957,-4.7058,-4.8306,-4.8306,-4.8306,-4.8306,-4.8306,-4.8306,-4.8306,-4.8306,-4.8306,-4.8306,-4.8306,-4.8306,-4.8306,-4.8306,-4.8306,-4.8802,0.0,0.0,-5.1443,-5.3165,-5.3481,-5.3558,-5.3674,-5.3694,-5.3696,0.0,0.0,0.0,0.0,0.0,0.0,-5.3849,0.0,-5.632,-5.6357,-5.7843,-5.8698,-5.8698,-5.8698,-5.8326,-5.7509,-5.7398,-5.6543,-5.4946,-5.4166,-5.3794,-5.3794,-5.3794,-5.3794,-5.3794,-5.3794,-5.3794,-5.3794,-5.3794,-5.3794,-5.3794,-5.3794,-5.3794,-5.3794,-5.3794,-5.3794,-5.3794,0.0,0.0,0.0,0.0,0.0,0.0,0.0,0.0,0.0,0.0,0.0,0.0,0.0,0.0,0.0,0.0,0.0,0.0,-3.8982,0.0,0.0,0.0,0.0,0.0,0.0,0.0,0.0,-4.5002,-4.5626,-4.5883,-4.5883,-4.5883,-4.5883,-4.5883,-4.5883,-4.5553,-4.5002,-4.5002,-4.4672,-4.4102,0.0,-4.3791,-4.3791,0.0,0.0,0.0,0.0,0.0,0.0,0.0,-4.4562,-4.5993,-4.6617,-4.748,-4.8306,-4.8306,-4.8306,-4.8306,-4.8306,-4.8306,-4.8306,-4.8306,-4.8306,-4.8306,-4.8306,-4.8306,-4.8306,-4.8306,-4.8306,-4.8636,0.0,0.0,0.0,-5.2226,-5.3011,0.0,-5.34,-5.3578,0.0,-5.3696,0.0,-5.3793,-5.3716,-5.3774,0.0,0.0,-5.5589,-5.658,-5.7175,-5.8141,-5.8698,-5.8698,-5.8698,-5.8326,-5.7509,-5.6283,-5.5131,-5.4091,-5.3905,-5.3794,-5.3794,-5.3794,-5.3794,-5.3794,-5.3794,-5.3794,-5.3794,-5.3794,-5.3794,-5.3794,-5.3794,-5.3794,-5.3794,-5.3794,-5.3794,-5.3794,0.0,0.0,0.0,0.0,0.0,0.0,0.0,0.0,0.0,0.0,0.0,0.0,0.0,0.0,0.0,0.0,0.0,0.0,0.0,0.0,0.0,0.0,0.0,0.0,0.0,0.0,0.0,0.0,0.0,0.0,-4.4856,-4.4856,-4.4856,-4.4856,-4.4856,-4.4599,-4.4158,-4.4158,0.0,0.0,0.0,0.0,0.0,0.0,0.0,0.0,0.0,0.0,0.0,0.0,0.0,-4.559,-4.6746,-4.7406,-4.7846,-4.8196,-4.8306,-4.8306,-4.8306,-4.8306,-4.8306,-4.8306,-4.8306,-4.8306,-4.8306,-4.8306,-4.8306,-4.8306,-4.8306,-4.8563,-4.9463,-5.0274,-5.1123,0.0,0.0,0.0,-5.3477,-5.3598,-5.3714,0.0,-5.3716,0.0,-5.3617,-5.399,-5.436,0.0,-5.5738,-5.6634,-5.7353,-5.8211,-5.8698,-5.8698,-5.8364,-5.7621,-5.6432,-5.5131,-5.424,-5.3794,-5.3794,-5.3794,-5.3794,-5.3794,-5.3794,-5.3794,0.0,-5.3794,-5.3794,-5.3794,-5.3794,-5.3794,-5.3794,-5.3794,-5.3794,-5.3794,-5.3794,-5.3794,0.0,0.0,0.0,0.0,0.0,0.0,0.0,0.0,0.0,0.0,-3.8241,-3.829,0.0,0.0,0.0,0.0,0.0,0.0,0.0,0.0,0.0,0.0,0.0,0.0,0.0,0.0,0.0,0.0,0.0,0.0,0.0,0.0,0.0,0.0,0.0,0.0,0.0,0.0,0.0,0.0,0.0,0.0,0.0,0.0,0.0,0.0,0.0,0.0,0.0,0.0,-4.4011,-4.4948,-4.6452,-4.7003,-4.7259,-4.8086,-4.8306,-4.8306,-4.8306,-4.8306,-4.8306,-4.8306,-4.8306,-4.8306,-4.8306,-4.8306,-4.8306,-4.8306,-4.8306,-4.8526,-4.928,-5.0178,-5.1063,-5.1788,0.0,-5.338,-5.3598,-5.3674,-5.3694,-5.3694,-5.3694,-5.3617,-5.3481,-5.4219,-5.4814,-5.4987,-5.5906,-5.6726,-5.7291,-5.819,-5.8661,-5.8549,-5.7658,-5.6469,-5.502,-5.4203,-5.3794,-5.3794,-5.3794,-5.3794,-5.3794,-5.3794,-5.3794,-5.3794,0.0,0.0,-5.3794,-5.3794,-5.3794,-5.3794,-5.3794,-5.3794,-5.3794,-5.3794,-5.3794,-5.3794,0.0,0.0,0.0,0.0,0.0,0.0,0.0,0.0,0.0,0.0,-3.8191,-3.8241,0.0,0.0,0.0,0.0,0.0,0.0,0.0,0.0,0.0,0.0,0.0,0.0,0.0,0.0,0.0,0.0,0.0,0.0,0.0,0.0,0.0,0.0,0.0,0.0,0.0,0.0,0.0,0.0,0.0,0.0,0.0,0.0,0.0,0.0,0.0,0.0,0.0,0.0,-4.4011,-4.4838,-4.581,-4.6562,-4.7259,-4.8086,-4.8306,-4.8306,-4.8306,-4.8306,-4.8306,-4.8306,-4.8306,-4.8306,-4.8306,-4.8306,0.0,-4.8306,-4.8306,-4.8343,-4.8489,-4.9774,-5.0839,-5.1006,-5.23,-5.3318,-5.3359,-5.344,-5.3521,0.0,-5.3521,-5.3461,-5.3359,-5.4277,0.0,0.0,0.0,-5.734,-5.7468,-5.8231,-5.8401,-5.7732,-5.6246,-5.528,-5.502,-5.4203,-5.3794,-5.3794,-5.3794,-5.3794,-5.3794,-5.3794,-5.3794,-5.3794,0.0,0.0,-5.3794,-5.3794,-5.3794,-5.3794,-5.3794,-5.3794,-5.3794,-5.3794,-5.3794,-5.3794,0.0,0.0,0.0,0.0,0.0,0.0,0.0,-3.7151,-3.7036,-3.7468,-3.7523,-3.7703,-3.8191,-3.7911,-3.7851,0.0,0.0,0.0,0.0,0.0,0.0,0.0,0.0,0.0,0.0,0.0,0.0,0.0,0.0,0.0,0.0,0.0,0.0,0.0,0.0,0.0,0.0,0.0,0.0,0.0,0.0,0.0,0.0,0.0,0.0,0.0,0.0,0.0,0.0,0.0,-4.3754,-4.4305,-4.5516,-4.6177,-4.6728,-4.7939,-4.8306,-4.8306,-4.8306,-4.8306,-4.8306,-4.8306,-4.8306,-4.8306,-4.8306,0.0,0.0,-4.8306,-4.8306,-4.8306,-4.8306,-4.9664,-5.0822,-5.0845,-5.221,-5.3339,-5.34,-5.3461,-5.3461,-5.34,-5.344,-5.3625,0.0,-5.4864,0.0,0.0,0.0,-5.8,-5.8,-5.8062,-5.7732,-5.6915,-5.5652,-5.4797,-5.4388,-5.398,-5.3794,-5.3794,-5.3794,-5.3794,-5.3794,-5.3794,-5.3794,-5.3794,-5.3794,0.0,-5.3794,-5.3794,-5.3794,-5.3794,-5.3794,-5.3794,-5.3794,-5.3794,-5.3794,-5.3794,0.0,0.0,0.0,0.0,0.0,0.0,-3.688,-3.6741,-3.6681,-3.688,-3.6821,-3.7091,-3.7845,-3.7313,-3.7212,0.0,0.0,0.0,0.0,0.0,0.0,0.0,0.0,0.0,0.0,0.0,0.0,0.0,0.0,0.0,0.0,0.0,0.0,0.0,0.0,0.0,0.0,0.0,0.0,0.0,0.0,0.0,0.0,0.0,0.0,0.0,0.0,0.0,0.0,0.0,-4.3515,-4.3754,-4.5186,-4.5773,-4.6177,-4.7609,-4.8159,-4.8306,-4.8306,-4.8306,-4.8306,-4.8306,-4.8306,-4.8306,-4.8306,-4.8306,-4.8306,-4.8306,-4.8306,-4.8306,-4.8306,-4.9517,-5.0622,0.0,-5.2063,-5.3134,-5.34,-5.3457,-5.3416,0.0,-5.338,0.0,-5.426,-5.5286,0.0,0.0,0.0,0.0,-5.8291,-5.7596,-5.6878,-5.606,-5.5206,-5.4443,-5.3793,-5.3793,-5.3737,-5.3717,-5.3737,-5.3793,-5.3793,-5.3775,-5.3794,-5.3794,-5.3794,0.0,0.0,-5.3794,-5.3794,-5.3794,-5.3794,-5.3794,-5.3794,-5.3794,-5.3794,-5.3794,0.0,0.0,0.0,0.0,0.0,0.0,-3.6841,-3.6207,-3.6006,-3.6801,-3.6594,-3.6533,-3.6958,-3.6629,-3.6555,0.0,0.0,0.0,0.0,0.0,0.0,0.0,0.0,0.0,0.0,0.0,0.0,0.0,0.0,0.0,0.0,0.0,0.0,0.0,0.0,0.0,0.0,0.0,0.0,0.0,0.0,0.0,0.0,0.0,0.0,0.0,0.0,0.0,0.0,0.0,0.0,-4.3662,-4.4525,-4.5296,-4.6067,-4.6929,0.0,0.0,-4.8306,-4.8306,-4.8306,-4.8306,-4.8306,-4.8306,-4.8306,0.0,-4.8306,-4.8306,-4.8306,-4.8306,-4.8306,-4.9077,-4.9941,-5.0712,-5.1557,-5.2364,-5.3136,-5.3246,-5.3209,-5.3188,0.0,0.0,-5.3429,0.0,0.0,0.0,0.0,0.0,0.0,-5.684,-5.6023,-5.5169,-5.4351,-5.3848,-5.3714,-5.3714,-5.3637,-5.3521,-5.3637,-5.3714,-5.3714,-5.3774,-5.3794,-5.3794,0.0,0.0,0.0,-5.3794,-5.3794,-5.3794,-5.3794,-5.3794,-5.3794,-5.3794,-5.3794,-5.3794,0.0,0.0,0.0,0.0,0.0,0.0,-3.6114,-3.581,-3.57,-3.6092,-3.5963,-3.6049,-3.6492,-3.556,-3.5361,-3.6502,-3.5555,0.0,0.0,0.0,0.0,0.0,0.0,0.0,0.0,0.0,-3.9678,-4.0702,-4.0994,0.0,0.0,0.0,0.0,0.0,0.0,0.0,0.0,-4.3232,0.0,0.0,0.0,0.0,0.0,0.0,0.0,0.0,0.0,0.0,0.0,0.0,0.0,0.0,-4.3864,-4.4525,0.0,0.0,-4.7333,-4.7663,-4.8196,-4.8306,-4.8306,-4.8306,-4.8306,-4.8306,-4.8306,0.0,-4.8306,-4.8306,-4.8306,-4.8306,-4.8306,-4.9003,-4.9867,-5.0655,-5.1463,0.0,-5.3115,-5.3203,-5.3203,-5.3203,-5.3235,0.0,0.0,0.0,0.0,0.0,0.0,0.0,0.0,-5.6169,-5.5912,-5.5057,-5.424,-5.3812,-5.3754,-5.3733,-5.3694,-5.3617,-5.3598,-5.3578,-5.3578,-5.3676,-5.3735,-5.3735,0.0,0.0,0.0,-5.3794,-5.3794,-5.3794,-5.3794,-5.3794,-5.3794,-5.3794,-5.3794,-5.3794,0.0,0.0,0.0,0.0,0.0,-3.56,-3.56,-3.56,-3.56,-3.56,-3.56,-3.5632,-3.5741,-3.4576,-3.4224,-3.5223,-3.442,0.0,0.0,0.0,0.0,0.0,0.0,0.0,0.0,0.0,-3.8983,-4.0239,-4.0384,-4.1289,0.0,0.0,0.0,0.0,0.0,0.0,0.0,0.0,0.0,0.0,0.0,0.0,0.0,0.0,0.0,0.0,0.0,0.0,0.0,0.0,0.0,-4.3321,-4.348,0.0,0.0,0.0,-4.6892,-4.7259,-4.8067,-4.8306,-4.8306,-4.8306,-4.8306,-4.8306,-4.8306,0.0,-4.8306,-4.8306,-4.8306,-4.8306,-4.8306,-4.8783,-4.9554,-5.0618,-5.1279,-5.2013,-5.3078,-5.3203,-5.3203,0.0,0.0,0.0,0.0,0.0,0.0,0.0,0.0,0.0,0.0,-5.5495,-5.5501,-5.4686,-5.4091,-5.3756,-5.3698,-5.3657,-5.3635,-5.3555,-5.3498,-5.344,-5.344,-5.3578,-5.3617,-5.3637,0.0,0.0,0.0,-5.3698,-5.3717,-5.3774,-5.3774,-5.3793,-5.3794,-5.3794,-5.3794,-5.3794,0.0,0.0,0.0,0.0,0.0,-3.56,-3.56,-3.56,-3.56,-3.56,-3.56,-3.5295,-3.4595,-3.3829,-3.3305,-3.2953,-3.3047,0.0,0.0,0.0,0.0,0.0,0.0,0.0,0.0,0.0,-3.8309,-3.9935,-4.0293,-4.1307,-4.2901,-4.3286,-4.3497,-4.3497,0.0,0.0,0.0,0.0,-4.2901,0.0,0.0,0.0,0.0,0.0,0.0,0.0,0.0,0.0,0.0,0.0,0.0,0.0,0.0,-4.3515,-4.3845,-4.5443,-4.6471,-4.7259,-4.8067,-4.8306,-4.8306,-4.8306,-4.8306,-4.8306,-4.8306,-4.8306,-4.8306,-4.8306,-4.8306,-4.8306,-4.8306,-4.8306,-4.8857,-5.0545,-5.0802,0.0,-5.2947,-5.3203,-5.3203,0.0,0.0,0.0,0.0,0.0,0.0,0.0,0.0,0.0,0.0,-5.4778,-5.4568,-5.3831,-5.3794,-5.3698,-5.3501,-5.3481,-5.3416,-5.3225,-5.3256,-5.3318,-5.3318,-5.344,-5.3481,0.0,0.0,0.0,0.0,-5.3481,-5.3578,-5.3714,-5.3714,-5.3735,-5.3794,-5.3794,-5.3794,-5.3794,0.0,0.0,0.0,0.0,0.0,0.0,-3.56,-3.56,-3.56,-3.56,-3.5182,-3.4776,-3.4539,-3.341,-3.2726,-3.29,-3.2704,0.0,0.0,0.0,0.0,0.0,0.0,0.0,0.0,-3.722,-3.814,-3.9403,-3.9825,-4.086,-4.2438,-4.2882,-4.3087,-4.3069,-4.2957,-4.2729,0.0,-4.2092,-4.1931,0.0,0.0,0.0,0.0,0.0,0.0,0.0,0.0,0.0,0.0,0.0,0.0,0.0,0.0,0.0,0.0,-4.4782,-4.5663,-4.6471,-4.7259,-4.7883,-4.8306,-4.8306,-4.8306,-4.8306,-4.8306,-4.8306,-4.8306,-4.8306,-4.8306,-4.8306,-4.8306,-4.8306,-4.8857,-5.0545,-5.0802,0.0,0.0,0.0,0.0,-5.3203,0.0,0.0,0.0,0.0,0.0,0.0,0.0,0.0,0.0,-5.3748,-5.3796,-5.3716,-5.3716,-5.3696,-5.3617,-5.344,-5.3339,-5.3256,-5.3251,-5.323,-5.323,-5.3318,0.0,0.0,0.0,0.0,0.0,-5.3481,-5.3538,-5.3578,-5.3578,-5.3598,-5.358,-5.358,-5.3657,-5.3716,0.0,0.0,0.0,0.0,0.0,0.0,-3.56,-3.56,-3.56,-3.56,-3.4979,-3.437,-3.41,-3.3038,-3.2292,-3.2241,-3.2154,0.0,0.0,0.0,0.0,0.0,0.0,0.0,-3.5946,-3.6667,-3.7692,-3.8977,-3.9549,-4.0566,-4.1966,-4.2577,-4.2806,-4.2616,-4.2458,-4.2216,0.0,-4.1609,-4.1622,-4.1839,0.0,0.0,-4.1888,0.0,0.0,0.0,0.0,0.0,0.0,0.0,0.0,0.0,0.0,0.0,0.0,0.0,-4.4819,-4.57,-4.6782,-4.77,-4.8306,-4.8306,-4.8306,-4.8306,-4.8306,-4.8306,-4.8306,-4.8306,-4.8306,-4.8306,-4.8306,-4.8306,-4.8857,-5.0545,-5.0802,-5.1353,0.0,0.0,0.0,-5.3203,0.0,0.0,0.0,0.0,0.0,0.0,0.0,0.0,0.0,0.0,-5.338,-5.3538,-5.3598,-5.3598,-5.3558,-5.338,-5.3297,-5.3235,-5.3209,-5.3203,-5.3225,-5.3251,0.0,0.0,0.0,0.0,0.0,-5.3396,-5.338,-5.342,-5.342,-5.344,-5.3481,-5.3481,-5.3558,-5.3598,0.0,0.0,0.0,0.0,0.0,0.0,0.0,-3.5532,-3.5498,-3.543,-3.481,-3.4066,-3.3389,-3.2645,-3.1955,-3.1258,-3.147,0.0,0.0,0.0,0.0,0.0,0.0,0.0,-3.5111,-3.5939,-3.7111,-3.8594,-3.9499,-4.0461,-4.1534,-4.2438,-4.2596,-4.2154,-4.1674,-4.149,-4.1468,-4.149,-4.1753,-4.2113,-4.2154,-4.1881,0.0,0.0,0.0,0.0,0.0,0.0,0.0,0.0,0.0,0.0,0.0,0.0,0.0,0.0,0.0,0.0,0.0,-4.759,-4.8233,-4.8306,-4.8306,-4.8306,-4.8306,-4.8306,0.0,-4.8306,-4.8306,-4.8306,-4.8306,-4.8306,-4.8857,-5.0545,-5.0802,-5.1353,0.0,-5.3203,0.0,0.0,0.0,0.0,0.0,0.0,0.0,0.0,0.0,0.0,0.0,0.0,-5.3297,-5.3297,-5.34,-5.342,-5.3318,-5.3297,-5.3235,-5.3203,-5.3203,-5.3203,-5.3203,-5.3203,0.0,0.0,0.0,0.0,0.0,-5.3203,-5.323,-5.3297,-5.3297,-5.3359,-5.3461,-5.3461,-5.3461,-5.3481,0.0,0.0,0.0,0.0,0.0,0.0,0.0,0.0,0.0,0.0,-3.3254,-3.2767,-3.2598,-3.1921,-3.1413,0.0,0.0,0.0,0.0,0.0,0.0,0.0,0.0,0.0,-3.4197,-3.6172,-3.7685,-3.8594,-3.9707,-4.0693,-4.1534,-4.2113,-4.2098,-4.1666,-4.1556,-4.1311,-4.1047,-4.1356,-4.1378,-4.1232,-4.1534,-4.1401,0.0,0.0,0.0,0.0,-4.0894,-4.0894,0.0,0.0,0.0,0.0,0.0,0.0,0.0,0.0,-4.3852,-4.4543,-4.5847,0.0,-4.7516,-4.8159,-4.8306,-4.8306,0.0,-4.8306,-4.8306,-4.8306,-4.8306,-4.8306,-4.8306,-4.8306,-4.8857,-5.0545,-5.0802,-5.1353,-5.2947,0.0,0.0,0.0,0.0,0.0,0.0,0.0,0.0,0.0,0.0,0.0,0.0,0.0,-5.3209,-5.3209,-5.3251,-5.3293,-5.3318,-5.3272,-5.3209,-5.3203,-5.3203,-5.3203,-5.3203,-5.3203,0.0,0.0,0.0,0.0,-5.3203,-5.3203,-5.3188,-5.3209,-5.3209,-5.323,-5.3251,-5.3251,-5.3314,-5.3339,0.0,0.0,0.0,0.0,0.0,0.0,0.0,0.0,0.0,0.0,-3.2767,-3.2293,-3.2293,-3.165,-3.119,0.0,0.0,0.0,0.0,0.0,0.0,0.0,0.0,-3.4074,-3.4479,-3.6469,-3.7858,-3.8594,-3.9809,-4.0688,-4.1255,-4.1687,-4.1644,-4.1232,-4.1232,-4.1094,-4.0894,-4.1117,-4.1094,-4.0918,-4.114,0.0,0.0,0.0,0.0,0.0,-4.0894,-4.0894,0.0,-4.1356,-4.1378,-4.1378,0.0,0.0,0.0,0.0,-4.3396,-4.3883,-4.5443,-4.6507,-4.7296,-4.8122,-4.8306,-4.8306,-4.8306,-4.8306,-4.8306,-4.8306,-4.8306,-4.8306,-4.8306,-4.8636,-4.9297,0.0,-5.1096,0.0,0.0,0.0,0.0,0.0,0.0,0.0,0.0,0.0,0.0,0.0,0.0,0.0,0.0,0.0,-5.3203,-5.3203,-5.3203,-5.3209,-5.3235,-5.3209,-5.3203,-5.3203,-5.3203,-5.3203,-5.3203,-5.3203,0.0,0.0,0.0,0.0,-5.3203,-5.3203,-5.3203,-5.3203,-5.3203,-5.3203,-5.3203,-5.3203,-5.3209,-5.3251,0.0,0.0,0.0,0.0,0.0,0.0,0.0,0.0,0.0,0.0,0.0,0.0,0.0,0.0,0.0,0.0,0.0,0.0,0.0,0.0,0.0,0.0,-3.3534,-3.4301,-3.5159,-3.6801,-3.7996,-3.8594,-3.9883,-4.0627,-4.0894,-4.1255,-4.1232,-4.0894,-4.0894,-4.0894,-4.0894,-4.0894,-4.0894,-4.0894,-4.0894,0.0,0.0,0.0,0.0,0.0,0.0,0.0,0.0,-4.1288,-4.1186,-4.1059,-4.186,0.0,0.0,0.0,0.0,0.0,-4.513,-4.6248,-4.7056,-4.8067,-4.8306,-4.8306,-4.8306,-4.8306,-4.8306,-4.8306,-4.8306,-4.8343,0.0,-4.9077,0.0,0.0,0.0,0.0,0.0,0.0,0.0,0.0,0.0,0.0,0.0,0.0,0.0,0.0,0.0,0.0,0.0,0.0,0.0,-5.3203,-5.3203,-5.3203,-5.3203,-5.3203,-5.3203,-5.3203,-5.3203,-5.3203,-5.3203,-5.3203,0.0,0.0,0.0,0.0,-5.3203,-5.3203,-5.3203,-5.3203,-5.3203,-5.3203,-5.3203,-5.3203,-5.3203,-5.3203,0.0,0.0,0.0,0.0,0.0,0.0,0.0,0.0,0.0,0.0,0.0,0.0,0.0,0.0,0.0,0.0,0.0,0.0,0.0,0.0,0.0,-3.3636,-3.3848,-3.428,-3.5091,-3.7275,-3.8491,-3.8594,-4.0101,-4.0861,-4.0894,-4.0965,-4.0965,-4.0894,-4.0894,-4.0894,-4.0894,-4.0894,-4.0894,-4.0894,-4.0894,0.0,0.0,0.0,0.0,0.0,0.0,0.0,0.0,-4.0965,-4.0942,-4.0989,-4.1468,0.0,0.0,0.0,0.0,0.0,-4.4157,-4.5147,-4.6035,-4.7862,-4.8306,-4.8306,-4.8306,-4.8306,-4.8306,-4.8306,0.0,0.0,0.0,-4.95,-5.0088,0.0,0.0,0.0,0.0,0.0,0.0,0.0,0.0,0.0,0.0,0.0,0.0,0.0,0.0,0.0,0.0,0.0,0.0,-5.3203,-5.3203,-5.3203,-5.3203,-5.3203,-5.3203,-5.3203,-5.3203,-5.3203,-5.3203,-5.3203,-5.3203,0.0,0.0,-5.3203,-5.3203,-5.3203,-5.3203,-5.3203,-5.3203,-5.3203,-5.3203,-5.3203,-5.3203,-5.3203,0.0,0.0,0.0,0.0,0.0,0.0,0.0,0.0,0.0,0.0,0.0,0.0,0.0,0.0,0.0,0.0,0.0,0.0,0.0,0.0,-3.318,-3.4384,-3.4954,-3.5566,-3.6358,-3.7814,-3.8801,-3.9181,-4.0342,-4.0894,-4.0894,-4.0894,-4.0894,-4.0894,-4.0894,-4.0894,-4.0894,-4.0894,-4.0894,-4.0894,0.0,0.0,0.0,0.0,0.0,0.0,0.0,0.0,0.0,0.0,-4.0894,-4.0918,-4.1117,0.0,0.0,0.0,0.0,0.0,-4.3942,-4.4895,-4.5715,-4.7494,-4.8094,-4.8306,-4.8306,-4.8306,-4.8306,-4.8306,0.0,0.0,0.0,0.0,-5.1279,-5.2454,0.0,0.0,0.0,0.0,0.0,0.0,0.0,0.0,0.0,0.0,0.0,0.0,0.0,0.0,0.0,0.0,0.0,0.0,-5.3203,-5.3203,-5.3203,-5.3203,-5.3203,-5.3203,-5.3203,-5.3203,-5.3203,-5.3203,-5.3203,-5.3203,0.0,-5.3203,-5.3203,-5.3203,-5.3203,-5.3203,-5.3203,-5.3203,-5.3203,-5.3203,-5.3203,-5.3203,0.0,0.0,0.0,0.0,0.0,0.0,0.0,0.0,0.0,0.0,0.0,0.0,0.0,0.0,0.0,0.0,0.0,0.0,0.0,-3.2758,-3.3542,-3.4835,-3.5908,-3.6827,-3.7512,-3.8365,-3.9089,-3.9698,-4.0468,-4.0847,-4.0894,-4.0894,-4.0894,-4.0894,-4.0894,-4.0894,-4.0894,-4.0894,-4.0894,-4.0894,0.0,0.0,0.0,0.0,0.0,0.0,0.0,0.0,0.0,0.0,0.0,0.0,0.0,0.0,0.0,-4.1277,-4.1495,-4.2006,-4.3726,-4.4786,-4.5709,-4.6953,-4.7777,-4.8306,-4.8306,-4.8306,-4.8379,-4.8563,0.0,0.0,0.0,-5.1316,0.0,-5.3093,0.0,0.0,0.0,0.0,0.0,0.0,0.0,0.0,0.0,0.0,0.0,0.0,0.0,0.0,0.0,0.0,0.0,0.0,-5.3203,-5.3203,-5.3203,-5.3203,-5.3203,-5.3203,-5.3203,-5.3203,-5.3203,-5.3203,-5.3203,-5.3203,-5.3203,-5.3203,-5.3203,-5.3203,-5.3203,-5.3203,-5.3203,-5.3203,-5.3203,-5.3203,-5.3203,-5.3203,0.0,0.0,0.0,0.0,0.0,0.0,0.0,0.0,0.0,0.0,0.0,0.0,0.0,0.0,0.0,0.0,0.0,0.0,0.0,-3.3169,-3.3945,-3.4869,-3.6271,-3.7202,-3.7491,-3.8791,-3.9525,-3.9698,-4.0373,-4.0776,-4.0894,-4.0894,-4.0894,-4.0894,-4.0894,-4.0894,-4.0894,-4.0894,-4.0894,-4.0894,-4.0894,0.0,0.0,0.0,0.0,0.0,0.0,0.0,0.0,0.0,0.0,0.0,0.0,0.0,-4.0894,-4.0918,-4.1425,-4.2151,-4.3029,-4.4472,-4.5775,-4.62,-4.7313,-4.8306,-4.8306,-4.8306,-4.8526,-4.9353,-4.9574,0.0,0.0,-5.2527,0.0,0.0,0.0,0.0,0.0,0.0,0.0,0.0,0.0,0.0,0.0,0.0,0.0,0.0,0.0,0.0,0.0,0.0,0.0,0.0,0.0,-5.3203,-5.3203,-5.3203,-5.3203,-5.3203,-5.3203,-5.3203,-5.3203,-5.3203,-5.3203,-5.3203,-5.3203,-5.3203,-5.3203,-5.3203,-5.3203,-5.3203,-5.3203,-5.3203,-5.3203,-5.3203,-5.3203,-5.3203,0.0,0.0,0.0,0.0,0.0,0.0,0.0,0.0,0.0,0.0,0.0,-3.119,-3.119,0.0,0.0,0.0,0.0,0.0,0.0,-3.3904,-3.4716,-3.5423,-3.6956,-3.7855,-3.8057,-3.902,-3.9753,-4.0305,-4.0662,-4.0847,-4.0894,-4.0894,-4.0894,-4.0894,-4.0894,-4.0894,-4.0894,-4.0894,-4.0894,-4.0894,-4.0894,-4.0894,0.0,0.0,0.0,0.0,0.0,0.0,0.0,0.0,-4.0894,-4.0894,-4.0894,-4.0894,-4.0894,-4.0894,-4.1412,-4.2206,-4.2965,-4.4198,-4.5411,-4.6042,-4.6822,-4.7421,-4.7421,-4.7796,-4.8316,-4.8961,-4.9877,0.0,0.0,0.0,0.0,0.0,0.0,0.0,0.0,0.0,0.0,0.0,0.0,0.0,0.0,0.0,0.0,0.0,0.0,0.0,0.0,0.0,0.0,0.0,0.0,-5.3203,-5.3203,-5.3203,-5.3203,-5.3203,-5.3203,-5.3203,-5.3203,-5.3203,-5.3203,-5.3203,-5.3203,-5.3203,-5.3203,-5.3203,-5.3203,-5.3203,-5.3203,-5.3203,-5.3203,-5.3203,-5.3203,-5.3203,0.0,0.0,0.0,0.0,0.0,0.0,0.0,0.0,-3.119,0.0,0.0,0.0,0.0,-3.1249,0.0,0.0,0.0,0.0,-3.3694,-3.4385,-3.5061,-3.5778,-3.7331,-3.823,-3.8334,-3.9352,-4.0188,-4.0752,-4.0847,-4.0894,-4.0894,-4.0894,-4.0894,-4.0894,-4.0894,-4.0894,-4.0894,-4.0894,-4.0894,-4.0894,-4.0894,-4.0894,0.0,0.0,0.0,0.0,0.0,0.0,0.0,0.0,-4.0894,-4.0894,-4.0894,-4.0894,-4.0963,-4.117,-4.1792,-4.2551,-4.3345,-4.4436,-4.5477,-4.5865,-4.6491,-4.7003,-4.6837,-4.7559,-4.851,-4.9372,-5.0744,-5.2105,-5.3051,0.0,0.0,0.0,0.0,0.0,0.0,0.0,0.0,0.0,0.0,0.0,0.0,0.0,0.0,0.0,0.0,0.0,0.0,0.0,0.0,0.0,0.0,0.0,-5.3203,-5.3203,-5.3203,-5.3203,-5.3203,-5.3203,-5.3203,-5.3203,-5.3203,-5.3203,-5.3203,-5.3203,-5.3203,-5.3203,-5.3203,-5.3203,-5.3203,-5.3203,-5.3203,-5.3203,-5.3203,-5.3203,0.0,0.0,0.0,0.0,0.0,0.0,0.0,0.0,-3.119,-3.119,-3.1254,0.0,0.0,0.0,0.0,0.0,0.0,0.0,-3.4404,-3.4506,-3.491,-3.5778,-3.7262,-3.8148,-3.8207,-3.9853,-4.0786,-4.0894,-4.0894,-4.0894,-4.0894,-4.0894,-4.0894,-4.0894,-4.0894,-4.0894,-4.0894,-4.0894,-4.0894,-4.0894,-4.0894,-4.0894,-4.0894,0.0,0.0,0.0,0.0,0.0,0.0,0.0,-4.0894,-4.0894,-4.0894,-4.0894,-4.1067,-4.1792,-4.2585,-4.3379,-4.4104,-4.5212,-4.608,-4.5554,-4.6334,-4.7175,-4.6704,-4.7747,-4.9235,-5.0864,-5.228,-5.3203,-5.3203,-5.3203,0.0,0.0,0.0,0.0,0.0,0.0,0.0,0.0,0.0,0.0,0.0,0.0,0.0,0.0,0.0,0.0,0.0,0.0,0.0,0.0,0.0,0.0,-5.3203,-5.3203,-5.3203,-5.3203,-5.3203,-5.3203,-5.3203,-5.3203,-5.3203,-5.3203,-5.3203,-5.3203,-5.3203,-5.3203,-5.3203,-5.3203,-5.3203,-5.3203,-5.3203,-5.3203,-5.3203,-5.3203,0.0,0.0,0.0,0.0,0.0,0.0,0.0,0.0,-3.1385,-3.1274,-3.1351,0.0,0.0,0.0,0.0,0.0,0.0,0.0,-3.4472,-3.5079,-3.579,-3.6616,-3.7626,-3.8423,-3.9016,-4.0127,-4.0786,-4.0894,-4.0894,-4.0894,-4.0894,-4.0894,-4.0894,-4.0894,-4.0894,-4.0894,-4.0894,-4.0894,-4.0894,-4.0894,-4.0894,-4.0894,-4.0894,0.0,0.0,0.0,0.0,0.0,0.0,0.0,0.0,0.0,-4.0894,-4.1274,-4.1723,-4.1964,-4.293,-4.4035,-4.4242,-4.4966,-4.5607,-4.545,-4.6116,-4.6888,-4.7279,-4.8116,-4.9327,0.0,-5.24,-5.3203,-5.3203,0.0,0.0,0.0,0.0,0.0,0.0,0.0,0.0,0.0,0.0,0.0,0.0,0.0,0.0,0.0,0.0,0.0,0.0,0.0,0.0,0.0,0.0,0.0,-5.3203,-5.3203,-5.3203,-5.3203,-5.3203,-5.3203,-5.3203,-5.3203,-5.3203,-5.3203,-5.3203,-5.3203,-5.3203,-5.3203,-5.3203,-5.3203,-5.3203,-5.3203,-5.3203,-5.3203,-5.3203,-5.3203,0.0,0.0,0.0,0.0,0.0,0.0,-3.1327,-3.1404,-3.1462,-3.137,-3.1481,-3.1641,0.0,0.0,0.0,-3.338,-3.4147,0.0,-3.5064,-3.5606,-3.6229,-3.708,-3.7866,-3.8802,-3.9969,-4.0521,-4.0799,-4.0894,-4.0894,-4.0894,-4.0894,-4.0894,-4.0894,-4.0894,-4.0894,-4.0894,-4.0894,-4.0894,-4.0894,-4.0894,-4.0894,-4.0894,-4.0894,0.0,0.0,0.0,0.0,0.0,0.0,0.0,0.0,0.0,-4.124,-4.1654,-4.2137,-4.2723,-4.3586,-4.438,-4.4665,-4.5079,-4.5397,-4.5397,-4.6224,-4.7293,-4.839,0.0,0.0,0.0,-5.209,-5.2649,-5.2828,0.0,0.0,0.0,0.0,0.0,0.0,0.0,0.0,0.0,0.0,0.0,0.0,0.0,0.0,0.0,0.0,0.0,0.0,0.0,0.0,0.0,0.0,0.0,-5.3203,-5.3203,-5.3203,-5.3203,-5.3203,-5.3203,-5.3203,-5.3203,-5.3203,-5.3203,-5.3203,-5.3203,-5.3203,-5.3203,-5.3203,-5.3203,-5.3203,-5.3203,-5.3203,-5.3203,-5.3203,-5.3203,0.0,0.0,-3.1351,-3.1462,0.0,0.0,-3.1583,-3.1602,-3.1656,-3.1705,-3.18,-3.2059,0.0,0.0,0.0,-3.4767,-3.4832,-3.5172,0.0,-3.5997,-3.6417,-3.7372,-3.8196,-3.933,-4.086,-4.0871,-4.0871,-4.0894,-4.0894,-4.0894,-4.0894,-4.0894,-4.0894,-4.0894,-4.0894,-4.0894,-4.0894,-4.0894,-4.0894,-4.0894,-4.0894,-4.0894,-4.0894,-4.0894,0.0,0.0,0.0,0.0,0.0,0.0,0.0,0.0,-4.1792,-4.2102,-4.2482,-4.3897,-4.4345,-4.4527,-4.5225,-4.5397,-4.5397,-4.5397,-4.6535,0.0,-4.9666,-5.0369,-5.0884,-5.1398,0.0,-5.175,0.0,0.0,0.0,0.0,0.0,0.0,0.0,0.0,0.0,0.0,0.0,0.0,0.0,0.0,0.0,0.0,0.0,0.0,0.0,0.0,0.0,0.0,0.0,0.0,-5.3203,-5.3203,-5.3203,0.0,-5.3203,-5.3203,-5.3203,-5.3203,-5.3203,-5.3203,-5.3203,-5.3203,-5.3203,-5.3203,-5.3203,-5.3203,-5.3203,-5.3203,-5.3203,-5.3203,-5.3203,-5.3203,0.0,0.0,-3.1462,-3.1481,0.0,0.0,-3.2286,-3.249,-3.2808,-3.3313,-3.3495,-3.3584,-3.3622,-3.4151,0.0,-3.4869,-3.5395,-3.5805,-3.5997,-3.5997,-3.6644,-3.8093,-3.9478,-4.0408,-4.0894,-4.081,-4.0776,-4.0894,-4.0894,-4.0894,-4.0894,-4.0894,-4.0894,-4.0894,-4.0894,-4.0894,-4.0894,-4.0894,-4.0894,-4.0894,-4.0894,-4.0894,-4.0894,-4.0894,-4.0894,0.0,0.0,0.0,0.0,0.0,0.0,0.0,-4.1964,-4.2827,-4.3862,-4.4207,-4.4699,-4.519,-4.5363,-4.5397,-4.5397,-4.5397,-4.6535,-4.8086,-4.9666,-5.0097,-5.0313,-5.0857,-5.1296,0.0,0.0,0.0,0.0,0.0,0.0,0.0,0.0,0.0,0.0,0.0,0.0,0.0,0.0,0.0,0.0,0.0,0.0,0.0,0.0,0.0,0.0,0.0,0.0,-5.3203,-5.3203,-5.3203,-5.3203,0.0,-5.3203,-5.3203,-5.3203,-5.3203,-5.3203,-5.3203,-5.3203,-5.3203,-5.3203,-5.3203,-5.3203,-5.3203,-5.3203,-5.3203,-5.3203,-5.3203,-5.3203,-5.3203,0.0,0.0,0.0,0.0,0.0,0.0,0.0,0.0,-3.3608,-3.3928,-3.4056,-3.4174,-3.4418,-3.4775,0.0,0.0,-3.5878,-3.6105,-3.6148,-3.6513,-3.7428,-3.8952,-4.0156,-4.0823,-4.0894,-4.0823,-4.0823,-4.0894,-4.0894,-4.0894,-4.0894,-4.0894,-4.0894,-4.0894,-4.0894,-4.0894,-4.0929,-4.1274,-4.1447,-4.1481,-4.1861,-4.1999,-4.1999,-4.1999,-4.1999,-4.1999,-4.1999,0.0,0.0,0.0,0.0,0.0,0.0,0.0,-4.438,-4.4734,-4.5113,-4.5397,-4.5397,-4.5397,-4.5569,-4.6328,0.0,-4.8086,-4.9666,-5.0011,-5.0097,-5.0341,0.0,0.0,0.0,0.0,0.0,0.0,0.0,0.0,0.0,0.0,0.0,0.0,0.0,0.0,0.0,0.0,0.0,0.0,0.0,0.0,0.0,0.0,0.0,0.0,-5.3203,-5.3203,-5.3203,-5.3203,-5.3203,-5.3203,-5.3203,-5.3203,-5.3203,-5.3203,-5.3203,-5.3203,-5.3203,-5.3203,-5.3203,-5.3203,-5.3203,-5.3203,-5.3203,-5.3203,-5.3203,-5.3203,-5.3203,-5.3203,0.0,0.0,0.0,0.0,0.0,0.0,0.0,0.0,0.0,-3.4456,-3.4456,-3.4657,-3.5139,-3.5208,-3.5483,0.0,0.0,0.0,-3.649,-3.7353,-3.8422,-3.9641,-4.0457,-4.0894,-4.0894,-4.0894,-4.0894,-4.0894,-4.0894,-4.0894,-4.0894,-4.0894,-4.0894,-4.0929,-4.1032,-4.1101,-4.1136,-4.1895,-4.2206,-4.2275,-4.293,-4.3207,-4.3207,-4.3207,-4.3207,-4.3207,-4.3207,-4.3207,-4.3207,-4.3207,0.0,0.0,0.0,0.0,-4.4596,-4.5225,-4.5397,-4.5397,-4.5397,-4.5397,-4.5776,-4.7293,-4.7672,0.0,-4.9666,-5.0011,-5.0011,-5.0011,0.0,0.0,0.0,0.0,0.0,0.0,0.0,0.0,0.0,0.0,0.0,0.0,0.0,0.0,0.0,0.0,0.0,0.0,0.0,0.0,0.0,0.0,-5.3203,-5.3203,-5.3203,-5.3203,-5.3203,-5.3203,-5.3203,-5.3203,-5.3203,-5.3203,-5.3203,-5.3203,-5.3203,-5.3203,-5.3203,-5.3203,-5.3203,-5.3203,-5.3203,-5.3203,-5.3203,-5.3203,-5.3203,-5.3203,-5.3203,-5.3203,0.0,0.0,0.0,0.0,0.0,0.0,0.0,0.0,0.0,0.0,-3.6008,-3.6,-3.6053,-3.6082,-3.6151,-3.6204,-3.6255,-3.6594,-3.7305,0.0,0.0,-3.9617,-4.0433,-4.0894,-4.0894,-4.0894,-4.0894,-4.0894,-4.0894,-4.0894,-4.0894,-4.0894,-4.0894,-4.0929,-4.1585,-4.1861,-4.193,-4.2689,-4.3034,-4.3034,-4.3172,-4.3207,-4.3207,-4.3207,-4.3207,-4.3207,-4.3207,-4.3207,-4.3207,-4.3207,-4.3621,0.0,0.0,0.0,-4.5259,-4.5363,-4.5397,-4.5397,-4.5397,0.0,-4.5776,0.0,-4.7672,-4.8086,0.0,0.0,-5.0011,0.0,0.0,0.0,0.0,0.0,0.0,0.0,0.0,0.0,0.0,0.0,0.0,0.0,0.0,0.0,0.0,0.0,0.0,0.0,0.0,0.0,0.0,-5.3203,-5.3203,-5.3203,-5.3203,-5.3203,-5.3203,-5.3203,-5.3203,-5.3203,-5.3203,-5.3203,-5.3203,-5.3203,-5.3203,-5.3203,-5.3203,-5.3203,-5.3203,-5.3203,-5.3203,-5.3203,-5.3203,-5.3203,-5.3203,-5.3203,-5.3203,-5.3203,0.0,0.0,0.0,0.0,0.0,0.0,0.0,0.0,0.0,0.0,0.0,-3.6297,-3.6255,-3.6297,-3.6469,-3.6896,-3.6952,-3.7456,-3.8663,-3.9319,-3.9882,-4.0306,-4.0698,-4.0894,-4.0894,-4.0894,-4.0894,-4.0894,-4.0894,-4.0894,-4.0894,-4.0894,-4.1136,-4.155,-4.1861,-4.2275,-4.2723,-4.3483,-4.3828,-4.3862,-4.4251,-4.4423,-4.4423,-4.4423,-4.4423,-4.4423,-4.4423,-4.4423,-4.4423,-4.4423,-4.4665,-4.4906,-4.4906,0.0,0.0,0.0,-4.5397,-4.5397,-4.5397,-4.5397,-4.5776,0.0,-4.7672,-4.8086,-4.9666,0.0,0.0,0.0,0.0,0.0,0.0,0.0,0.0,0.0,0.0,0.0,0.0,0.0,0.0,0.0,0.0,0.0,0.0,0.0,0.0,0.0,0.0,0.0,-5.3203,-5.3203,-5.3203,-5.3203,-5.3203,0.0,-5.3203,-5.3203,-5.3203,-5.3203,-5.3203,-5.3203,-5.3203,-5.3203,-5.3203,-5.3203,-5.3203,-5.3203,-5.3203,-5.3203,-5.3203,-5.3203,-5.3203,-5.3203,-5.3203,-5.3203,-5.3203,-5.3203,0.0,0.0,0.0,0.0,0.0,0.0,0.0,0.0,0.0,0.0,0.0,-3.6387,-3.6559,0.0,0.0,0.0,-3.7789,-3.8341,-3.9629,-3.9871,-4.025,-4.086,-4.0894,-4.0894,-4.0894,-4.0894,-4.0894,-4.0894,-4.0894,-4.0894,-4.0894,-4.0894,-4.1412,-4.2309,-4.2309,-4.2758,-4.3517,-4.4276,-4.4561,-4.463,-4.5156,-4.5397,-4.5397,-4.5397,-4.5397,-4.5397,-4.5397,-4.5397,-4.5397,-4.5397,-4.5397,-4.5397,-4.5397,-4.5397,0.0,0.0,0.0,-4.5397,-4.5397,0.0,-4.5742,-4.7052,-4.7562,-4.8079,0.0,0.0,0.0,0.0,0.0,0.0,0.0,0.0,0.0,0.0,0.0,0.0,0.0,0.0,0.0,0.0,0.0,0.0,0.0,0.0,0.0,0.0,0.0,0.0,-5.3203,-5.3203,-5.3203,-5.3203,-5.3203,-5.3203,-5.3203,-5.3203,-5.3203,-5.3203,-5.3203,-5.3203,-5.3203,-5.3203,-5.3203,-5.3203,-5.3203,-5.3203,-5.3203,-5.3203,-5.3203,-5.3203,-5.3203,-5.3203,-5.3203,-5.3203,-5.3203,-5.3203,0.0,0.0,0.0,0.0,0.0,0.0,0.0,0.0,0.0,0.0,0.0,-3.6594,-3.7374,-3.7443,-3.7754,-3.8479,-3.8525,-3.887,-3.9629,-4.0388,-4.086,-4.0894,-4.0894,0.0,-4.0894,-4.0894,-4.0894,-4.0894,-4.0894,-4.0894,-4.0894,-4.0894,-4.1688,-4.3138,-4.3138,-4.3552,-4.4311,-4.5044,-4.5328,-4.5363,-4.5363,-4.5397,-4.5397,-4.5397,-4.5397,-4.5397,-4.5397,-4.5397,-4.5397,-4.5397,-4.5397,-4.5397,-4.5397,-4.5397,-4.5397,0.0,0.0,0.0,0.0,-4.5397,0.0,-4.6458,-4.7155,-4.7879,0.0,0.0,0.0,0.0,0.0,0.0,0.0,0.0,0.0,0.0,0.0,0.0,0.0,0.0,0.0,0.0,0.0,0.0,0.0,0.0,0.0,0.0,0.0,0.0,-5.3146,-5.3203,-5.3203,-5.3203,-5.3203,-5.3203,-5.3203,-5.3203,-5.3203,-5.3203,-5.3203,-5.3203,-5.3203,-5.3203,-5.3203,-5.3203,-5.3203,-5.3203,-5.3203,-5.3203,-5.3203,-5.3203,-5.3203,-5.3203,-5.3203,-5.3203,-5.3203,-5.3203,0.0,0.0,0.0,0.0,0.0,0.0,0.0,0.0,0.0,0.0,0.0,0.0,0.0,-3.8215,-3.8491,-3.925,-3.979,-4.0204,-4.0422,-4.0756,-4.0894,-4.0894,-4.0894,-4.0894,-4.0894,-4.0894,-4.0894,-4.0894,-4.0894,-4.0894,-4.0929,-4.1378,-4.2171,-4.3207,-4.3207,-4.3897,-4.5044,-4.5294,-4.5397,-4.5397,-4.5397,-4.5707,-4.6155,-4.6155,-4.6466,-4.681,-4.6328,0.0,-4.6086,-4.5569,-4.5397,-4.5397,-4.5397,-4.5397,-4.5397,-4.5397,-4.5397,-4.5397,-4.5397,0.0,0.0,-4.6424,-4.7148,-4.7879,-4.8637,0.0,0.0,0.0,0.0,0.0,0.0,0.0,0.0,0.0,0.0,0.0,0.0,0.0,0.0,0.0,0.0,0.0,0.0,0.0,0.0,0.0,0.0,0.0,-5.2672,-5.2694,-5.2828,-5.3203,-5.3203,-5.3203,-5.3203,-5.3203,-5.3203,-5.3203,-5.3203,-5.3203,-5.3203,-5.3203,-5.3203,-5.3203,-5.3203,-5.3203,-5.3203,-5.3203,-5.3203,-5.3203,-5.3203,-5.3203,-5.3203,-5.3203,-5.3203,-5.3203,0.0,0.0,0.0,0.0,0.0,-3.6801,-3.7042,-3.7525,-3.7892,-3.7892,0.0,0.0,0.0,0.0,-3.9284,-4.0043,-4.0584,-4.0894,-4.0894,-4.0894,-4.0894,-4.0894,-4.0894,-4.0894,-4.0894,-4.0894,-4.0894,-4.0894,-4.0894,-4.1032,-4.1274,-4.1792,-4.2585,-4.3552,-4.3552,-4.4251,-4.5397,-4.5397,-4.5569,-4.5776,-4.5776,-4.6259,-4.6975,-4.6975,-4.7258,-4.7665,0.0,0.0,-4.6906,-4.6328,-4.6155,-4.6121,-4.588,-4.5604,-4.5397,-4.5397,-4.5397,-4.5397,-4.5397,0.0,0.0,0.0,-4.6769,-4.7527,-4.8258,0.0,0.0,0.0,0.0,0.0,0.0,0.0,0.0,0.0,0.0,0.0,0.0,0.0,0.0,0.0,0.0,0.0,0.0,0.0,0.0,0.0,0.0,0.0,-5.2361,-5.2408,-5.2649,-5.3203,-5.3203,-5.3203,-5.3203,-5.3203,-5.3203,-5.3203,-5.3203,-5.3203,-5.3203,-5.3203,-5.3203,-5.3203,-5.3203,-5.3203,-5.3203,-5.3203,-5.3203,-5.3203,-5.3203,-5.3203,-5.3203,-5.3203,-5.3203,-5.3203,0.0,0.0,-3.6594,-3.7409,-3.7547,-3.7789,-3.8491,-3.8594,-3.8629,-3.8629,0.0,0.0,0.0,0.0,0.0,-4.0825,-4.0894,-4.0894,-4.0894,-4.0894,-4.0894,-4.0894,-4.0894,-4.0894,-4.0894,-4.0894,-4.0894,-4.0894,-4.0894,-4.1274,-4.1999,-4.2033,-4.2861,-4.4311,-4.4311,-4.4734,-4.5397,-4.5432,-4.588,-4.6596,-4.6631,-4.7079,-4.7707,-4.7707,-4.7741,0.0,-4.7741,-4.7707,0.0,-4.7734,0.0,0.0,-4.6872,-4.6086,-4.5432,-4.5432,-4.5432,-4.5397,0.0,0.0,0.0,0.0,0.0,0.0,-4.7562,0.0,0.0,0.0,0.0,0.0,0.0,0.0,0.0,0.0,0.0,0.0,0.0,0.0,0.0,0.0,0.0,0.0,0.0,0.0,0.0,0.0,0.0,-5.1254,-5.2291,-5.2361,-5.2627,-5.3146,-5.3203,-5.3203,-5.3203,-5.3203,-5.3203,-5.3203,-5.3203,-5.3203,-5.3203,-5.3203,-5.3203,-5.3203,-5.3203,-5.3203,-5.3203,-5.3203,-5.3203,-5.3203,-5.3203,-5.3203,-5.3203,-5.3203,-5.3203,-5.3203,0.0,-3.7594,-3.8008,-3.8272,-3.8306,-3.8353,-3.8582,-3.9043,-3.9388,0.0,0.0,0.0,-4.0549,-4.0584,-4.0653,-4.0894,-4.0894,-4.0894,-4.0894,-4.0894,-4.0894,-4.0894,-4.0894,-4.0894,-4.0894,-4.0894,-4.0894,-4.0894,-4.0894,-4.1274,-4.2009,-4.262,-4.3379,-4.4311,-4.4872,-4.519,-4.5432,-4.6017,-4.6424,-4.6665,-4.7155,-4.7838,-4.8499,-4.8499,0.0,0.0,0.0,-4.8499,-4.8396,0.0,-4.7672,-4.7638,0.0,-4.6879,-4.6286,-4.6286,-4.5845,-4.5397,-4.5397,0.0,0.0,0.0,0.0,0.0,-4.7638,-4.8706,0.0,0.0,0.0,0.0,0.0,0.0,0.0,0.0,0.0,0.0,0.0,0.0,0.0,0.0,0.0,0.0,0.0,0.0,0.0,0.0,-5.0235,-5.0509,-5.1228,-5.1601,-5.2078,-5.259,-5.2627,-5.2806,-5.3203,-5.3203,-5.3203,-5.3203,-5.3203,-5.3203,-5.3203,-5.3203,-5.3203,-5.3203,-5.2783,-5.2828,-5.3203,-5.3203,-5.3203,-5.3203,-5.3203,-5.3203,-5.3203,-5.3203,-5.3203,-5.3203,-3.7961,-3.8306,-3.872,-3.9008,-3.9043,-3.9146,-3.9514,-3.9905,-4.0181,0.0,0.0,0.0,-4.0894,-4.117,-4.1378,-4.1378,-4.1654,-4.1861,-4.1861,-4.155,-4.1378,-4.1378,-4.1067,-4.0894,-4.0894,-4.0894,-4.1067,-4.1378,-4.1378,-4.193,-4.2965,-4.3448,-4.4069,-4.4768,-4.519,-4.5569,-4.5949,-4.6707,-4.7079,-4.7121,-4.7844,-4.8603,0.0,-4.9292,-4.9597,0.0,0.0,0.0,-4.9252,-4.8803,-4.843,0.0,0.0,0.0,-4.7079,-4.7079,-4.65,-4.5949,-4.6259,-4.6121,-4.5949,0.0,0.0,0.0,-4.8086,-4.8844,-4.9597,0.0,0.0,0.0,0.0,0.0,0.0,0.0,0.0,0.0,0.0,0.0,0.0,0.0,0.0,0.0,0.0,0.0,0.0,0.0,-5.0011,-5.0235,-5.0776,-5.1296,-5.1824,-5.2384,-5.2408,-5.2672,-5.3167,-5.3203,-5.3203,-5.3203,-5.3203,-5.3203,-5.3203,-5.3203,-5.3203,-5.3182,-5.2649,-5.2604,-5.285,-5.285,-5.2995,-5.3203,-5.3203,-5.3203,-5.3203,-5.3203,-5.3203,-5.3203,0.0,-3.8767,-3.9043,-3.9698,-3.9836,-4.0077,-4.0791,-4.0963,-4.1032,0.0,-4.1101,-4.117,-4.117,-4.1757,-4.2137,-4.2137,-4.2792,-4.3207,-4.3207,-4.2551,-4.2137,-4.2137,-4.1516,-4.117,-4.117,-4.117,-4.1481,-4.2137,-4.2137,-4.2896,-4.4311,-4.4311,-4.4699,-4.5397,-4.55,-4.5914,-4.6665,-4.7465,-4.781,-4.7879,-4.8603,-4.9361,0.0,0.0,-5.0011,-5.0011,-5.0011,-5.0011,-5.0011,-5.0011,-4.9528,0.0,0.0,0.0,0.0,0.0,-4.732,-4.6872,-4.7527,-4.7217,-4.6906,0.0,0.0,0.0,-4.8637,-4.8844,-4.912,0.0,0.0,0.0,0.0,0.0,0.0,0.0,0.0,0.0,0.0,0.0,0.0,0.0,0.0,0.0,0.0,0.0,-5.0011,-5.0011,-5.0011,-5.0206,-5.0702,-5.114,-5.1651,-5.2221,-5.2221,-5.2477,-5.3017,-5.3017,-5.306,-5.3103,-5.3103,-5.3124,-5.3203,-5.3203,-5.3182,-5.3082,-5.2522,-5.2315,-5.2315,-5.2268,-5.2545,-5.3103,-5.3203,-5.3203,-5.3203,-5.3203,-5.3203,-5.3203,-3.9491,-4.0032,-4.0515,-4.0653,-4.0687,-4.0722,-4.0894,-4.1412,-4.1792,-4.1792,-4.2344,-4.2758,-4.2758,-4.2896,-4.2965,-4.2965,-4.3103,-4.3207,-4.3207,-4.3034,-4.2965,-4.2965,-4.2827,-4.2758,-4.2758,-4.2758,-4.2827,-4.2965,-4.2965,-4.3414,-4.4311,-4.4311,-4.4699,-4.5432,-4.6086,-4.6458,-4.67,-4.8017,-4.8568,-4.8637,-4.9459,-4.9873,-5.0011,-5.0011,-5.0011,-5.0011,-5.0011,-5.0011,-5.0011,-5.0011,-4.9907,-4.9769,0.0,0.0,0.0,-4.8568,0.0,0.0,0.0,0.0,0.0,0.0,0.0,0.0,-4.8775,-4.9292,-4.9804,0.0,0.0,0.0,0.0,0.0,0.0,0.0,0.0,0.0,0.0,0.0,0.0,0.0,0.0,0.0,0.0,0.0,-5.0011,-5.0011,-5.0011,-5.0068,-5.0149,-5.0263,-5.0564,-5.1096,-5.1123,-5.1347,-5.1897,-5.1897,-5.215,-5.2581,-5.2581,-5.2783,-5.3203,-5.3203,-5.2974,-5.2522,-5.197,-5.175,-5.1725,-5.127,-5.1676,-5.2627,-5.3039,-5.3203,-5.3203,-5.3203,-5.3203,-5.3203,-4.0284,-4.0618,-4.0894,-4.0894,-4.1205,-4.1447,-4.1447,-4.2102,-4.262,-4.262,-4.293,-4.3207,-4.3207,-4.3517,-4.3759,-4.3759,-4.4078,-4.4285,-4.4285,-4.3966,-4.3759,-4.3759,-4.3414,-4.3207,-4.3207,-4.3207,-4.3379,-4.3759,-4.3759,-4.4138,-4.4837,-4.4837,-4.5251,-4.6017,-4.6424,-4.701,-4.7769,-4.8465,-4.9016,-4.943,-4.9838,0.0,-5.0011,-5.0011,-5.0011,-5.0011,-5.0011,-5.0011,-5.0011,-5.0011,-5.0011,0.0,0.0,-4.9735,-4.9424,0.0,-4.8844,-4.8327,0.0,0.0,0.0,-4.8769,0.0,0.0,0.0,-4.9735,-5.0011,0.0,0.0,0.0,0.0,0.0,0.0,0.0,0.0,0.0,0.0,0.0,0.0,0.0,0.0,0.0,0.0,0.0,-5.0011,-5.0011,-5.0011,-5.0011,-5.0011,-5.0011,-5.0263,-5.0776,-5.0803,-5.107,-5.1576,-5.1601,-5.1725,-5.1994,-5.1994,-5.215,-5.2408,-5.2408,-5.2268,-5.197,-5.1424,-5.1192,-5.1166,-5.091,-5.1123,-5.1651,-5.2197,-5.2581,-5.2806,-5.2806,-5.2806,-5.2806,-4.1136,-4.1101,-4.117,-4.1309,-4.1861,-4.224,-4.224,-4.2896,-4.3448,-4.3621,-4.3621,-4.3621,-4.3621,-4.4173,-4.4518,-4.4518,-4.5079,-4.5397,-4.5397,-4.4837,-4.4518,-4.4518,-4.3931,-4.3621,-4.3621,-4.3621,-4.3931,-4.4518,-4.4518,-4.4803,-4.5397,-4.5569,-4.5983,-4.6631,-4.6906,-4.77,-4.881,-4.8947,-4.9424,-5.0011,0.0,-5.0011,-5.0011,-5.0011,-5.0011,-5.0011,-5.0011,-5.0011,-5.0011,-5.0011,-5.0011,-5.0011,-5.0011,-5.0011,0.0,0.0,0.0,0.0,0.0,0.0,0.0,0.0,0.0,-5.0011,0.0,0.0,0.0,0.0,0.0,0.0,0.0,0.0,0.0,0.0,0.0,0.0,0.0,0.0,0.0,0.0,0.0,0.0,0.0,0.0,-5.0011,-5.0011,-5.0011,-5.0011,-5.0011,-5.0011,-5.0206,-5.0647,-5.0647,-5.0857,-5.127,-5.127,-5.1322,-5.1424,-5.1424,-5.15,-5.1601,-5.1601,-5.1525,-5.1398,-5.0991,-5.0721,-5.0647,-5.0647,-5.0647,-5.0694,-5.1347,-5.1848,-5.2244,-5.2244,-5.2244,-5.2244,-4.2033,-4.1895,-4.2102,-4.2792,-4.3,-4.3069,-4.3069,-4.369,-4.4414,-4.5052,-4.5156,-4.5156,-4.5156,-4.5225,-4.5259,-4.5259,-4.5363,-4.5397,-4.5397,-4.5328,-4.5259,-4.5259,-4.519,-4.5156,-4.5156,-4.5156,-4.519,-4.5259,-4.5259,-4.5328,-4.5432,-4.6148,-4.6527,-4.6665,-4.7948,-4.8637,-4.8844,-4.9562,-4.9942,0.0,-5.0011,-5.0011,0.0,-5.0011,-5.0011,-5.0011,-5.0011,-5.0011,-5.0011,0.0,-5.0011,-5.0011,0.0,-5.0011,-5.0011,-5.0011,0.0,0.0,0.0,0.0,0.0,0.0,-5.0011,0.0,0.0,0.0,0.0,0.0,0.0,0.0,0.0,0.0,0.0,0.0,0.0,0.0,0.0,0.0,0.0,0.0,0.0,0.0,0.0,0.0,0.0,-5.0011,-5.0011,-5.0011,-5.0011,-5.0011,-5.004,-5.0097,-5.0097,-5.012,-5.0178,-5.0178,-5.0425,-5.0884,-5.0884,-5.1149,-5.1601,-5.1601,-5.1322,-5.0884,-5.083,-5.0537,-5.0097,-5.0097,-5.0097,-5.0178,-5.1192,-5.1626,-5.1676,-5.1676,-5.1676,-5.1676,-4.2758,-4.2689,-4.2792,-4.3138,-4.3552,-4.3828,-4.3828,-4.4458,-4.5044,-4.5363,-4.5811,-4.6086,-4.6086,-4.6466,-4.6741,-4.6741,0.0,-4.6741,0.0,0.0,-4.6535,-4.6086,-4.6086,-4.588,-4.5397,-4.5397,-4.5397,-4.5397,-4.5397,-4.5638,-4.6086,-4.6458,-4.7079,-4.7879,-4.8499,-4.9051,-4.9528,0.0,-5.0011,0.0,0.0,0.0,0.0,-5.0011,-5.0011,-5.0011,-5.0011,-5.0011,-5.0011,0.0,-5.0011,0.0,0.0,0.0,0.0,0.0,0.0,0.0,0.0,0.0,0.0,0.0,0.0,0.0,-5.0011,0.0,-5.0011,0.0,0.0,0.0,0.0,0.0,0.0,0.0,0.0,0.0,0.0,0.0,0.0,0.0,0.0,0.0,0.0,0.0,0.0,0.0,0.0,-5.0011,-5.0011,-5.0011,-5.0011,-5.0011,-5.0011,-5.0011,-5.0011,-5.0011,-5.0092,-5.0348,-5.0348,-5.0453,-5.0667,-5.0667,-5.0564,-5.0348,-5.0348,-5.0206,-5.0011,-5.0011,-5.0011,-5.0068,-5.0509,-5.0857,-5.1149,-5.1149,-5.1149,-5.1149,-4.3802,-4.3655,-4.3586,-4.3793,-4.4251,-4.4596,-4.4596,-4.5251,-4.5707,-4.5707,-4.6397,-4.6906,-4.6906,-4.7362,-4.7672,-4.7672,-4.7672,-4.7672,0.0,0.0,-4.7431,-4.6941,-4.6906,-4.6603,-4.6052,-4.6017,-4.6017,-4.6017,-4.6017,-4.6328,-4.6906,-4.7113,-4.7775,-4.881,-4.9016,-4.943,-5.0011,0.0,-5.0011,-5.0011,-5.0011,-5.0011,-5.0011,-5.0011,-5.0011,-5.0011,-5.0011,-5.0011,-5.0011,-5.0011,-5.0011,0.0,-5.0011,0.0,0.0,0.0,0.0,0.0,-5.0011,0.0,0.0,0.0,0.0,0.0,0.0,0.0,0.0,0.0,0.0,0.0,0.0,0.0,0.0,0.0,0.0,0.0,0.0,0.0,0.0,0.0,0.0,0.0,0.0,0.0,0.0,0.0,0.0,0.0,-5.0011,-5.0011,-5.0011,-5.0011,-5.0011,-5.0011,-5.0011,-5.0011,-5.0011,-5.0011,-5.0011,-5.0011,-5.0011,-5.0011,-5.0011,-5.0011,-5.0011,-5.0011,-5.0011,-5.0011,-5.0011,-5.0011,-5.0011,-5.0235,-5.0592,-5.0592,-5.0592,-5.0592,-4.5328,-4.4734,-4.4518,-4.519,-4.5363,-4.5363,-4.5363,-4.6052,-4.6562,-4.6562,0.0,0.0,0.0,0.0,0.0,0.0,0.0,-4.7672,-4.7672,0.0,-4.77,0.0,0.0,-4.7638,-4.7603,-4.7603,-4.7603,-4.7603,-4.7603,-4.7638,-4.7672,-4.8396,-4.8741,-4.881,-4.9631,-4.9976,-5.0011,-5.0011,-5.0011,-5.0011,-5.0011,-5.0011,-5.0011,0.0,-5.0011,-5.0011,-5.0011,0.0,0.0,-5.0011,-5.0011,0.0,0.0,0.0,0.0,0.0,0.0,0.0,0.0,0.0,0.0,-5.0011,0.0,0.0,0.0,0.0,-5.0011,0.0,0.0,0.0,0.0,0.0,0.0,-5.0011,0.0,0.0,0.0,0.0,0.0,0.0,0.0,0.0,0.0,0.0,0.0,0.0,0.0,0.0,-5.0011,-5.0011,-5.0011,-5.0011,-5.0011,-5.0011,-5.0011,-5.0011,-5.0011,-5.0011,-5.0011,-5.0011,-5.0011,-5.0011,-5.0011,-5.0011,-5.0011,-5.0011,-5.0011,-5.0011,-5.0011,-5.0011,-5.0011,-5.0011,-5.004,-5.004,-5.004,-5.004,-4.5397,-4.519,-4.5113,-4.5363,-4.5397,-4.5569,-4.6086,-4.6424,0.0,0.0,-4.7948,0.0,0.0,-4.8907,-4.9217,0.0,0.0,-4.9217,-4.9217,-4.9217,0.0,0.0,0.0,-4.8189,0.0,-4.7672,-4.7672,-4.7672,-4.7672,-4.7948,-4.843,-4.8672,-4.9085,-4.9631,-4.9873,-5.0011,0.0,0.0,0.0,0.0,0.0,-5.0011,-5.0011,0.0,0.0,-5.0011,-5.0011,-5.0011,0.0,-5.0011,-5.0011,-5.0011,-5.0011,-5.0011,-5.0011,-5.0011,-5.0011,0.0,0.0,0.0,-5.0011,-5.0011,0.0,0.0,0.0,0.0,0.0,0.0,0.0,0.0,0.0,0.0,-5.0011,-5.0011,-4.9562,0.0,0.0,0.0,0.0,0.0,0.0,0.0,0.0,0.0,0.0,0.0,0.0,0.0,0.0,-5.0011,-5.0011,-5.0011,-5.0011,-5.0011,-5.0011,-5.0011,-5.0011,-5.0011,-5.0011,-5.0011,-5.0011,-5.0011,-5.0011,-5.0011,-5.0011,-5.0011,-5.0011,-5.0011,-5.0011,-5.0011,-5.0011,-5.0011,-5.0011,-5.0011,-5.0011,-5.0011,-4.6224,-4.6224,-4.6121,-4.588,-4.6017,-4.6397,-4.6906,0.0,0.0,0.0,-4.8741,0.0,-4.9252,0.0,-5.0011,0.0,-5.0011,-5.0011,-5.0011,-5.0011,0.0,-4.9252,-4.9252,0.0,0.0,0.0,0.0,-4.8528,-4.8528,-4.8769,-4.9252,-4.9252,-4.9528,-5.0011,-5.0011,-5.0011,-5.0011,-5.0011,-5.0011,0.0,0.0,-5.0011,0.0,0.0,-5.0011,-5.0011,0.0,-5.0011,-5.0011,-5.0011,-5.0011,-5.0011,-5.0011,-5.0011,-5.0011,-5.0011,-5.0011,-5.0011,-5.0011,-5.0011,0.0,0.0,-5.0011,0.0,-5.0011,0.0,0.0,0.0,0.0,0.0,0.0,0.0,0.0,-4.9982,-4.9505,0.0,0.0,-4.7906,0.0,0.0,0.0,0.0,0.0,0.0,0.0,0.0,0.0,0.0,0.0,0.0,-5.0011,-5.0011,-5.0011,-5.0011,-5.0011,-5.0011,-5.0011,-5.0011,-5.0011,-5.0011,-5.0011,-5.0011,-5.0011,-5.0011,-5.0011,-5.0011,-5.0011,-5.0011,-5.0011,-5.0011,-5.0011,-5.0011,-5.0011,-5.0011,-5.0011,-5.0011,-4.7672,-4.7707,-4.7534,-4.6837,-4.7286,0.0,0.0,0.0,-4.881,0.0,-4.9528,-5.0011,-5.0045,-5.0045,-5.008,-5.0114,-5.0114,-5.008,-5.008,-5.0045,0.0,0.0,-5.0011,-5.0011,-5.0011,0.0,0.0,0.0,0.0,-5.0011,-5.0011,-5.0011,-5.0011,-5.0011,-5.0011,0.0,-5.0011,-5.0011,-5.0011,-5.0011,-5.0011,-5.0011,-5.0011,-5.0011,0.0,-5.0011,-5.0011,-5.0011,-5.0011,-5.0011,-5.0011,-5.0011,-5.0011,-5.0011,-5.0011,-5.0011,-5.0011,-5.0011,-5.0011,-5.0011,-5.0011,-5.0011,0.0,0.0,0.0,0.0,-5.0011,0.0,0.0,0.0,0.0,0.0,0.0,-4.9952,-4.983,-4.9404,0.0,0.0,0.0,0.0,0.0,0.0,0.0,0.0,0.0,0.0,0.0,0.0,0.0,0.0,0.0,-5.0011,-5.0011,-5.0011,-5.0011,-5.0011,-5.0011,-5.0011,-5.0011,-5.0011,-5.0011,-5.0011,-5.0011,-5.0011,-5.0011,-5.0011,-5.0011,-5.0011,-5.0011,-5.0011,-5.0011,-5.0011,-5.0011,-5.0011,-5.0011,-5.0011,-4.7672,-4.812,-4.8465,0.0,-4.7913,-4.7879,0.0,0.0,0.0,0.0,-4.9873,-5.0218,-5.0769,-5.0838,-5.1045,-5.1567,-5.1666,0.0,0.0,0.0,0.0,-5.0011,-5.0011,-5.0011,-5.0011,-5.0011,0.0,-5.0011,0.0,-5.0011,-5.0011,-5.0011,-5.0011,-5.0011,-5.0011,-5.0011,-5.0011,-5.0011,-5.0011,-5.0011,-5.0011,-5.0011,0.0,0.0,-5.0011,-5.0011,-5.0011,-5.0011,-5.0011,-5.0011,-5.0011,-5.0011,-5.0011,-5.0011,-5.0011,-5.0011,-5.0011,-5.0011,-5.0011,-5.0011,-5.0011,-5.0011,-5.0011,-4.9982,0.0,0.0,0.0,0.0,0.0,0.0,0.0,0.0,0.0,0.0,0.0,0.0,0.0,0.0,0.0,0.0,0.0,0.0,0.0,0.0,0.0,0.0,0.0,0.0,0.0,0.0,0.0,-5.0011,-5.0011,-5.0011,-5.0011,-5.0011,-5.0011,-5.0011,-5.0011,-5.0011,-5.0011,-5.0011,-5.0011,-5.0011,-5.0011,-5.0011,-5.0011,-5.0011,-5.0011,-5.0011,-5.0011,-5.0011,-5.0011,-5.0011,-5.0011,-5.0011,-4.8734,-4.9016,0.0,-4.9292,0.0,0.0,-4.9258,0.0,0.0,-5.039,-5.0493,0.0,-5.1498,-5.1597,-5.177,-5.2153,-5.2188,0.0,-5.1602,0.0,0.0,-5.0493,-5.0183,-5.0011,-5.0011,-5.0011,0.0,-5.0011,0.0,-5.0011,-5.0011,-5.0011,-5.0011,-5.0011,-5.0011,-5.0011,-5.0011,-5.0011,-5.0011,-5.0011,-5.0011,0.0,0.0,-5.0011,-5.0011,-5.0011,-5.0011,-5.0011,-5.0011,-5.0011,-5.0011,-5.0011,-5.0011,-5.0011,-5.0011,-5.0011,-5.0011,-5.0011,-5.0011,-5.0011,-5.0011,-5.0011,-5.0011,-4.9982,-4.986,-4.986,-4.983,0.0,0.0,0.0,0.0,0.0,0.0,0.0,0.0,0.0,0.0,0.0,0.0,0.0,0.0,0.0,0.0,0.0,0.0,0.0,0.0,0.0,0.0,0.0,0.0,-5.0011,-5.0011,-5.0011,-5.0011,-5.0011,-5.0011,-5.0011,-5.0011,-5.0011,-5.0011,-5.0011,-5.0011,-5.0011,-5.0011,-5.0011,-5.0011,-5.0011,-5.0011,-5.0011,-5.0011,-5.0011,-5.0011,-5.0011,-5.0011,-5.0011,-5.0011,-5.0011,0.0,0.0,0.0,0.0,0.0,-5.0149,0.0,-5.1045,0.0,-5.1528,-5.2287,-5.236,-5.2394,-5.2463,0.0,-5.2459,-5.236,-5.177,-5.1321,-5.1114,-5.0493,-5.0114,-5.0011,-5.0011,-5.0011,0.0,-5.0011,-5.0011,-5.0011,-5.0011,-5.0011,-5.0011,-5.0011,0.0,0.0,-5.0011,-5.0011,-5.0011,-5.0011,-5.0011,-5.0011,-5.0011,-5.0011,-5.0011,-5.0011,-5.0011,-5.0011,-5.0011,-5.0011,-5.0011,-5.0011,-5.0011,-5.0011,-5.0011,-5.0011,-5.0011,-5.0011,-5.0011,-5.0011,-5.0011,-5.0011,-5.0011,-4.9982,-4.986,-4.9708,-4.9679,-4.959,0.0,0.0,0.0,0.0,0.0,0.0,0.0,0.0,0.0,0.0,0.0,0.0,0.0,0.0,0.0,0.0,0.0,0.0,0.0,0.0,0.0,0.0,0.0,-5.0011,0.0,-5.0011,0.0,-5.0011,-5.0011,-5.0011,-5.0011,-5.0011,-5.0011,-5.0011,-5.0011,-5.0011,-5.0011,-5.0011,-5.0011,-5.0011,-5.0011,-5.0011,-5.0011,-5.0011,-5.0011,-5.0011,-5.0011,-5.0011,-5.0011,0.0,0.0,0.0,-5.0218,-5.0804,-5.0907,-5.0976,-5.108,-5.1602,-5.2321,-5.3115,-5.3184,-5.3425,-5.4046,-5.4115,0.0,0.0,0.0,0.0,-5.1183,-5.0976,-5.0631,-5.0011,-5.0011,-5.0011,0.0,-5.0011,-5.0011,-5.0011,-5.0011,-5.0011,-5.0011,-5.0011,0.0,-5.0011,-5.0011,0.0,-5.0011,-5.0011,-5.0011,-5.0011,-5.0011,-5.0011,-5.0011,-5.0011,-5.0011,-5.0011,-5.0011,-5.0011,-5.0011,-5.0011,-5.0011,-5.0011,-5.0011,-5.0011,-5.0011,-5.0011,-5.0011,-5.0011,-5.0011,-5.0011,-4.9982,-4.9801,-4.986,-4.986,-4.959,-4.959,-4.959,-4.935,0.0,0.0,0.0,0.0,0.0,0.0,0.0,0.0,0.0,0.0,0.0,0.0,0.0,0.0,0.0,0.0,0.0,0.0,0.0,0.0,0.0,0.0,0.0,0.0,0.0,0.0,-5.0011,-5.0011,-5.0011,-5.0011,-5.0011,-5.0011,-5.0011,-5.0011,-5.0011,-5.0011,-5.0011,-5.0011,-5.0011,-5.0011,-5.0011,-5.0011,-5.0011,-5.0011,-5.0011,-5.0011,0.0,0.0,0.0,0.0,0.0,0.0,-5.2046,0.0,-5.2287,-5.2597,-5.3115,-5.3908,-5.3977,-5.4115,-5.4494,-5.4494,-5.4356,-5.4011,-5.3632,-5.308,-5.2321,-5.1528,0.0,-5.0597,-5.0218,-5.0011,-5.0011,-5.0011,-5.0011,-5.0011,-5.0011,-5.0011,-5.0011,0.0,-5.0011,0.0,0.0,0.0,-5.0011,-5.0011,-5.0011,-5.0011,-5.0011,-5.0011,-5.0011,-5.0011,-5.0011,-5.0011,-5.0011,-5.0011,-5.0011,-5.0011,-5.0011,-5.0011,-5.0011,-5.0011,-5.0011,-5.0011,-5.0011,-5.0011,-5.0011,-5.0011,-4.9982,-4.9889,-4.986,-4.9801,-4.9619,-4.959,-4.95,-4.926,-4.9138,0.0,0.0,0.0,0.0,0.0,0.0,0.0,0.0,0.0,0.0,0.0,0.0,0.0,0.0,0.0,0.0,0.0,0.0,0.0,0.0,0.0,0.0,0.0,0.0,0.0,-5.0011,-5.0011,-5.0011,-5.0011,-5.0011,-5.0011,-5.0011,-5.0011,-5.0011,-5.0011,-5.0011,-5.0011,-5.0011,-5.0011,-5.0011,-5.0011,-5.0011,-5.0011,-5.0011,0.0,-5.0355,0.0,0.0,-5.1326,0.0,-5.2326,-5.3011,-5.3391,-5.3391,-5.3529,-5.3873,-5.446,-5.4494,-5.4494,-5.4494,-5.4494,-5.4494,-5.4494,-5.3977,-5.3563,-5.3425,-5.208,-5.1287,-5.1114,-5.039,-5.0011,0.0,-5.0011,-5.0011,0.0,-5.0011,0.0,0.0,0.0,0.0,0.0,0.0,-5.0011,-5.0011,-5.0011,-5.0011,-5.0011,-5.0011,-5.0011,-5.0011,-5.0011,-5.0011,-5.0011,-5.0011,-5.0011,-5.0011,-5.0011,-5.0011,-5.0011,-5.0011,-5.0011,-5.0011,-5.0011,-5.0011,-5.0011,-4.9952,-4.9952,-4.9918,-4.9923,-4.9772,-4.9649,-4.959,-4.9471,-4.935,-4.9168,-4.9168,0.0,0.0,0.0,0.0,0.0,0.0,0.0,0.0,0.0,0.0,0.0,0.0,0.0,0.0,0.0,-4.9923,-4.9918,-4.9982,0.0,0.0,0.0,0.0,-4.9918,0.0,-5.0011,0.0,-5.0011,-5.0011,-5.0011,-5.0011,-5.0011,-5.0011,-5.0011,-5.0011,-5.0011,-5.0011,-5.0011,-5.0011,-5.0011,-5.0011,-5.0011,-5.0011,-5.0011,-5.0011,0.0,0.0,0.0,0.0,0.0,0.0,0.0,-5.3356,-5.3391,-5.3391,-5.3977,-5.4425,-5.4494,-5.4494,-5.4494,-5.4494,-5.4494,-5.4494,-5.4494,-5.446,-5.4115,-5.3425,-5.2563,-5.1774,-5.1114,-5.039,-5.0011,0.0,0.0,-5.0011,0.0,0.0,0.0,0.0,0.0,0.0,0.0,-5.0011,-5.0011,-5.0011,-5.0011,-5.0011,-5.0011,-5.0011,-5.0011,-5.0011,-5.0011,-5.0011,-5.0011,-5.0011,-5.0011,-5.0011,-5.0011,-5.0011,-5.0011,-5.0011,-5.0011,-5.0011,-5.0011,-5.0011,-4.9982,-4.9767,-4.9737,-4.9679,-4.956,-4.953,-4.9471,-4.929,-4.9138,-4.9049,-4.9049,-4.9049,-4.8984,0.0,0.0,0.0,0.0,0.0,0.0,0.0,0.0,0.0,0.0,0.0,0.0,0.0,0.0,-4.959,-4.9708,-4.9889,0.0,-4.9737,0.0,-4.9889,-4.9737,-4.9889,0.0,-5.0011,-5.0011,-5.0011,-5.0011,-5.0011,-5.0011,-5.0011,-5.0011,-5.0011,-5.0011,-5.0011,-5.0011,-5.0011,-5.0011,-5.0011,-5.0011,-5.0011,-5.0011,-5.0011,0.0,0.0,0.0,0.0,0.0,0.0,0.0,-5.408,-5.408,-5.408,-5.4322,-5.4494,-5.4494,-5.4494,-5.4494,-5.4494,-5.4494,-5.4494,-5.4494,-5.4494,-5.4391,-5.408,-5.3322,-5.2563,-5.1774,-5.1045,-5.0459,0.0,0.0,0.0,0.0,0.0,0.0,0.0,0.0,-5.0011,-5.0011,-5.0011,-5.0011,-5.0011,-5.0011,-5.0011,-5.0011,-5.0011,-5.0011,-5.0011,-5.0011,-5.0011,-5.0011,-5.0011,-5.0011,-5.0011,-5.0011,-4.9918,-4.986,-4.9982,-4.983,-4.9713,-4.9801,-4.9772,-4.9683,-4.959,-4.956,-4.956,-4.95,-4.95,-4.9471,-4.9381,-4.9229,-4.9107,-4.9107,-4.9046,-4.9018,0.0,0.0,0.0,0.0,0.0,0.0,0.0,0.0,0.0,0.0,0.0,0.0,0.0,0.0,0.0,-4.9708,-4.9801,0.0,-4.9889,0.0,-4.9982,-4.9889,-4.9982,-5.0011,-5.0011,-5.0011,-5.0011,-5.0011,-5.0011,-5.0011,-5.0011,-5.0011,-5.0011,-5.0011,-5.0011,-5.0011,-5.0011,-5.0011,-5.0011,-5.0011,-5.0011,-5.0011,-5.0011,-5.2532,0.0,-5.308,0.0,-5.3736,-5.3908,-5.4425,-5.4494,-5.4494,-5.4494,-5.4494,-5.4494,-5.4494,-5.4494,-5.4494,-5.4494,-5.4494,-5.4494,-5.4494,-5.4494,-5.4494,-5.4494,-5.3804,0.0,-5.2597,-5.1597,-5.0838,-5.0321,-5.0114,0.0,0.0,0.0,0.0,0.0,-5.0011,-5.0011,-5.0011,-5.0011,-5.0011,-5.0011,-5.0011,-5.0011,-5.0011,-5.0011,-5.0011,-5.0011,-5.0011,-5.0011,-5.0011,-5.0011,-4.9982,-4.9918,-4.9982,-4.986,-4.9737,-4.986,-4.9713,-4.95,-4.9619,-4.956,-4.9471,-4.9411,-4.9411,-4.9381,-4.935,-4.935,-4.935,-4.935,-4.9229,-4.9138,-4.9138,-4.9046,-4.9018,0.0,0.0,0.0,0.0,0.0,0.0,0.0,-4.9018,-4.9018,-4.9018,0.0,0.0,0.0,0.0,0.0,0.0,0.0,0.0,0.0,0.0,0.0,0.0,0.0,-5.0011,-5.0011,-5.0011,-5.0011,-5.0011,-5.0011,-5.0011,-5.0011,-5.0011,-5.0011,-5.0011,-5.0011,-5.0011,-5.0011,-5.0011,-5.0011,-5.0011,-5.0011,-5.0011,-5.0011,-5.3391,-5.3977,-5.4494,-5.4494,-5.4494,-5.4494,-5.4494,-5.4494,-5.4494,-5.4494,-5.4494,-5.4494,-5.4494,-5.4494,-5.4494,-5.4494,-5.4494,-5.4494,-5.4494,-5.4494,-5.4494,0.0,0.0,-5.3391,-5.3391,-5.1873,-5.1114,-5.1114,0.0,0.0,-5.0011,0.0,0.0,-5.0011,-5.0011,-5.0011,-5.0011,-5.0011,-5.0011,-5.0011,-5.0011,-5.0011,-5.0011,-5.0011,-5.0011,-5.0011,-5.0011,-5.0011,-5.0011,-5.0011,-4.986,-4.9737,-4.9918,-4.986,-4.9708,-4.9708,-4.959,-4.95,-4.95,-4.95,-4.9441,-4.926,-4.9199,-4.9168,-4.9049,-4.9018,-4.9018,-4.9018,-4.8984,-4.9018,-4.9018,-4.9018,-4.9018,-4.9018,0.0,0.0,0.0,0.0,0.0,0.0,-4.9018,-4.9018,-4.9018,0.0,0.0,0.0,0.0,0.0,0.0,0.0,0.0,-4.9229,-4.953,0.0,-4.95,-4.983,-5.0011,-5.0011,-5.0011,-5.0011,-5.0011,-5.0011,-5.0011,-5.0011,-5.0011,-5.0011,-5.0011,-5.0011,-5.0011,-5.0011,-5.0011,-5.0011,-5.0011,-5.0011,-5.0011,-5.0011,-5.4149,-5.4356,-5.4494,-5.4494,-5.4494,-5.4494,-5.4494,-5.4494,-5.4494,-5.4494,-5.4494,-5.4494,-5.4494,-5.4494,-5.4494,0.0,-5.4494,-5.4494,0.0,-5.4494,-5.4494,-5.4494,-5.4287,-5.3908,-5.3425,-5.2908,-5.239,-5.1843,0.0,0.0,0.0,-5.0011,-5.0011,-5.0011,-5.0011,-5.0011,-5.0011,-5.0011,-5.0011,-5.0011,-5.0011,-5.0011,-5.0011,-5.0011,-5.0321,-5.0769,-5.0769,-5.108,-5.1498,-5.1408,-5.1348,-5.1184,-5.0579,-5.0035,-4.956,-4.9679,-4.95,-4.929,-4.929,-4.9229,-4.9138,-4.9077,-4.9046,-4.9046,-4.9018,-4.9018,-4.9018,-4.9018,-4.9018,-4.9018,-4.9018,-4.9018,-4.9018,-4.9018,0.0,0.0,0.0,0.0,0.0,0.0,-4.9018,-4.9018,0.0,-4.9018,0.0,0.0,0.0,0.0,0.0,0.0,0.0,0.0,-4.9801,0.0,-4.983,-4.9952,-5.0011,-5.0011,-5.0011,-5.0011,-5.0011,-5.0011,-5.0011,-5.0011,-5.0011,-5.0011,-5.0011,-5.0011,-5.0011,-5.0011,-5.0011,-5.0011,-5.0011,-5.0011,-5.0011,-5.0011,-5.4494,-5.4494,-5.4494,-5.4494,-5.4494,-5.4494,-5.4494,-5.4494,-5.4494,-5.4494,-5.4494,-5.4494,-5.4494,-5.4494,0.0,-5.4494,-5.4494,-5.4494,-5.4494,-5.4494,-5.4494,-5.4494,-5.4494,-5.4287,-5.3839,0.0,0.0,-5.2666,-5.1908,-5.1287,-5.0838,-5.0838,-5.0838,-5.0838,-5.0838,-5.0838,-5.0838,-5.0838,-5.0838,-5.0838,-5.0838,-5.0838,-5.0838,-5.0838,-5.1114,-5.1498,-5.1498,-5.1808,-5.2188,-5.2035,-5.1943,-5.1782,-5.121,-5.0639,-5.0161,-4.9671,-4.932,-4.9107,-4.9107,-4.9046,-4.9018,-4.9018,-4.9018,-4.9018,-4.9018,-4.9018,-4.9018,-4.9018,-4.9018,-4.9018,-4.9018,-4.9018,-4.9018,-4.9018,0.0,-4.9018,-4.9018,0.0,0.0,0.0,0.0,0.0,0.0,-4.9018,0.0,0.0,0.0,0.0,0.0,0.0,0.0,-4.95,-4.9772,0.0,-4.9889,-4.9982,-5.0011,-5.0011,-5.0011,-5.0011,-5.0011,-5.0011,-5.0011,-5.0011,-5.0011,-5.0011,-5.0011,-5.0011,-5.0011,-5.0011,-5.0011,-5.0011,-5.0011,-5.0011,-5.0011,-5.0011,-5.4494,-5.4494,0.0,0.0,-5.4494,0.0,-5.4494,-5.4494,-5.4494,-5.4494,-5.4494,-5.4494,-5.4494,-5.4494,-5.4494,-5.4494,0.0,0.0,0.0,-5.4494,-5.4494,-5.4494,-5.4494,0.0,-5.4494,-5.3839,-5.346,-5.3391,-5.2666,-5.2257,-5.2188,-5.2188,-5.2188,-5.2188,-5.2188,-5.2188,-5.2188,-5.2188,-5.2188,-5.2188,-5.2188,-5.2188,-5.2188,-5.2188,-5.2222,-5.2257,-5.2257,-5.2291,-5.233,-5.2176,-5.2021,-5.1831,-5.1731,-5.1636,-5.1269,-4.9709,-4.9209,-4.9052,-4.9018,-4.9018,-4.9018,-4.9018,-4.9018,-4.9018,-4.9018,-4.9018,-4.9018,-4.9018,-4.9018,-4.9018,-4.9018,-4.9018,-4.9018,-4.9018,-4.9018,-4.9018,-4.9018,0.0,0.0,0.0,0.0,0.0,0.0,-4.9018,-4.9018,0.0,0.0,0.0,0.0,0.0,0.0,-4.9229,-4.953,-4.9708,-4.9708,-4.9889,-5.0011,-5.0011,-5.0011,-5.0011,-5.0011,-5.0011,-5.0011,-5.0011,-5.0011,-5.0011,-5.0011,-5.0011,-5.0011,-5.0011,-4.9982,-4.9982,-5.0011,-4.9982,-4.9982,-5.0011,0.0,0.0,-5.4494,-5.4494,-5.4494,-5.4494,-5.4494,-5.4494,-5.4494,-5.4494,-5.4494,-5.4494,-5.4494,-5.4494,-5.4494,-5.4494,-5.4494,-5.4494,-5.4494,-5.4494,-5.4494,-5.4494,-5.4494,-5.4494,-5.4494,-5.4356,-5.3977,-5.3391,-5.3218,-5.2804,-5.2188,-5.2188,-5.2188,-5.2188,-5.2188,-5.2188,-5.2188,-5.2188,-5.2188,-5.2188,-5.2188,-5.2188,-5.2188,-5.2188,-5.2597,-5.3115,-5.3115,-5.3401,-5.369,-5.3562,-5.3369,-5.3104,-5.2396,-5.2161,-5.1856,-5.0524,-5.0082,-4.9885,-4.9185,-4.9018,-4.9018,-4.9018,-4.9018,-4.9018,-4.9018,-4.9018,-4.9018,-4.9018,-4.9018,-4.9018,-4.9018,-4.9018,-4.9018,-4.9018,-4.9018,-4.9018,-4.9018,-4.9018,0.0,0.0,-4.9018,-4.9018,-4.9018,-4.9018,-4.9018,0.0,0.0,0.0,0.0,0.0,-4.926,-4.9411,-4.9619,-4.9767,-4.9918,-4.9982,-5.0011,-5.0011,-5.0011,-5.0011,-5.0011,-5.0011,-5.0011,-5.0011,-5.0011,-5.0011,-5.0011,-5.0011,-5.0011,-4.9982,-4.983,-4.986,-4.9982,-4.983,-4.986,-5.0011,-5.4494,-5.4494,-5.4494,-5.4494,-5.4494,-5.4494,-5.4494,-5.4494,-5.4494,-5.4494,-5.4494,-5.4494,-5.4494,-5.4494,-5.4494,-5.4494,-5.4494,-5.4494,-5.4494,-5.4494,-5.4494,-5.4494,-5.4494,-5.4494,-5.4494,-5.4494,-5.4322,-5.3908,-5.3908,-5.3701,-5.3253,-5.3253,-5.3253,-5.3253,-5.3253,-5.3253,-5.3253,-5.3253,-5.3253,-5.3253,-5.3253,-5.3253,-5.3253,-5.3253,-5.3529,-5.3908,-5.3908,-5.4023,-5.4175,-5.4045,-5.3882,-5.3616,-5.3043,-5.2841,-5.2638,-5.1551,-5.1007,-5.06,-4.9726,-4.9492,-4.9424,-4.9086,-4.9018,-4.9018,-4.9018,-4.9018,-4.9018,-4.9018,-4.9018,-4.9018,-4.9018,-4.9018,-4.9018,-4.9018,-4.9018,-4.9018,-4.9018,-4.9018,0.0,-4.9018,-4.9018,-4.9018,-4.9018,-4.9018,-4.9018,-4.9018,0.0,0.0,-4.9018,-4.9046,-4.9168,-4.935,-4.953,-4.9649,-4.9772,-4.983,-4.9889,-5.0011,-5.0011,-5.0011,-5.0011,-5.0011,-4.9952,-4.986,-4.986,-4.986,-4.986,-4.986,-4.9918,-5.0011,-4.9889,-4.986,-4.986,-4.9737,-4.9767,-4.986,-5.4494,-5.4494,-5.4494,-5.4494,-5.4494,-5.4494,-5.4494,-5.4494,-5.4494,-5.4494,-5.4494,-5.4494,-5.4494,-5.4494,-5.4494,-5.4494,-5.4494,-5.4494,-5.4494,-5.4494,-5.4494,-5.4494,-5.4494,-5.4494,-5.4494,-5.4494,-5.4494,-5.4494,-5.4494,-5.4494,-5.4494,-5.4494,-5.4494,-5.4494,-5.4494,-5.4494,-5.4494,-5.4494,-5.4494,-5.4494,-5.4494,-5.4494,-5.4494,-5.4494,-5.4494,-5.4494,-5.4494,-5.4367,-5.4143,-5.4045,-5.3849,-5.3651,-5.3517,-5.3518,-5.3382,-5.2672,-5.2063,-5.1386,-5.0507,-5.0168,-4.9898,-4.9187,-4.9018,-4.9018,-4.9018,-4.9018,-4.9018,-4.9018,-4.9018,-4.9018,-4.9018,-4.9018,-4.9018,-4.9018,-4.9018,-4.9018,-4.9018,0.0,-4.9018,-4.9018,-4.9018,-4.9018,-4.9018,-4.9018,-4.9018,-4.9018,-4.9018,0.0,0.0,-4.9018,-4.9046,-4.9168,-4.935,-4.9471,-4.95,-4.9619,-4.9772,-4.9947,-4.9947,-4.9982,-5.0011,-5.0011,-4.9889,-4.9708,-4.9708,-4.9679,-4.9679,-4.9679,-4.9801,-4.9947,-4.9918,-4.983,-4.9708,-4.9679,-4.9679,-4.9679,-5.4494,-5.4494,-5.4494,-5.4494,-5.4494,-5.4494,-5.4494,-5.4494,-5.4494,-5.4494,-5.4494,-5.4494,-5.4494,-5.4494,-5.4494,-5.4494,-5.4494,-5.4494,-5.4494,-5.4494,-5.4494,-5.4494,-5.4494,-5.4494,-5.4494,-5.4494,-5.4494,-5.4494,-5.4494,-5.4494,-5.4494,-5.4494,-5.4494,-5.4494,-5.4494,-5.4494,-5.4494,-5.4494,-5.4494,-5.4494,-5.4494,-5.4494,-5.4494,-5.4494,-5.4494,-5.4494,-5.4494,-5.4303,-5.4013,-5.4013,-5.3817,-5.3517,-5.3518,-5.3518,-5.3484,-5.3348,-5.3247,-5.2841,-5.142,-5.0574,-4.9898,-4.9187,-4.9018,-4.9018,-4.9018,-4.9018,-4.9018,-4.9018,-4.9018,-4.9018,-4.9018,-4.9018,-4.9018,-4.9018,-4.9018,-4.9018,0.0,0.0,-4.9018,-4.9018,-4.9018,-4.9018,-4.9018,-4.9018,-4.9018,-4.9018,-4.9018,-4.9018,-4.9018,-4.9018,-4.9018,-4.9015,-4.9168,-4.932,-4.95,-4.95,-4.959,-4.9737,-4.9737,-4.983,-5.0011,-5.0011,-4.9889,-4.9708,-4.9708,-4.9619,-4.953,-4.953,-4.9619,-4.9737,-4.959,-4.9619,-4.9679,-4.956,-4.953,-4.953,-5.4494,-5.4494,-5.4494,-5.4494,-5.4494,-5.4494,-5.4494,-5.4494,-5.4494,-5.4494,-5.4494,-5.4494,-5.4494,-5.4494,-5.4494,-5.4494,-5.4494,-5.4494,-5.4494,-5.4494,-5.4494,-5.4494,-5.4494,-5.4494,-5.4494,-5.4494,-5.4494,-5.4494,-5.4494,-5.4494,-5.4494,-5.4494,-5.4494,-5.4494,-5.4494,-5.4494,-5.4494,-5.4494,-5.4494,-5.4494,-5.4494,-5.4494,-5.4494,-5.4494,-5.4494,-5.4494,-5.4494,-5.4335,-5.411,-5.4013,-5.3816,-5.3618,-5.3517,-5.3518,-5.3518,-5.3518,-5.3179,-5.2706,-5.1995,-5.0947,-4.9999,-4.9661,-4.9289,-4.9018,-4.9018,-4.9018,-4.9018,-4.9018,-4.9018,-4.9018,-4.9018,-4.9018,-4.9018,-4.9018,-4.9018,0.0,0.0,-4.9018,-4.9018,-4.9018,-4.9018,-4.9018,-4.9018,-4.9018,-4.9018,-4.9018,-4.9018,-4.9018,-4.9018,-4.9018,-4.9018,-4.9018,-4.9046,-4.9168,-4.932,-4.932,-4.9411,-4.959,-4.959,-4.9679,-4.983,-4.983,-4.9772,-4.959,-4.959,-4.95,-4.932,-4.932,-4.9441,-4.959,-4.959,-4.953,-4.9441,-4.9471,-4.9411,-4.935,-5.4494,-5.4494,-5.4494,-5.4494,-5.4494,-5.4494,-5.4494,-5.4494,-5.4494,-5.4494,-5.4494,-5.4494,-5.4494,-5.4494,-5.4494,-5.4494,-5.4494,-5.4494,-5.4494,-5.4494,-5.4494,-5.4494,-5.4494,-5.4494,-5.4494,-5.4494,-5.4494,-5.4494,-5.4494,-5.4494,-5.4494,-5.4494,-5.4494,-5.4494,-5.4494,-5.4494,-5.4494,-5.4494,-5.4494,-5.4494,-5.4494,-5.4494,-5.4494,-5.4494,-5.4494,-5.4494,-5.4494,-5.4335,-5.4143,-5.4045,-5.3849,-5.3617,-5.3517,-5.3518,-5.3518,-5.3518,-5.3078,-5.2536,-5.2367,-5.1454,-5.0574,-5.0405,-4.9796,-4.9255,-4.9255,-4.912,-4.9018,-4.9018,-4.9018,-4.9018,-4.9018,-4.9018,-4.9018,-4.9018,0.0,0.0,0.0,-4.9018,-4.9018,-4.9018,-4.9018,-4.9018,-4.9018,-4.9018,-4.9018,-4.9018,-4.9018,-4.9018,-4.9018,-4.9018,-4.9018,-4.9018,-4.9018,-4.9046,-4.9138,-4.9138,-4.9229,-4.9411,-4.9411,-4.95,-4.9649,-4.9649,-4.956,-4.9411,-4.9411,-4.932,-4.9138,-4.9138,-4.926,-4.9441,-4.959,-4.95,-4.929,-4.9441,-4.9381,-4.9199,-5.4494,-5.4494,-5.4494,-5.4494,-5.4494,-5.4494,-5.4494,-5.4494,-5.4494,-5.4494,-5.4494,-5.4494,-5.4494,-5.4494,-5.4494,-5.4494,-5.4494,-5.4494,-5.4494,-5.4494,-5.4494,-5.4494,-5.4494,-5.4494,-5.4494,-5.4494,-5.4494,-5.4494,-5.4494,-5.4494,-5.4494,-5.4494,-5.4494,-5.4494,-5.4494,-5.4494,-5.4494,-5.4494,-5.4494,-5.4494,-5.4494,-5.4494,-5.4494,-5.4494,-5.4494,-5.4494,-5.4494,-5.4271,-5.4013,-5.4013,-5.3784,-5.3484,-5.3518,-5.3518,-5.3518,-5.3518,-5.345,-5.3247,-5.2503,-5.2232,-5.1961,-5.1319,-5.0574,-4.9999,-4.9999,-4.9492,-4.9018,-4.9018,-4.9018,-4.9018,-4.9018,-4.9018,-4.9018,-4.9018,0.0,0.0,-4.9018,-4.9018,-4.9018,-4.9018,-4.9018,-4.9018,-4.9018,-4.9018,-4.9018,-4.9018,-4.9018,-4.9018,-4.9018,-4.9018,-4.9018,-4.9018,-4.9018,-4.8984,-4.8984,-4.8984,-4.9077,-4.9229,-4.9229,-4.932,-4.95,-4.95,-4.9411,-4.9229,-4.9229,-4.9138,-4.8984,-4.8984,-4.9077,-4.9229,-4.9441,-4.95,-4.9471,-4.9471,-4.9381,-4.9199,-5.4494,-5.4494,-5.4494,-5.4494,-5.4494,-5.4494,-5.4494,-5.4494,-5.4494,-5.4494,-5.4494,-5.4494,-5.4494,-5.4494,-5.4494,-5.4494,-5.4494,-5.4494,-5.4494,-5.4494,-5.4494,-5.4494,-5.4494,-5.4494,-5.4494,-5.4494,-5.4494,-5.4494,-5.4494,-5.4494,-5.4494,-5.4494,-5.4494,-5.4494,-5.4494,-5.4494,-5.4494,-5.4494,-5.4494,-5.4494,-5.4494,-5.4494,-5.4494,-5.4494,-5.4494,-5.4494,-5.4494,-5.4335,-5.411,-5.4013,-5.3816,-5.3618,-5.3517,-5.3518,-5.3518,-5.3518,-5.3518,-5.345,-5.3145,-5.2672,-5.2232,-5.1961,-5.1352,-5.0676,-5.0202,-4.9864,-4.956,-4.9086,-4.9018,-4.9018,-4.9018,-4.9018,-4.9018,-4.9018,0.0,-4.9018,-4.9018,-4.9018,-4.9018,-4.9018,-4.9018,-4.9018,-4.9018,-4.9018,-4.9018,-4.9018,-4.9018,-4.9018,-4.9018,-4.9018,-4.9018,-4.9018,-4.9018,-4.9018,-4.9018,-4.9018,-4.9049,-4.9077,-4.9077,-4.9168,-4.932,-4.932,-4.926,-4.9199,-4.9199,-4.9107,-4.9018,-4.9018,-4.9015,-4.9077,-4.926,-4.926,-4.9199,-4.929,-4.9199,-4.9077,-5.4494,-5.4494,-5.4494,-5.4494,-5.4494,-5.4494,-5.4494,-5.4494,-5.4494,-5.4494,-5.4494,-5.4494,-5.4494,-5.4494,-5.4494,-5.4494,-5.4494,-5.4494,-5.4494,-5.4494,-5.4494,-5.4494,-5.4494,-5.4494,-5.4494,-5.4494,-5.4494,-5.4494,-5.4494,-5.4494,-5.4494,-5.4494,-5.4494,-5.4494,-5.4494,-5.4494,-5.4494,-5.4494,-5.4494,-5.4494,-5.4494,-5.4494,-5.4494,-5.4494,-5.4494,-5.4494,-5.4494,-5.4335,-5.4143,-5.4013,-5.3849,-5.3617,-5.3517,-5.3518,-5.3518,-5.3518,-5.3518,-5.3518,-5.3518,-5.3112,-5.2672,-5.2672,-5.2131,-5.142,-5.0913,-5.0608,-5.0236,-4.9492,-4.9357,-4.9255,-4.9052,-4.9018,-4.9018,-4.9018,-4.9018,-4.9018,-4.9018,-4.9018,-4.9018,-4.9018,-4.9018,-4.9018,-4.9018,-4.9018,-4.9018,-4.9018,-4.9018,-4.9018,-4.9018,-4.9018,-4.9018,-4.9018,-4.9018,-4.9018,-4.9018,-4.9018,-4.9018,-4.9018,-4.9018,-4.9046,-4.9138,-4.9138,-4.9138,-4.9138,-4.9138,-4.9077,-4.9018,-4.9018,-4.9018,-4.8984,-4.9138,-4.9138,-4.9077,-4.9168,-4.9138,-4.908,-5.4494,-5.4494,-5.4494,-5.4494,-5.4494,-5.4494,-5.4494,-5.4494,-5.4494,-5.4494,-5.4494,-5.4494,-5.4494,-5.4494,-5.4494,-5.4494,-5.4494,-5.4494,-5.4494,-5.4494,-5.4494,-5.4494,-5.4494,-5.4494,-5.4494,-5.4494,-5.4494,-5.4494,-5.4494,-5.4494,-5.4494,-5.4494,-5.4494,-5.4494,-5.4494,-5.4494,-5.4494,-5.4494,-5.4494,-5.4494,-5.4494,-5.4494,-5.4494,-5.4494,-5.4494,-5.4494,-5.4494,-5.4271,-5.398,-5.398,-5.3784,-5.3518,-5.3518,-5.3518,-5.3518,-5.3518,-5.3518,-5.3518,-5.3518,-5.3518,-5.3518,-5.3518,-5.2909,-5.23,-5.23,-5.1725,-5.1014,-5.0236,-5.0101,-4.9864,-4.9154,-4.9018,-4.9018,-4.9018,-4.9018,-4.9018,-4.9018,-4.9018,-4.9018,-4.9018,-4.9018,-4.9018,-4.9018,-4.9018,-4.9018,-4.9018,-4.9018,-4.9018,-4.9018,-4.9018,-4.9018,-4.9018,-4.9018,-4.9018,-4.9018,-4.9018,-4.9018,-4.9018,-4.9018,-4.9018,-4.9018,-4.9018,-4.9018,-4.9018,-4.9018,-4.9018,-4.9018,-4.9018,-4.9018,-4.8984,-4.9138,-4.9199,-4.9199,-4.9199,-4.9199,-4.9168,-5.4494,-5.4494,-5.4494,-5.4494,-5.4494,-5.4494,-5.4494,-5.4494,-5.4494,-5.4494,-5.4494,-5.4494,-5.4494,-5.4494,-5.4494,-5.4494,-5.4494,-5.4494,-5.4494,-5.4494,-5.4494,-5.4494,-5.4494,-5.4494,-5.4494,-5.4494,-5.4494,-5.4494,-5.4494,-5.4494,-5.4494,-5.4494,-5.4494,-5.4494,-5.4494,-5.4494,-5.4494,-5.4494,-5.4494,-5.4494,-5.4494,-5.4494,-5.4494,-5.4494,-5.4494,-5.4463,-5.4335,-5.4175,-5.398,-5.3849,-5.3685,-5.3518,-5.3518,-5.3518,-5.3518,-5.3518,-5.3518,-5.3518,-5.3518,-5.3518,-5.3518,-5.3518,-5.3315,-5.2976,-5.2435,-5.2131,-5.1758,-5.1014,-5.0473,-5.0033,-4.9796,-4.9357,-4.9018,-4.9018,-4.9018,-4.9018,-4.9018,-4.9018,-4.9018,-4.9018,-4.9018,-4.9018,-4.9018,-4.9018,-4.9018,-4.9018,-4.9018,-4.9018,-4.9018,-4.9018,-4.9018,-4.9018,-4.9018,-4.9018,-4.9018,-4.9018,-4.9018,-4.9018,-4.9018,-4.9018,-4.9018,-4.9018,-4.9018,-4.9018,-4.9018,-4.9018,-4.9018,-4.9018,-4.9018,-4.8984,-4.9015,-4.9046,-4.9046,-4.9046,-4.9046,-4.9046,-5.4494,-5.4494,-5.4494,-5.4494,-5.4494,-5.4494,-5.4494,-5.4494,-5.4494,-5.4494,-5.4494,-5.4494,-5.4494,-5.4494,-5.4494,-5.4494,-5.4494,-5.4494,-5.4494,-5.4494,-5.4494,-5.4494,-5.4494,-5.4494,-5.4494,-5.4494,-5.4494,-5.4494,-5.4494,-5.4494,-5.4494,-5.4494,-5.4494,-5.4494,-5.4494,-5.4494,-5.4494,-5.4494,-5.4494,-5.4494,-5.4494,-5.4494,-5.4494,-5.4494,-5.4494,-5.4463,-5.4367,-5.4175,-5.398,-5.3849,-5.3685,-5.3518,-5.3518,-5.3518,-5.3518,-5.3518,-5.3518,-5.3518,-5.3518,-5.3518,-5.3518,-5.3518,-5.3518,-5.3382,-5.2875,-5.2773,-5.257,-5.1792,-5.1285,-5.0879,-5.0574,-4.9932,-4.9424,-4.9424,-4.9187,-4.9018,-4.9018,-4.9018,-4.9018,-4.9018,-4.9018,-4.9018,-4.9018,-4.9018,-4.9018,-4.9018,-4.9018,-4.9018,-4.9018,-4.9018,-4.9018,-4.9018,-4.9018,-4.9018,-4.9018,-4.9018,-4.9018,-4.9018,-4.9018,-4.9018,-4.9018,-4.9018,-4.9018,-4.9018,-4.9018,-4.9018,-4.9018,-4.9018,-4.9018,-4.9018,-4.9018,-4.9018,-4.9018,-4.9018,-4.9018,-4.9018,-5.4494,-5.4494,-5.4494,-5.4494,-5.4494,-5.4494,-5.4494,-5.4494,-5.4494,-5.4494,-5.4494,-5.4494,-5.4494,-5.4494,-5.4494,-5.4494,-5.4494,-5.4494,-5.4494,-5.4494,-5.4494,-5.4494,-5.4494,-5.4494,-5.4494,-5.4494,-5.4494,-5.4494,-5.4494,-5.4494,-5.4494,-5.4494,-5.4494,-5.4494,-5.4494,-5.4494,-5.4494,-5.4494,-5.4494,-5.4494,-5.4494,-5.4494,-5.4494,-5.4494,-5.4494,-5.4494,-5.4463,-5.4271,-5.398,-5.3948,-5.3751,-5.3518,-5.3518,-5.3518,-5.3518,-5.3518,-5.3518,-5.3518,-5.3518,-5.3518,-5.3518,-5.3518,-5.3518,-5.3518,-5.3518,-5.3518,-5.3281,-5.257,-5.2367,-5.2097,-5.142,-5.071,-5.0202,-5.0202,-4.9627,-4.9187,-4.912,-4.9086,-4.9086,-4.9018,-4.9018,-4.9018,-4.9018,-4.9018,-4.9018,-4.9018,-4.9018,-4.9018,-4.9018,-4.9018,-4.9018,-4.9018,-4.9018,-4.9018,-4.9018,-4.9018,-4.9018,-4.9018,-4.9018,-4.9018,-4.9018,-4.9018,-4.9018,-4.9018,-4.9018,-4.9018,-4.9018,-4.9018,-4.9018,-4.9018,-4.9018,-4.9018,-4.9018,-4.9018,-4.9018,-4.9018,-5.4494,-5.4494,-5.4494,-5.4494,-5.4494,-5.4494,-5.4494,-5.4494,-5.4494,-5.4494,-5.4494,-5.4494,-5.4494,-5.4494,-5.4494,-5.4494,-5.4494,-5.4494,-5.4494,-5.4494,-5.4494,-5.4494,-5.4494,-5.4494,-5.4494,-5.4494,-5.4494,-5.4494,-5.4494,-5.4494,-5.4494,-5.4494,-5.4494,-5.4494,-5.4494,-5.4494,-5.4494,-5.4494,-5.4494,-5.4494,-5.4494,-5.4494,-5.4494,-5.4494,-5.4494,-5.4463,-5.4335,-5.4143,-5.3948,-5.3685,-5.3551,-5.3518,-5.3518,-5.3518,-5.3518,-5.3518,-5.3518,-5.3518,-5.3518,-5.3518,-5.3518,-5.3518,-5.3518,-5.3518,-5.3518,-5.3518,-5.345,-5.3281,-5.2739,-5.2266,-5.2097,-5.1454,-5.098,-5.098,-5.0845,-5.0541,-4.9932,-4.9864,-4.9627,-4.9086,-4.9018,-4.9018,-4.9018,-4.9018,-4.9018,-4.9018,-4.9018,-4.9018,-4.9018,-4.9018,-4.9018,-4.9018,-4.9018,-4.9018,-4.9018,-4.9018,-4.9018,-4.9018,-4.9018,-4.9018,-4.9018,-4.9018,-4.9018,-4.9018,-4.9018,-4.9018,-4.9018,-4.9018,-4.9018,-4.9018,-4.9018,-4.9018,-4.9018,-4.9018,-4.9018,-4.9018,-5.4494,-5.4494,-5.4494,-5.4494,-5.4494,-5.4494,-5.4494,-5.4494,-5.4494,-5.4494,-5.4494,-5.4494,-5.4494,-5.4494,-5.4494,-5.4494,-5.4494,-5.4494,-5.4494,-5.4494,-5.4494,-5.4494,-5.4494,-5.4494,-5.4494,-5.4494,-5.4494,-5.4494,-5.4494,-5.4494,-5.4494,-5.4494,-5.4494,-5.4494,-5.4494,-5.4494,-5.4494,-5.4494,-5.4494,-5.4494,-5.4494,-5.4494,-5.4494,-5.4494,-5.4494,-5.4463,-5.4367,-5.4207,-5.3948,-5.3618,-5.3518,-5.3518,-5.3518,-5.3518,-5.3518,-5.3518,-5.3518,-5.3518,-5.3518,-5.3518,-5.3518,-5.3518,-5.3518,-5.3518,-5.3518,-5.3518,-5.3518,-5.3518,-5.3179,-5.2875,-5.2875,-5.2232,-5.1725,-5.1725,-5.1454,-5.1082,-5.0676,-5.0608,-5.0473,-5.0101,-4.9729,-4.939,-4.9052,-4.9018,-4.9154,-4.9492,-4.9526,-4.9695,-5.0033,-5.0067,-5.0067,-5.0067,-5.0067,-5.0067,-5.0067,-5.0067,-4.9864,-4.9526,-4.9187,-4.9018,-4.9018,-4.9018,-4.9018,-4.9018,-4.9018,-4.9018,-4.9018,-4.9018,-4.9018,-4.9018,-4.9018,-4.9018,-4.9018,-4.9018,-4.9018,-4.9018,-5.4494,-5.4494,-5.4494,-5.4494,-5.4494,-5.4494,-5.4494,-5.4494,-5.4494,-5.4494,-5.4494,-5.4494,-5.4494,-5.4494,-5.4494,-5.4494,-5.4494,-5.4494,-5.4494,-5.4494,-5.4494,-5.4494,-5.4494,-5.4494,-5.4494,-5.4494,-5.4494,-5.4494,-5.4494,-5.4494,-5.4494,-5.4494,-5.4494,-5.4494,-5.4494,-5.4494,-5.4494,-5.4494,-5.4494,-5.4494,-5.4494,-5.4494,-5.4494,-5.4494,-5.4494,-5.4529,-5.4463,-5.4239,-5.3948,-5.3651,-5.3517,-5.3517,-5.3517,-5.3517,-5.3518,-5.3518,-5.3518,-5.3518,-5.3518,-5.3518,-5.3518,-5.3518,-5.3518,-5.3518,-5.3518,-5.3518,-5.3518,-5.3518,-5.3518,-5.3518,-5.3518,-5.2942,-5.2503,-5.2503,-5.1995,-5.1555,-5.142,-5.1386,-5.132,-5.1185,-5.0676,-5.0033,-4.9458,-4.939,-4.9627,-5.0236,-5.027,-5.0541,-5.1183,-5.1185,-5.1185,-5.1185,-5.1185,-5.1185,-5.1185,-5.1185,-5.0913,-5.027,-4.9661,-4.9255,-4.9018,-4.9018,-4.9018,-4.9018,-4.9018,-4.9018,-4.9018,-4.9018,-4.9018,-4.9018,-4.9018,-4.9018,-4.9018,-4.9018,-4.9018,-4.9018,-5.4494,-5.4494,-5.4494,-5.4494,-5.4494,-5.4494,-5.4494,-5.4494,-5.4494,-5.4494,-5.4494,-5.4494,-5.4494,-5.4494,-5.4494,-5.4494,-5.4494,-5.4494,-5.4494,-5.4494,-5.4494,-5.4494,-5.4494,-5.4494,-5.4494,-5.4494,-5.4494,-5.4494,-5.4494,-5.4494,-5.4494,-5.4494,-5.4494,-5.4494,-5.4494,-5.4494,-5.4494,-5.4494,-5.4494,-5.4494,-5.4494,-5.4494,-5.4494,-5.4494,-5.4494,-5.4463,-5.4303,-5.4143,-5.3948,-5.375,-5.3684,-5.3684,-5.3684,-5.3584,-5.3518,-5.3518,-5.3518,-5.3518,-5.3518,-5.3518,-5.3518,-5.3518,-5.3518,-5.3518,-5.3518,-5.3518,-5.3518,-5.3518,-5.3518,-5.3518,-5.3518,-5.3416,-5.3348,-5.3348,-5.3247,-5.2942,-5.2266,-5.2164,-5.1928,-5.1285,-5.1116,-5.1014,-5.0881,-5.0913,-5.0914,-5.1048,-5.1082,-5.1116,-5.1185,-5.1185,-5.1185,-5.1185,-5.1185,-5.1185,-5.1185,-5.1185,-5.1151,-5.1048,-5.098,-5.0236,-4.9018,-4.9018,-4.9018,-4.9018,-4.9018,-4.9018,-4.9018,-4.9018,-4.9018,-4.9018,-4.9018,-4.9018,-4.9018,-4.9018,-4.9018,-4.9018,-5.5115,-5.4805,-5.4494,-5.4494,-5.4494,-5.4494,-5.4494,-5.4494,-5.4494,-5.4494,-5.4494,-5.4494,-5.4494,-5.4494,-5.4494,-5.4494,-5.4494,-5.4494,-5.4494,-5.4494,-5.4494,-5.4494,-5.4494,-5.4494,-5.4494,-5.4494,-5.4494,-5.4494,-5.4494,-5.4494,-5.4494,-5.4494,-5.4494,-5.4494,-5.4494,-5.4494,-5.4494,-5.4494,-5.4494,-5.4494,-5.4494,-5.4494,-5.4494,-5.4494,-5.4494,-5.4463,-5.4271,-5.411,-5.398,-5.3882,-5.3783,-5.3717,-5.3717,-5.3618,-5.3518,-5.3518,-5.3518,-5.3518,-5.3518,-5.3518,-5.3518,-5.3518,-5.3518,-5.3518,-5.3518,-5.3518,-5.3518,-5.3518,-5.3518,-5.3518,-5.3518,-5.3518,-5.3518,-5.3518,-5.3518,-5.3382,-5.301,-5.2976,-5.2672,-5.1928,-5.1826,-5.1657,-5.1251,-5.1185,-5.1386,-5.1792,-5.1826,-5.2029,-5.2469,-5.2503,-5.2503,-5.2503,-5.2503,-5.2503,-5.2503,-5.2503,-5.2266,-5.1826,-5.1826,-5.1048,-4.9593,-4.9593,-4.939,-4.9018,-4.9018,-4.9018,-4.9018,-4.9018,-4.9018,-4.9018,-4.9018,-4.9018,-4.9018,-4.9018,-4.9018,-4.9018]},{"header":{"parameterUnit":"m.s-1","parameterCategory":1,"la1":30.6,"la2":28.766,"lo1":-90.7593,"lo2":-88.6598,"dy":0.0162,"dx":0.0183,"nx":116,"ny":114,"refTime":"2024-04-10T18:00:00:Z","depth":0,"parameterNumber":3,"parameterNumberName":"V-component_of_WINDS"},"data":[0.0,0.0,0.0,0.0,0.0,0.0,0.0,0.0,0.0,0.0,0.0,0.0,0.0,0.0,0.0,0.0,0.0,0.0,0.0,0.0,0.0,0.0,0.0,0.0,0.0,0.0,0.0,0.0,0.0,0.0,0.0,0.0,0.0,0.0,0.0,0.0,0.0,0.0,0.0,0.0,0.0,0.0,0.0,0.0,0.0,0.0,0.0,0.0,0.0,0.0,0.0,0.0,0.0,0.0,0.0,0.0,0.0,0.0,0.0,0.0,0.0,0.0,0.0,0.0,0.0,0.0,0.0,0.0,0.0,0.0,0.0,0.0,0.0,0.0,0.0,0.0,0.0,0.0,0.0,0.0,0.0,0.0,0.0,0.0,0.0,0.0,0.0,0.0,0.0,0.0,0.0,0.0,0.0,0.0,0.0,0.0,0.0,0.0,0.0,0.0,0.0,0.0,0.0,0.0,0.0,0.0,0.0,0.0,0.0,0.0,0.0,0.0,0.0,0.0,0.0,0.0,0.0,0.0,0.0,0.0,0.0,0.0,0.0,0.0,0.0,0.0,0.0,0.0,0.0,0.0,0.0,0.0,0.0,0.0,0.0,0.0,0.0,0.0,0.0,0.0,0.0,0.0,0.0,0.0,0.0,0.0,0.0,0.0,0.0,0.0,0.0,0.0,0.0,0.0,0.0,0.0,0.0,0.0,0.0,0.0,0.0,0.0,0.0,0.0,0.0,0.0,0.0,0.0,0.0,0.0,0.0,0.0,0.0,0.0,0.0,0.0,0.0,0.0,0.0,0.0,0.0,0.0,0.0,0.0,0.0,0.0,0.0,0.0,0.0,0.0,0.0,0.0,0.0,0.0,0.0,0.0,0.0,0.0,0.0,0.0,0.0,0.0,0.0,0.0,0.0,0.0,0.0,0.0,0.0,0.0,0.0,0.0,0.0,0.0,0.0,0.0,0.0,0.0,0.0,0.0,0.0,0.0,0.0,0.0,0.0,0.0,0.0,0.0,0.0,0.0,0.0,0.0,0.0,0.0,0.0,0.0,0.0,0.0,0.0,0.0,0.0,0.0,0.0,0.0,0.0,0.0,0.0,0.0,0.0,0.0,0.0,0.0,0.0,0.0,0.0,0.0,0.0,0.0,0.0,0.0,0.0,0.0,0.0,0.0,0.0,0.0,0.0,0.0,0.0,0.0,0.0,0.0,0.0,0.0,0.0,0.0,0.0,0.0,0.0,0.0,0.0,0.0,0.0,0.0,0.0,0.0,0.0,0.0,0.0,0.0,0.0,0.0,0.0,0.0,0.0,0.0,0.0,0.0,0.0,0.0,0.0,0.0,0.0,0.0,0.0,0.0,0.0,0.0,0.0,0.0,0.0,0.0,0.0,0.0,0.0,0.0,0.0,0.0,0.0,0.0,0.0,0.0,0.0,0.0,0.0,0.0,0.0,0.0,0.0,0.0,0.0,0.0,0.0,0.0,0.0,0.0,0.0,0.0,0.0,0.0,0.0,0.0,0.0,0.0,0.0,0.0,0.0,0.0,0.0,0.0,0.0,0.0,0.0,0.0,0.0,0.0,0.0,0.0,0.0,0.0,0.0,0.0,0.0,0.0,0.0,0.0,0.0,0.0,0.0,0.0,0.0,0.0,0.0,0.0,0.0,0.0,0.0,0.0,0.0,0.0,0.0,0.0,0.0,0.0,0.0,0.0,0.0,0.0,0.0,0.0,0.0,0.0,0.0,0.0,0.0,0.0,0.0,0.0,0.0,0.0,0.0,0.0,0.0,0.0,0.0,0.0,0.0,0.0,0.0,0.0,0.0,0.0,0.0,0.0,0.0,0.0,0.0,0.0,0.0,0.0,0.0,0.0,0.0,0.0,0.0,0.0,0.0,0.0,0.0,0.0,0.0,0.0,0.0,0.0,0.0,0.0,0.0,0.0,0.0,0.0,0.0,0.0,0.0,0.0,0.0,0.0,0.0,0.0,0.0,0.0,0.0,0.0,0.0,0.0,0.0,0.0,0.0,0.0,0.0,0.0,0.0,0.0,0.0,0.0,0.0,0.0,0.0,0.0,0.0,0.0,0.0,0.0,0.0,0.0,0.0,0.0,0.0,0.0,0.0,0.0,0.0,0.0,0.0,0.0,0.0,0.0,0.0,0.0,0.0,0.0,0.0,0.0,0.0,0.0,0.0,0.0,0.0,0.0,0.0,0.0,0.0,0.0,0.0,0.0,0.0,0.0,0.0,0.0,0.0,0.0,0.0,0.0,0.0,0.0,0.0,0.0,0.0,0.0,0.0,0.0,0.0,0.0,0.0,0.0,0.0,0.0,0.0,0.0,0.0,0.0,0.0,0.0,0.0,0.0,0.0,0.0,0.0,0.0,0.0,0.0,0.0,0.0,0.0,0.0,0.0,0.0,0.0,0.0,0.0,0.0,0.0,0.0,0.0,0.0,0.0,0.0,0.0,0.0,0.0,0.0,0.0,0.0,0.0,0.0,0.0,0.0,0.0,0.0,0.0,0.0,0.0,0.0,0.0,0.0,0.0,0.0,0.0,0.0,0.0,0.0,0.0,0.0,0.0,0.0,0.0,0.0,0.0,0.0,0.0,0.0,0.0,0.0,0.0,0.0,0.0,0.0,0.0,0.0,0.0,0.0,0.0,0.0,0.0,0.0,0.0,0.0,0.0,0.0,0.0,0.0,0.0,0.0,0.0,0.0,0.0,0.0,0.0,0.0,0.0,0.0,0.0,0.0,0.0,0.0,0.0,0.0,0.0,0.0,0.0,0.0,0.0,0.0,0.0,0.0,0.0,0.0,0.0,0.0,0.0,0.0,0.0,0.0,0.0,0.0,0.0,0.0,0.0,0.0,0.0,0.0,0.0,0.0,0.0,0.0,0.0,0.0,0.0,0.0,0.0,0.0,0.0,0.0,0.0,0.0,0.0,0.0,0.0,0.0,0.0,0.0,0.0,0.0,0.0,0.0,0.0,0.0,0.0,0.0,0.0,0.0,0.0,0.0,0.0,0.0,0.0,0.0,0.0,0.0,0.0,0.0,0.0,0.0,0.0,0.0,0.0,0.0,0.0,0.0,0.0,0.0,0.0,0.0,0.0,0.0,0.0,0.0,0.0,0.0,0.0,0.0,0.0,0.0,0.0,0.0,0.0,0.0,0.0,0.0,0.0,0.0,0.0,0.0,0.0,0.0,0.0,0.0,0.0,0.0,0.0,0.0,0.0,0.0,0.0,0.0,0.0,0.0,0.0,0.0,0.0,0.0,0.0,0.0,0.0,0.0,0.0,0.0,0.0,0.0,0.0,0.0,0.0,0.0,0.0,0.0,0.0,0.0,0.0,0.0,0.0,0.0,0.0,0.0,0.0,0.0,0.0,0.0,0.0,0.0,0.0,0.0,0.0,0.0,0.0,0.0,0.0,0.0,0.0,0.0,0.0,0.0,0.0,0.0,0.0,0.0,0.0,0.0,0.0,0.0,0.0,0.0,0.0,0.0,0.0,0.0,0.0,0.0,0.0,0.0,0.0,0.0,0.0,0.0,0.0,0.0,0.0,0.0,0.0,0.0,0.0,0.0,0.0,0.0,0.0,0.0,0.0,0.0,0.0,0.0,0.0,0.0,0.0,0.0,0.0,0.0,0.0,0.0,0.0,0.0,0.0,0.0,0.0,0.0,0.0,0.0,0.0,0.0,0.0,0.0,0.0,0.0,0.0,0.0,0.0,0.0,0.0,0.0,0.0,0.0,0.0,0.0,0.0,0.0,0.0,0.0,0.0,0.0,0.0,0.0,0.0,0.0,0.0,0.0,0.0,0.0,0.0,0.0,0.0,0.0,0.0,0.0,0.0,0.0,0.0,0.0,0.0,0.0,0.0,0.0,0.0,0.0,0.0,0.0,0.0,0.0,0.0,0.0,0.0,0.0,0.0,0.0,0.0,0.0,0.0,0.0,0.0,0.0,0.0,0.0,0.0,0.0,0.0,0.0,0.0,0.0,0.0,0.0,0.0,0.0,0.0,0.0,0.0,0.0,0.0,0.0,0.0,0.0,0.0,0.0,0.0,0.0,0.0,0.0,0.0,0.0,0.0,0.0,0.0,0.0,0.0,0.0,0.0,0.0,0.0,0.0,0.0,0.0,0.0,0.0,0.0,0.0,0.0,0.0,0.0,0.0,0.0,0.0,0.0,0.0,0.0,0.0,0.0,0.0,0.0,0.0,0.0,0.0,0.0,0.0,0.0,0.0,0.0,0.0,0.0,0.0,0.0,0.0,0.0,0.0,0.0,0.0,0.0,0.0,0.0,0.0,0.0,0.0,0.0,0.0,0.0,0.0,0.0,0.0,0.0,0.0,0.0,0.0,0.0,0.0,0.0,0.0,0.0,0.0,0.0,0.0,0.0,0.0,0.0,0.0,0.0,0.0,0.0,0.0,0.0,0.0,0.0,0.0,0.0,0.0,0.0,0.0,0.0,0.0,0.0,0.0,0.0,0.0,0.0,0.0,0.0,0.0,0.0,0.0,0.0,0.0,0.0,0.0,0.0,0.0,0.0,0.0,0.0,0.0,0.0,0.0,0.0,0.0,0.0,0.0,0.0,0.0,0.0,0.0,0.0,0.0,0.0,0.0,0.0,0.0,0.0,0.0,0.0,0.0,0.0,0.0,0.0,0.0,0.0,0.0,0.0,0.0,0.0,0.0,0.0,0.0,0.0,0.0,0.0,0.0,0.0,0.0,0.0,0.0,0.0,0.0,0.0,0.0,0.0,0.0,0.0,0.0,0.0,0.0,0.0,0.0,0.0,0.0,0.0,0.0,0.0,0.0,0.0,0.0,0.0,0.0,0.0,0.0,0.0,0.0,0.0,0.0,0.0,0.0,0.0,0.0,0.0,0.0,0.0,0.0,0.0,0.0,0.0,0.0,0.0,0.0,0.0,0.0,0.0,0.0,0.0,0.0,0.0,0.0,0.0,0.0,0.0,0.0,0.0,0.0,0.0,0.0,0.0,0.0,0.0,0.0,0.0,0.0,0.0,0.0,0.0,0.0,0.0,0.0,0.0,0.0,0.0,0.0,0.0,0.0,0.0,0.0,0.0,0.0,0.0,0.0,0.0,0.0,0.0,0.0,0.0,0.0,0.0,0.0,0.0,0.0,0.0,0.0,0.0,0.0,0.0,0.0,0.0,0.0,0.0,0.0,0.0,0.0,0.0,0.0,0.0,0.0,0.0,0.0,0.0,0.0,0.0,0.0,0.0,0.0,0.0,0.0,0.0,0.0,0.0,0.0,0.0,0.0,0.0,0.0,0.0,0.0,0.0,0.0,0.0,0.0,0.0,0.0,0.0,0.0,0.0,0.0,0.0,0.0,0.0,0.0,0.0,0.0,0.0,0.0,0.0,0.0,0.0,0.0,0.0,0.0,0.0,0.0,0.0,0.0,0.0,0.0,0.0,0.0,0.0,0.0,0.0,0.0,0.0,0.0,0.0,0.0,0.0,0.0,0.0,0.0,0.0,0.0,0.0,0.0,0.0,0.0,0.0,0.0,0.0,0.0,0.0,0.0,0.0,0.0,0.0,0.0,0.0,0.0,0.0,0.0,0.0,0.0,0.0,0.0,0.0,0.0,0.0,0.0,0.0,0.0,0.0,0.0,0.0,0.0,0.0,0.0,0.0,0.0,0.0,0.0,0.0,0.0,0.0,0.0,0.0,0.0,0.0,0.0,0.0,0.0,0.0,0.0,0.0,0.0,0.0,0.0,0.0,0.0,0.0,0.0,0.0,0.0,0.0,0.0,0.0,0.0,0.0,0.0,0.0,0.0,0.0,0.0,0.0,0.0,0.0,0.0,0.0,0.0,0.0,0.0,0.0,0.0,0.0,0.0,0.0,0.0,0.0,0.0,0.0,0.0,0.0,0.0,0.0,0.0,0.0,0.0,0.0,0.0,0.0,0.0,0.0,0.0,0.0,0.0,0.0,0.0,0.0,0.0,0.0,0.0,0.0,0.0,0.0,0.0,0.0,0.0,0.0,0.0,0.0,0.0,0.0,0.0,0.0,0.0,0.0,0.0,0.0,0.0,0.0,0.0,0.0,0.0,0.0,0.0,0.0,0.0,1.3121,0.0,0.0,0.0,0.0,0.0,0.0,0.0,0.0,0.0,0.0,0.0,0.0,0.0,0.0,0.0,0.0,0.0,0.0,0.0,0.0,0.0,0.0,0.0,0.0,1.2699,1.2314,1.137,1.1714,1.1845,1.1576,0.0,0.0,0.0,0.0,0.0,1.5008,1.5008,1.4918,1.4829,1.4829,1.4615,1.4205,1.4138,1.406,1.3913,0.0,0.0,0.0,0.0,0.0,0.0,0.0,0.0,0.0,0.0,0.0,0.0,0.0,0.0,0.0,0.0,0.0,0.0,0.0,0.0,0.0,0.0,0.0,0.0,0.0,0.0,0.0,0.0,0.0,0.0,0.0,0.0,0.0,0.0,0.0,0.0,0.0,0.0,0.0,0.0,0.0,0.0,0.0,0.0,0.0,0.0,0.0,0.0,0.0,0.0,0.0,0.0,0.0,0.0,0.0,0.0,0.0,0.0,0.0,0.0,0.0,0.0,0.0,0.0,0.0,0.0,0.0,0.0,0.0,0.0,0.0,1.327,0.0,0.0,0.0,0.0,0.0,0.0,0.0,0.0,0.0,0.0,0.0,0.0,0.0,0.0,0.0,0.0,0.0,0.0,0.0,0.0,0.0,1.2699,1.2699,1.24,1.1972,1.137,1.192,1.2163,1.1805,1.2694,1.3371,1.3647,1.4618,1.5156,1.5156,1.511,1.4884,1.4462,1.432,1.4262,1.4229,1.4133,1.3945,1.3801,1.3801,0.0,0.0,0.0,0.0,0.0,0.0,0.0,0.0,0.0,0.0,0.0,0.0,0.0,0.0,0.0,0.0,0.0,0.0,0.0,0.0,0.0,0.0,0.0,0.0,0.0,0.0,0.0,0.0,0.0,0.0,0.0,0.0,0.0,0.0,0.0,0.0,0.0,0.0,0.0,0.0,0.0,0.0,0.0,0.0,0.0,0.0,0.0,0.0,0.0,0.0,0.0,0.0,0.0,0.0,0.0,0.0,0.0,0.0,0.0,0.0,0.0,0.0,0.0,0.0,1.4437,1.4437,1.4437,1.4437,1.4413,1.3978,1.3713,1.358,0.0,0.0,0.0,0.0,0.0,0.0,0.0,0.0,0.0,0.0,0.0,0.0,0.0,0.0,0.0,0.0,0.0,0.0,0.0,0.0,1.2699,1.2699,1.1241,1.0549,1.1241,1.094,1.1028,1.1771,1.311,1.389,1.3926,1.505,1.5712,1.5712,1.5523,1.4943,1.3969,1.3285,1.3426,1.4275,1.3811,1.3787,1.4104,1.4129,1.4263,1.4518,0.0,0.0,0.0,0.0,0.0,0.0,0.0,0.0,0.0,0.0,0.0,0.0,0.0,0.0,0.0,0.0,0.0,0.0,0.0,0.0,0.0,0.0,0.0,0.0,0.0,0.0,0.0,0.0,0.0,0.0,0.0,0.0,0.0,0.0,0.0,0.0,0.0,0.0,0.0,0.0,0.0,1.3177,1.3423,0.0,0.0,0.0,0.0,0.0,0.0,0.0,0.0,0.0,0.0,0.0,0.0,0.0,0.0,1.4654,1.4666,1.4775,1.5004,1.5004,1.5004,1.5004,1.5004,1.5004,1.4992,1.4932,0.0,1.3833,1.3604,0.0,0.0,0.0,0.0,0.0,0.0,0.0,0.0,0.0,0.0,0.0,0.0,0.0,0.0,0.0,0.0,0.0,0.0,0.0,0.0,0.0,1.1198,1.0636,1.0506,1.0882,1.1323,1.1855,1.3159,1.3942,1.4158,1.5231,1.5784,1.5784,1.4997,1.4292,1.3656,1.3909,1.4276,1.4728,1.3866,1.3905,1.469,1.4004,1.4117,1.4815,1.4815,0.0,0.0,0.0,0.0,0.0,0.0,0.0,0.0,0.0,0.0,0.0,0.0,0.0,0.0,0.0,0.0,0.0,0.0,0.0,0.0,0.0,0.0,0.0,0.0,0.0,0.0,0.0,0.0,0.0,0.0,0.0,0.0,0.0,0.0,0.0,0.0,0.0,0.0,0.0,1.34,1.3435,1.3701,1.3833,1.3966,0.0,0.0,0.0,0.0,0.0,0.0,0.0,0.0,0.0,1.4751,1.4751,1.4811,1.4932,1.4932,1.469,1.4123,1.4123,1.4123,1.4123,1.4123,1.448,1.5113,1.5113,1.4908,1.4558,1.4304,1.4195,1.4171,0.0,0.0,0.0,0.0,0.0,1.3519,0.0,0.0,0.0,0.0,0.0,0.0,0.0,0.0,0.0,0.0,0.0,0.0,1.1714,1.1025,1.0506,1.0202,1.0834,1.1427,1.1914,1.3136,1.3968,1.4292,1.5248,1.5824,1.5939,1.4727,1.3921,1.3479,1.4072,1.448,1.4644,1.3806,1.4061,1.5139,1.4271,1.4328,1.5114,1.5126,1.5145,1.5177,0.0,0.0,0.0,0.0,0.0,0.0,0.0,0.0,0.0,0.0,0.0,0.0,0.0,0.0,0.0,0.0,0.0,0.0,0.0,0.0,0.0,0.0,0.0,0.0,0.0,0.0,0.0,0.0,0.0,0.0,0.0,0.0,0.0,0.0,0.0,0.0,0.0,1.3753,1.3713,1.3978,1.4002,1.4087,0.0,0.0,0.0,0.0,0.0,0.0,1.4799,1.4823,1.4908,1.5101,1.5173,1.5246,1.5306,1.5378,1.5024,1.4234,1.4234,1.4234,1.4234,1.4234,1.4717,1.5511,1.5511,1.5475,1.5378,1.498,1.4823,1.4799,1.4582,1.4389,1.422,1.422,1.4087,1.3918,0.0,0.0,0.0,0.0,0.0,0.0,0.0,0.0,0.0,0.0,0.0,1.1671,1.2528,1.0289,0.934,1.0832,1.0516,1.0675,1.165,1.3061,1.4016,1.4292,1.5248,1.5965,1.6295,1.5295,1.432,1.3427,1.272,1.272,1.3499,1.3448,1.4163,1.5493,1.543,1.5407,1.5462,1.5469,1.5602,1.5765,1.5484,0.0,0.0,0.0,0.0,0.0,0.0,0.0,0.0,0.0,0.0,0.0,0.0,0.0,0.0,0.0,0.0,0.0,0.0,0.0,0.0,0.0,0.0,0.0,0.0,0.0,0.0,0.0,0.0,0.0,0.0,0.0,0.0,0.0,0.0,0.0,0.0,0.0,0.0,1.4244,1.428,0.0,0.0,0.0,0.0,1.469,1.4932,1.5077,1.5089,1.5089,1.5101,1.5113,1.5354,1.5596,1.5849,1.6103,1.6356,1.651,1.651,1.651,1.651,1.651,1.6566,1.6622,1.6622,1.6465,1.6163,1.5403,1.5089,1.5089,1.5077,1.5065,1.504,1.504,1.504,1.5028,0.0,0.0,0.0,0.0,0.0,1.4082,1.4082,1.4082,1.4082,1.4082,1.3009,1.21,1.1843,1.0494,0.9607,0.9607,0.9641,0.9819,1.0198,1.2066,1.3162,1.327,1.5078,1.5758,1.502,1.4777,1.3975,1.2621,1.2534,1.3048,1.4137,1.3461,1.4243,1.6223,1.5541,1.5587,1.6253,1.5716,1.5641,1.5857,1.5555,1.553,0.0,0.0,0.0,0.0,0.0,0.0,0.0,0.0,0.0,0.0,0.0,0.0,0.0,0.0,0.0,0.0,0.0,0.0,0.0,0.0,0.0,0.0,0.0,0.0,0.0,0.0,0.0,0.0,0.0,0.0,0.0,0.0,0.0,0.0,0.0,0.0,0.0,1.4533,1.457,0.0,1.4799,1.4908,1.4968,1.4968,1.5209,1.5439,1.5608,1.5777,1.5946,1.6127,1.6223,1.632,1.6416,1.6501,1.6263,1.5614,1.5614,1.5614,1.5614,1.5614,1.6009,1.6706,1.6706,1.6646,1.6525,1.6247,1.5825,1.5354,1.5354,1.5258,1.5113,1.5113,1.5113,1.5113,0.0,0.0,0.0,0.0,0.0,1.4082,1.4082,1.4082,1.3997,1.3659,1.3094,1.2229,1.0982,1.0431,0.9804,0.8775,0.9059,0.9404,0.9779,1.154,1.2807,1.3333,1.4949,1.5331,1.4276,1.4237,1.3655,1.2412,1.2718,1.3506,1.4688,1.3994,1.4813,1.685,1.6089,1.6205,1.6978,1.6228,1.5956,1.6029,1.5818,1.5769,1.5784,0.0,0.0,0.0,0.0,0.0,0.0,0.0,0.0,0.0,0.0,0.0,0.0,0.0,0.0,0.0,0.0,0.0,0.0,0.0,0.0,0.0,0.0,0.0,0.0,0.0,0.0,0.0,0.0,0.0,0.0,0.0,0.0,0.0,0.0,0.0,1.4533,1.4811,1.4847,1.492,1.5089,1.527,1.5366,1.5366,1.5704,1.5982,1.6151,1.6332,1.6513,1.6694,1.6791,1.6827,1.6827,1.6923,1.6618,1.5852,1.5852,1.5852,1.5852,1.5852,1.6263,1.696,1.696,1.6911,1.6839,1.6923,1.6549,1.591,1.591,1.5801,1.5644,1.5644,1.5644,1.5632,0.0,0.0,0.0,0.0,0.0,1.4082,1.4082,1.4082,1.3786,1.2869,1.2699,1.2015,1.0159,1.0086,0.9768,0.8655,0.8832,0.9508,1.06,1.1646,1.2992,1.4604,1.4828,1.4682,1.4077,1.3712,1.3276,1.2785,1.3267,1.4009,1.505,1.505,1.5795,1.7223,1.7266,1.7378,1.7576,1.7057,1.6652,1.6362,1.6299,1.6112,1.5798,0.0,0.0,0.0,0.0,0.0,0.0,0.0,0.0,0.0,0.0,0.0,0.0,0.0,0.0,0.0,0.0,0.0,0.0,0.0,0.0,0.0,0.0,0.0,0.0,0.0,0.0,0.0,0.0,0.0,0.0,0.0,0.0,0.0,1.5097,1.4863,1.4835,1.5101,1.5125,1.5137,1.5161,1.562,1.591,1.591,1.6416,1.6718,1.6718,1.6718,1.6718,1.6718,1.6972,1.7105,1.7105,1.7358,1.7479,1.7479,1.7479,1.7479,1.7479,1.7479,1.7479,1.7479,1.7479,1.7334,1.7129,1.7382,1.7177,1.6718,1.6718,1.6706,1.6706,1.6706,1.6706,1.6658,0.0,0.0,0.0,1.4124,1.4082,1.4082,1.4082,1.4082,1.3997,1.3743,1.3137,1.2229,1.1068,1.0622,1.0297,1.0058,0.9675,1.0178,1.2004,1.1826,1.2264,1.3629,1.3498,1.3402,1.3361,1.3327,1.3187,1.2947,1.327,1.4184,1.5588,1.5696,1.6541,1.8071,1.8084,1.8107,1.8194,1.8066,1.7742,1.7181,1.6566,1.6223,1.6152,0.0,0.0,0.0,0.0,0.0,0.0,0.0,0.0,0.0,0.0,0.0,0.0,0.0,0.0,0.0,0.0,0.0,0.0,0.0,0.0,0.0,0.0,0.0,0.0,0.0,0.0,0.0,0.0,0.0,0.0,0.0,1.506,1.4813,1.4813,1.4933,1.5173,1.562,1.568,1.5825,1.6223,1.6392,1.6477,1.6477,1.6791,1.6984,1.6984,1.7165,1.7274,1.7274,1.7334,1.737,1.737,1.7443,1.7479,1.7479,1.7479,1.7479,1.7479,1.7479,1.7479,1.7479,1.7479,1.7443,1.7382,1.7455,1.7394,1.7249,1.7056,1.6863,1.6706,1.6706,1.6706,1.6694,0.0,0.0,0.0,1.4124,1.4082,1.4082,1.4082,1.4082,1.3955,1.3561,1.3392,1.2613,1.0895,1.094,1.0971,1.0648,1.0416,1.1217,1.3415,1.324,1.3348,1.3991,1.3593,1.3552,1.404,1.3846,1.3952,1.437,1.4597,1.5471,1.689,1.6973,1.7572,1.8577,1.8583,1.8691,1.8792,1.8741,1.8464,1.809,1.7305,1.6801,1.6446,1.6326,1.6166,1.6005,1.5872,1.5784,1.5784,1.5784,0.0,0.0,0.0,0.0,0.0,0.0,0.0,0.0,0.0,0.0,0.0,0.0,0.0,0.0,0.0,0.0,0.0,0.0,0.0,0.0,0.0,0.0,0.0,0.0,1.547,1.5241,1.535,1.5394,1.5596,1.6006,1.6163,1.6356,1.667,1.6803,1.6863,1.6863,1.7105,1.7249,1.7249,1.7406,1.7527,1.7648,1.7539,1.7539,1.7648,1.7539,1.7479,1.7479,1.7479,1.7479,1.7479,1.7479,1.7479,0.0,1.7479,1.7479,1.7479,1.7479,1.7479,0.0,0.0,0.0,0.0,0.0,1.7032,1.7008,0.0,0.0,0.0,1.4082,1.4082,1.4082,1.4082,1.4082,1.3786,1.2966,1.3574,1.3094,1.0506,1.1189,1.1629,1.1007,1.1096,1.2129,1.4406,1.5008,1.5203,1.4931,1.4375,1.4459,1.5298,1.4863,1.5145,1.6287,1.6576,1.7279,1.8415,1.8415,1.8648,1.8939,1.8939,1.9127,1.9403,1.9092,1.8958,1.8878,1.8262,1.7582,1.6767,1.6486,1.6375,1.6246,1.5979,1.5811,1.5784,1.5784,0.0,0.0,0.0,0.0,0.0,0.0,0.0,0.0,0.0,0.0,0.0,0.0,0.0,0.0,0.0,0.0,0.0,0.0,0.0,0.0,0.0,0.0,0.0,0.0,1.6099,1.6011,1.6283,1.6155,1.6115,1.6344,1.6585,1.6754,1.6791,1.6996,1.7141,1.7141,1.7358,1.7491,1.7527,0.0,0.0,0.0,0.0,1.7684,1.7913,1.7696,1.7563,1.7527,1.7527,1.7515,1.7479,1.7479,1.7479,1.7479,1.7479,1.7479,1.7479,1.7479,1.7479,1.7479,1.7479,1.7479,1.7479,1.7479,1.7479,0.0,0.0,0.0,1.4082,1.4082,1.4082,1.4082,1.4082,1.4082,1.4039,1.387,1.3997,1.3603,1.2314,1.1882,1.2036,1.2927,1.177,1.1745,1.3543,1.4327,1.4584,1.4266,1.3933,1.405,1.4594,1.5495,1.5986,1.6071,1.7372,1.8181,1.8415,1.8706,1.8997,1.9301,1.9301,1.9359,1.9417,1.9305,1.9145,1.8891,1.8544,1.8009,1.7382,1.7139,1.6737,1.6308,1.6206,1.6032,1.5784,1.5784,1.5784,1.5784,1.5784,1.5784,0.0,0.0,0.0,0.0,0.0,0.0,0.0,0.0,0.0,0.0,0.0,0.0,0.0,0.0,0.0,0.0,0.0,0.0,0.0,1.6574,1.6221,1.607,1.6555,1.6752,1.6875,1.6923,1.6984,1.7092,1.731,1.7382,1.7406,1.7406,1.7455,1.7575,1.7781,1.7793,0.0,1.8203,1.8167,1.8155,1.8215,1.8155,1.8022,1.7793,0.0,0.0,1.7479,1.7479,1.7479,1.7479,1.7479,1.7479,1.7479,1.7479,1.7479,1.7479,1.7479,1.7479,1.7479,1.7479,1.7479,1.7479,0.0,1.4531,1.4208,1.4124,1.4082,1.4082,1.4082,1.4082,1.4082,1.4082,1.4082,1.3743,1.2796,1.245,1.2661,1.3516,1.359,1.3765,1.4168,1.4675,1.5077,1.5229,1.521,1.5682,1.6643,1.742,1.7799,1.7689,1.8532,1.8894,1.8894,1.9068,1.9243,1.943,1.943,1.943,1.943,1.943,1.9279,1.9105,1.8664,1.8303,1.7969,1.7434,1.7018,1.6723,1.6429,1.6179,1.6032,1.5885,1.5784,1.5784,1.5784,1.5784,1.5784,0.0,0.0,0.0,0.0,0.0,0.0,0.0,0.0,0.0,0.0,0.0,0.0,0.0,0.0,1.6927,1.6927,0.0,1.6886,1.7292,1.6863,1.6725,1.7247,1.7207,1.7092,1.7092,1.7213,1.7334,1.7467,1.7479,1.7479,1.7479,1.7599,1.7732,1.7865,1.801,1.8203,1.8481,1.836,1.836,1.8493,1.836,1.8227,1.8082,1.7937,1.7805,1.7672,1.7539,1.7479,1.7479,1.7479,1.7479,1.7479,1.7479,1.7479,1.7479,1.7479,1.7479,1.7479,1.7479,1.7479,1.7479,0.0,0.0,1.4447,1.4208,1.4166,1.4166,1.4137,1.4082,1.4082,1.4082,1.4082,1.3828,1.3052,1.2935,1.3145,1.3562,1.5128,1.5905,1.5281,1.5501,1.5934,1.653,1.6944,1.7715,1.8861,1.9212,1.9372,1.9301,1.9372,1.9372,1.9301,1.9372,1.943,1.943,1.943,1.943,1.943,1.943,1.943,1.9377,1.8731,1.849,1.8397,1.7608,1.7246,1.7125,1.6603,1.6326,1.6233,1.5925,1.5784,1.5784,1.5784,1.5784,1.5798,1.5899,1.6086,0.0,0.0,0.0,0.0,0.0,0.0,0.0,0.0,0.0,1.6807,1.686,1.7061,1.7286,1.7286,1.7475,1.7649,1.7901,1.7531,1.7376,1.7831,1.7473,1.7165,1.7165,1.7358,1.7479,1.7479,1.7479,1.7479,1.7479,1.7732,1.7901,1.795,1.8215,1.8493,1.8758,1.8553,1.8553,1.8758,1.8553,1.842,1.836,1.8082,1.7925,1.7865,1.7599,1.7479,1.7479,1.7479,1.7479,1.7479,1.7479,1.7479,1.7479,1.7479,1.7479,1.7479,1.7479,1.7479,1.7479,0.0,0.0,0.0,1.4447,1.4349,1.4321,1.4124,1.4082,1.4082,1.4082,1.4082,1.4039,1.3955,1.3204,1.2952,1.3537,1.4779,1.5678,1.6139,1.6394,1.6803,1.7437,1.802,1.8512,1.8918,1.9212,1.9243,1.8939,1.9243,1.9243,1.8939,1.9243,1.943,1.943,1.943,1.943,1.943,1.943,1.943,1.9377,1.8731,1.849,1.8424,1.7782,1.742,1.7152,1.678,1.6486,1.6233,1.5925,1.5784,1.5784,1.5784,1.5784,1.5885,1.6152,1.6246,1.6326,1.658,1.6687,1.67,1.67,1.67,1.678,0.0,0.0,1.7219,1.7435,1.7515,1.7542,1.7542,1.7569,1.7618,1.7644,1.7588,1.7521,1.7526,1.7518,1.7443,1.7443,1.7467,1.7479,1.7479,1.7479,1.7479,1.7479,1.7732,1.7986,1.8227,1.8493,1.8758,1.9024,1.9,1.9,1.9024,1.9,1.8867,1.8638,1.8372,1.8118,1.7865,1.7599,1.7479,1.7479,1.7479,1.7479,1.7479,1.7479,1.7479,1.7479,1.7479,1.7479,1.7479,1.7479,1.7479,1.7479,0.0,0.0,0.0,1.4866,1.4699,1.4531,1.4321,1.4279,1.4237,1.4124,1.4082,1.4082,1.4082,1.3887,1.3865,1.4096,1.4897,1.5565,1.5992,1.6446,1.6967,1.7555,1.7996,1.837,1.8664,1.8958,1.9048,1.892,1.9221,1.9301,1.9185,1.9301,1.943,1.943,1.943,1.9265,1.9105,1.9105,1.9011,1.8824,1.8397,1.8237,1.817,1.7555,1.73,1.7166,1.6807,1.6513,0.0,0.0,1.5784,1.5811,1.6032,1.6086,1.6152,1.6433,1.6647,1.6898,1.7141,1.7221,1.7221,1.7221,1.7221,1.7248,1.742,1.7447,1.7435,1.7555,1.7582,1.7635,1.7822,1.7741,1.7707,0.0,1.7786,1.76,1.7762,1.7652,1.7479,1.7479,1.7479,1.7479,1.7479,1.7479,1.7539,1.7696,1.7962,1.8239,1.8505,1.877,1.8963,1.9072,1.9072,1.9072,1.9072,1.9072,1.9024,1.8903,1.8493,1.8227,1.8106,1.7672,1.7479,1.7479,1.7479,1.7479,1.7479,1.7479,1.7479,1.7479,1.7479,1.7479,1.7479,1.7479,1.7479,1.7479,0.0,0.0,0.0,1.5215,1.5033,1.4783,1.4517,1.4433,1.4363,1.4208,1.4124,1.4082,1.4082,1.4269,1.4429,1.4466,1.491,1.5311,1.5685,1.6179,1.6687,1.7194,1.7675,1.8023,1.8237,1.8611,1.8811,1.8811,1.9025,1.9132,1.9132,1.9132,1.9132,1.9132,1.9132,1.9011,1.8811,1.8811,1.8677,1.8464,1.8076,1.7862,1.7849,1.7248,1.7032,1.6924,1.666,1.6446,0.0,0.0,1.5838,1.5992,1.6206,1.6326,1.6446,1.674,1.7034,1.7367,1.7528,1.7582,1.7582,1.7582,1.7582,1.7582,1.7582,1.7582,1.7582,1.7582,1.7582,1.7675,1.7875,1.7777,1.7822,1.8089,1.7842,1.7679,1.7818,1.7667,1.7479,1.7479,1.7479,1.7479,1.7479,1.7479,1.7563,1.7756,1.8094,1.8372,1.8565,1.8891,1.9072,1.9072,1.9072,1.9072,1.9072,1.9072,1.9036,1.8963,1.8505,1.8251,1.8155,1.7696,1.7479,1.7479,1.7479,1.7479,1.7479,1.7479,1.7479,1.7479,1.7479,1.7479,1.7479,1.7479,1.7479,1.7479,0.0,0.0,0.0,0.0,1.5382,1.5215,1.4783,1.4517,1.4391,1.4391,1.4208,1.4082,1.4082,1.4095,1.4215,1.4496,1.4536,1.479,1.5364,1.5685,1.5992,1.6299,1.7141,1.7595,1.7609,1.8196,1.8504,1.8504,1.8517,1.8517,1.8517,1.8517,1.8517,1.8517,1.8517,1.8517,1.8504,1.8504,1.8504,1.8437,1.7836,1.7595,1.7528,1.6941,1.654,1.6348,1.6335,0.0,0.0,0.0,1.6019,1.6308,1.6321,1.6473,0.0,1.7099,1.7393,1.7569,1.7582,1.7582,1.7582,1.7582,1.7582,1.7582,1.7582,1.7582,1.7582,1.7582,1.7582,1.7622,1.7592,1.7825,1.7888,1.7571,1.7786,1.7901,1.7537,1.7479,1.7479,1.7479,1.7479,1.7479,0.0,1.7479,1.7491,1.7491,1.7986,1.83,1.8312,1.8794,1.9072,1.9072,1.9072,1.9072,1.9072,1.9072,1.8951,1.8698,1.842,1.8155,1.7877,1.7612,1.7479,1.7479,1.7479,1.7479,1.7479,1.7479,1.7479,1.7479,1.7479,1.7479,1.7479,1.7479,1.7479,1.7479,0.0,0.0,0.0,0.0,0.0,1.534,1.5173,1.4992,1.4783,1.4615,1.4405,0.0,0.0,0.0,0.0,0.0,1.4402,1.4603,1.4803,1.5458,1.5872,1.5979,1.6633,1.7007,1.7007,1.7582,1.7889,1.7889,1.829,1.849,1.849,1.849,1.849,1.849,1.849,1.8263,1.7889,1.7889,1.7662,1.7288,1.7088,1.7007,1.6954,1.6567,1.6366,1.6246,0.0,0.0,0.0,0.0,0.0,1.6348,1.65,1.6767,1.7112,1.7407,1.7502,1.7582,1.7582,1.7582,1.7582,1.7582,1.7582,1.7582,1.7582,1.7582,1.7582,1.7582,1.7582,1.7742,1.8141,1.7913,1.7853,1.8372,1.8189,1.8031,1.8064,1.796,1.7843,1.7843,1.7667,0.0,0.0,0.0,0.0,1.7998,1.8191,1.8444,1.8794,1.8976,1.9072,1.9072,1.9072,1.9072,1.9072,1.8903,1.877,1.8674,1.8227,1.7877,1.7612,1.7527,1.7479,1.7479,1.7479,1.7479,1.7479,1.7479,1.7479,1.7479,1.7479,1.7479,1.7479,1.7479,1.7479,1.7479,0.0,0.0,0.0,0.0,0.0,0.0,0.0,0.0,0.0,0.0,0.0,0.0,0.0,0.0,0.0,0.0,0.0,1.4402,1.4466,1.4998,1.5404,1.5511,1.6086,1.6393,1.6393,1.6967,1.7275,1.7275,1.7662,1.7849,1.7849,1.7849,1.7849,1.7849,1.7849,1.7635,1.7275,1.7275,1.7048,1.67,1.6593,1.6553,1.6513,1.6233,1.6112,0.0,0.0,0.0,0.0,0.0,1.6099,1.646,1.6647,1.6981,1.7393,1.7528,1.7582,1.7582,1.7582,1.7582,1.7582,1.7582,1.7582,1.7582,1.7582,1.7582,1.7582,1.7582,1.7582,1.7769,1.8205,1.7978,1.7935,1.8616,1.8428,1.8194,1.8252,1.8089,1.7972,1.7843,1.7608,1.7479,0.0,0.0,0.0,1.7974,1.8179,1.8444,1.8782,1.8976,1.9072,1.9072,1.9072,1.9024,1.8939,1.877,1.8589,1.8384,1.795,1.7648,1.7479,1.7479,1.7479,1.7479,1.7479,1.7479,1.7479,1.7479,1.7479,1.7479,1.7479,1.7479,1.7479,1.7479,1.7479,1.7479,0.0,0.0,0.0,0.0,0.0,0.0,0.0,0.0,0.0,0.0,0.0,0.0,0.0,0.0,0.0,0.0,0.0,0.0,1.4482,1.4466,0.0,1.4981,1.5484,1.5792,1.5758,1.6366,1.6673,1.6687,1.67,1.67,1.67,1.67,1.67,1.67,1.67,1.67,1.6687,1.6687,1.6673,1.6633,1.6366,1.6246,1.6219,1.5939,0.0,0.0,0.0,0.0,0.0,0.0,1.6219,1.6714,1.6727,1.7128,1.7582,1.7582,1.7582,1.7582,1.7582,1.7582,1.7582,1.7582,1.7582,1.7582,1.7582,1.7582,1.7582,1.7582,1.7582,1.7702,0.0,0.0,1.8091,1.8371,1.8415,1.8311,1.8089,1.8031,1.7901,0.0,0.0,0.0,0.0,0.0,0.0,1.7562,0.0,1.83,1.8312,1.8794,1.9072,1.9072,1.9072,1.8951,1.8686,1.865,1.8372,1.7853,1.7599,1.7479,1.7479,1.7479,1.7479,1.7479,1.7479,1.7479,1.7479,1.7479,1.7479,1.7479,1.7479,1.7479,1.7479,1.7479,1.7479,1.7479,0.0,0.0,0.0,0.0,0.0,0.0,0.0,0.0,0.0,0.0,0.0,0.0,0.0,0.0,0.0,0.0,0.0,0.0,1.4188,0.0,0.0,0.0,0.0,0.0,0.0,0.0,0.0,1.638,1.6607,1.67,1.67,1.67,1.67,1.67,1.67,1.658,1.638,1.638,1.6259,1.5997,0.0,1.5939,1.5939,0.0,0.0,0.0,0.0,0.0,0.0,0.0,1.6219,1.674,1.6967,1.734,1.7582,1.7582,1.7582,1.7582,1.7582,1.7582,1.7582,1.7582,1.7582,1.7582,1.7582,1.7582,1.7582,1.7582,1.7582,1.7702,0.0,0.0,0.0,1.8687,1.8577,0.0,1.8648,1.8252,0.0,1.7901,0.0,1.7608,1.7843,1.7667,0.0,0.0,1.8398,1.8384,1.8577,1.8891,1.9072,1.9072,1.9072,1.8951,1.8686,1.8287,1.7913,1.7575,1.7515,1.7479,1.7479,1.7479,1.7479,1.7479,1.7479,1.7479,1.7479,1.7479,1.7479,1.7479,1.7479,1.7479,1.7479,1.7479,1.7479,1.7479,0.0,0.0,0.0,0.0,0.0,0.0,0.0,0.0,0.0,0.0,0.0,0.0,0.0,0.0,0.0,0.0,0.0,0.0,0.0,0.0,0.0,0.0,0.0,0.0,0.0,0.0,0.0,0.0,0.0,0.0,1.6326,1.6326,1.6326,1.6326,1.6326,1.6233,1.6072,1.6072,0.0,0.0,0.0,0.0,0.0,0.0,0.0,0.0,0.0,0.0,0.0,0.0,0.0,1.6593,1.7072,1.7313,1.7474,1.7542,1.7582,1.7582,1.7582,1.7582,1.7582,1.7582,1.7582,1.7582,1.7582,1.7582,1.7582,1.7582,1.7582,1.7675,1.7942,1.8112,1.8292,0.0,0.0,0.0,1.8544,1.8194,1.7972,0.0,1.7843,0.0,1.8135,1.813,1.8255,0.0,1.8447,1.847,1.8912,1.9054,1.9072,1.9072,1.8963,1.8722,1.8336,1.7913,1.7624,1.7479,1.7479,1.7479,1.7479,1.7479,1.7479,1.7479,0.0,1.7479,1.7479,1.7479,1.7479,1.7479,1.7479,1.7479,1.7479,1.7479,1.7479,1.7479,0.0,0.0,0.0,0.0,0.0,0.0,0.0,0.0,0.0,0.0,1.5257,1.5131,0.0,0.0,0.0,0.0,0.0,0.0,0.0,0.0,0.0,0.0,0.0,0.0,0.0,0.0,0.0,0.0,0.0,0.0,0.0,0.0,0.0,0.0,0.0,0.0,0.0,0.0,0.0,0.0,0.0,0.0,0.0,0.0,0.0,0.0,0.0,0.0,0.0,0.0,1.6019,1.6415,1.6965,1.7166,1.7259,1.7502,1.7582,1.7582,1.7582,1.7582,1.7582,1.7582,1.7582,1.7582,1.7582,1.7582,1.7582,1.7582,1.7582,1.7662,1.7876,1.8263,1.8459,1.8403,0.0,1.8706,1.8194,1.8089,1.8031,1.8031,1.8031,1.8135,1.8415,1.8669,1.874,1.8599,1.8435,1.8568,1.91,1.9118,1.906,1.9024,1.8734,1.8348,1.7877,1.7612,1.7479,1.7479,1.7479,1.7479,1.7479,1.7479,1.7479,1.7479,0.0,0.0,1.7479,1.7479,1.7479,1.7479,1.7479,1.7479,1.7479,1.7479,1.7479,1.7479,0.0,0.0,0.0,0.0,0.0,0.0,0.0,0.0,0.0,0.0,1.5382,1.5257,0.0,0.0,0.0,0.0,0.0,0.0,0.0,0.0,0.0,0.0,0.0,0.0,0.0,0.0,0.0,0.0,0.0,0.0,0.0,0.0,0.0,0.0,0.0,0.0,0.0,0.0,0.0,0.0,0.0,0.0,0.0,0.0,0.0,0.0,0.0,0.0,0.0,0.0,1.6019,1.6375,1.6673,1.7005,1.7259,1.7502,1.7582,1.7582,1.7582,1.7582,1.7582,1.7582,1.7582,1.7582,1.7582,1.7582,0.0,1.7582,1.7582,1.7595,1.7649,1.8116,1.8504,1.8502,1.8713,1.8881,1.8765,1.8532,1.8298,0.0,1.8298,1.8473,1.8765,1.8623,0.0,0.0,0.0,1.87,1.8811,1.8991,1.8976,1.8758,1.8275,1.7962,1.7877,1.7612,1.7479,1.7479,1.7479,1.7479,1.7479,1.7479,1.7479,1.7479,0.0,0.0,1.7479,1.7479,1.7479,1.7479,1.7479,1.7479,1.7479,1.7479,1.7479,1.7479,0.0,0.0,0.0,0.0,0.0,0.0,0.0,1.7472,1.7715,1.6878,1.6755,1.6345,1.5382,1.5029,1.4862,0.0,0.0,0.0,0.0,0.0,0.0,0.0,0.0,0.0,0.0,0.0,0.0,0.0,0.0,0.0,0.0,0.0,0.0,0.0,0.0,0.0,0.0,0.0,0.0,0.0,0.0,0.0,0.0,0.0,0.0,0.0,0.0,0.0,0.0,0.0,1.5925,1.6126,1.6567,1.6807,1.7007,1.7448,1.7582,1.7582,1.7582,1.7582,1.7582,1.7582,1.7582,1.7582,1.7582,0.0,0.0,1.7582,1.7582,1.7582,1.7582,1.8076,1.8435,1.8255,1.8617,1.8823,1.8648,1.8473,1.8473,1.8648,1.8532,1.8596,0.0,1.8958,0.0,0.0,0.0,1.9196,1.9196,1.9006,1.8758,1.8493,1.8082,1.7805,1.7672,1.7539,1.7479,1.7479,1.7479,1.7479,1.7479,1.7479,1.7479,1.7479,1.7479,0.0,1.7479,1.7479,1.7479,1.7479,1.7479,1.7479,1.7479,1.7479,1.7479,1.7479,0.0,0.0,0.0,0.0,0.0,0.0,1.8037,1.8318,1.8439,1.8037,1.8158,1.7691,1.6113,1.536,1.4988,0.0,0.0,0.0,0.0,0.0,0.0,0.0,0.0,0.0,0.0,0.0,0.0,0.0,0.0,0.0,0.0,0.0,0.0,0.0,0.0,0.0,0.0,0.0,0.0,0.0,0.0,0.0,0.0,0.0,0.0,0.0,0.0,0.0,0.0,0.0,1.5784,1.5925,1.6446,1.666,1.6807,1.7328,1.7528,1.7582,1.7582,1.7582,1.7582,1.7582,1.7582,1.7582,1.7582,1.7582,1.7582,1.7582,1.7582,1.7582,1.7582,1.8023,1.83,0.0,1.8564,1.8816,1.8648,1.8603,1.8719,0.0,1.8706,0.0,1.9148,1.9171,0.0,0.0,0.0,0.0,1.9433,1.8923,1.8481,1.8215,1.7937,1.7755,1.7608,1.7608,1.7655,1.7713,1.7655,1.7608,1.7608,1.7537,1.7479,1.7479,1.7479,0.0,0.0,1.7479,1.7479,1.7479,1.7479,1.7479,1.7479,1.7479,1.7479,1.7479,0.0,0.0,0.0,0.0,0.0,0.0,1.8118,1.9353,1.9805,1.8198,1.8696,1.8816,1.7876,1.6741,1.5753,0.0,0.0,0.0,0.0,0.0,0.0,0.0,0.0,0.0,0.0,0.0,0.0,0.0,0.0,0.0,0.0,0.0,0.0,0.0,0.0,0.0,0.0,0.0,0.0,0.0,0.0,0.0,0.0,0.0,0.0,0.0,0.0,0.0,0.0,0.0,0.0,1.5838,1.6206,1.6486,1.6767,1.7139,0.0,0.0,1.7582,1.7582,1.7582,1.7582,1.7582,1.7582,1.7582,0.0,1.7582,1.7582,1.7582,1.7582,1.7582,1.7862,1.8115,1.8395,1.8701,1.8994,1.9274,1.9314,1.9301,1.9359,0.0,0.0,1.892,0.0,0.0,0.0,0.0,0.0,0.0,1.8469,1.8203,1.7925,1.766,1.7691,1.7972,1.7972,1.8077,1.8298,1.8077,1.7972,1.7972,1.7667,1.7479,1.7479,0.0,0.0,0.0,1.7479,1.7479,1.7479,1.7479,1.7479,1.7479,1.7479,1.7479,1.7479,0.0,0.0,0.0,0.0,0.0,0.0,1.9608,2.0157,2.0352,1.9648,1.9883,1.9726,1.8895,1.7972,1.6961,1.5777,1.4909,0.0,0.0,0.0,0.0,0.0,0.0,0.0,0.0,0.0,1.4786,1.5828,1.5942,0.0,0.0,0.0,0.0,0.0,0.0,0.0,0.0,1.6433,0.0,0.0,0.0,0.0,0.0,0.0,0.0,0.0,0.0,0.0,0.0,0.0,0.0,0.0,1.5965,1.6206,0.0,0.0,1.7286,1.7407,1.7542,1.7582,1.7582,1.7582,1.7582,1.7582,1.7582,0.0,1.7582,1.7582,1.7582,1.7582,1.7582,1.7836,1.8089,1.8437,1.8731,0.0,1.9332,1.943,1.943,1.943,1.9113,0.0,0.0,0.0,0.0,0.0,0.0,0.0,0.0,1.8386,1.8167,1.7889,1.7624,1.755,1.7726,1.7914,1.8031,1.8135,1.8194,1.8252,1.8252,1.796,1.7784,1.7784,0.0,0.0,0.0,1.7479,1.7479,1.7479,1.7479,1.7479,1.7479,1.7479,1.7479,1.7479,0.0,0.0,0.0,0.0,0.0,2.0605,2.0605,2.0605,2.0605,2.0605,2.0605,2.0314,1.9558,1.892,1.8006,1.6706,1.537,0.0,0.0,0.0,0.0,0.0,0.0,0.0,0.0,0.0,1.5503,1.677,1.6521,1.6682,0.0,0.0,0.0,0.0,0.0,0.0,0.0,0.0,0.0,0.0,0.0,0.0,0.0,0.0,0.0,0.0,0.0,0.0,0.0,0.0,0.0,1.6197,1.5879,0.0,0.0,0.0,1.7125,1.7259,1.7554,1.7582,1.7582,1.7582,1.7582,1.7582,1.7582,0.0,1.7582,1.7582,1.7582,1.7582,1.7582,1.7756,1.8036,1.8424,1.8664,1.8931,1.9319,1.943,1.943,0.0,0.0,0.0,0.0,0.0,0.0,0.0,0.0,0.0,0.0,1.8434,1.8167,1.7768,1.7575,1.7596,1.7772,1.8018,1.8206,1.844,1.8486,1.8532,1.8532,1.8252,1.8135,1.8077,0.0,0.0,0.0,1.7772,1.7713,1.7667,1.7667,1.7608,1.7479,1.7479,1.7479,1.7479,0.0,0.0,0.0,0.0,0.0,2.0605,2.0605,2.0605,2.0605,2.0605,2.0605,2.0429,1.9923,1.9531,1.8795,1.7568,1.5366,0.0,0.0,0.0,0.0,0.0,0.0,0.0,0.0,0.0,1.7006,1.7676,1.6741,1.6637,1.7279,1.6292,1.5832,1.5832,0.0,0.0,0.0,0.0,1.7279,0.0,0.0,0.0,0.0,0.0,0.0,0.0,0.0,0.0,0.0,0.0,0.0,0.0,0.0,1.5784,1.5904,1.654,1.6914,1.7259,1.7554,1.7582,1.7582,1.7582,1.7582,1.7582,1.7582,1.7582,1.7582,1.7582,1.7582,1.7582,1.7582,1.7582,1.7782,1.8397,1.849,0.0,1.9336,1.943,1.943,0.0,0.0,0.0,0.0,0.0,0.0,0.0,0.0,0.0,0.0,1.8728,1.8126,1.7491,1.7479,1.7772,1.8357,1.8415,1.8719,1.9372,1.9055,1.8881,1.8881,1.8532,1.8415,0.0,0.0,0.0,0.0,1.8415,1.8252,1.7972,1.7972,1.7784,1.7479,1.7479,1.7479,1.7479,0.0,0.0,0.0,0.0,0.0,0.0,2.0605,2.0605,2.0605,2.0605,2.0312,2.0078,1.9941,1.9241,1.8469,1.7585,1.6084,0.0,0.0,0.0,0.0,0.0,0.0,0.0,0.0,1.6571,1.7381,1.8741,1.7731,1.7608,1.8288,1.7326,1.681,1.6857,1.7138,1.7699,0.0,1.9072,1.933,0.0,0.0,0.0,0.0,0.0,0.0,0.0,0.0,0.0,0.0,0.0,0.0,0.0,0.0,0.0,0.0,1.6299,1.662,1.6914,1.7259,1.7487,1.7582,1.7582,1.7582,1.7582,1.7582,1.7582,1.7582,1.7582,1.7582,1.7582,1.7582,1.7582,1.7782,1.8397,1.849,0.0,0.0,0.0,0.0,1.943,0.0,0.0,0.0,0.0,0.0,0.0,0.0,0.0,0.0,1.8836,1.8458,1.7843,1.7843,1.7901,1.8135,1.8532,1.8823,1.9055,1.9185,1.9243,1.9243,1.8881,0.0,0.0,0.0,0.0,0.0,1.8415,1.8369,1.8252,1.8252,1.8194,1.8123,1.8123,1.8018,1.7843,0.0,0.0,0.0,0.0,0.0,0.0,2.0605,2.0605,2.0605,2.0605,2.0195,1.9844,1.9687,1.9026,1.8363,1.7734,1.6738,0.0,0.0,0.0,0.0,0.0,0.0,0.0,1.7097,1.7489,1.8333,1.9699,1.8337,1.8274,1.9347,1.7963,1.7512,1.787,1.8241,1.8796,0.0,2.0014,2.0076,1.9621,0.0,0.0,1.9422,0.0,0.0,0.0,0.0,0.0,0.0,0.0,0.0,0.0,0.0,0.0,0.0,0.0,1.6313,1.6633,1.7085,1.742,1.7582,1.7582,1.7582,1.7582,1.7582,1.7582,1.7582,1.7582,1.7582,1.7582,1.7582,1.7582,1.7782,1.8397,1.849,1.8691,0.0,0.0,0.0,1.943,0.0,0.0,0.0,0.0,0.0,0.0,0.0,0.0,0.0,0.0,1.8706,1.8369,1.8194,1.8194,1.8311,1.8706,1.8939,1.9113,1.9301,1.943,1.9372,1.9185,0.0,0.0,0.0,0.0,0.0,1.8777,1.8706,1.859,1.859,1.8532,1.8415,1.8415,1.8311,1.8194,0.0,0.0,0.0,0.0,0.0,0.0,0.0,2.0566,2.0546,2.0507,2.0098,1.9668,1.9277,1.8848,1.8403,1.8047,1.7354,0.0,0.0,0.0,0.0,0.0,0.0,0.0,1.8669,1.9109,1.9732,2.0521,1.8629,1.8599,2.0257,1.8288,1.7917,1.8934,1.9877,2.0348,2.0393,2.0348,1.9803,1.9026,1.8934,1.953,0.0,0.0,0.0,0.0,0.0,0.0,0.0,0.0,0.0,0.0,0.0,0.0,0.0,0.0,0.0,0.0,0.0,1.738,1.7555,1.7582,1.7582,1.7582,1.7582,1.7582,0.0,1.7582,1.7582,1.7582,1.7582,1.7582,1.7782,1.8397,1.849,1.8691,0.0,1.943,0.0,0.0,0.0,0.0,0.0,0.0,0.0,0.0,0.0,0.0,0.0,0.0,1.8939,1.8939,1.8648,1.859,1.8881,1.8939,1.9113,1.943,1.943,1.943,1.943,1.943,0.0,0.0,0.0,0.0,0.0,1.943,1.9243,1.8939,1.8939,1.8765,1.8473,1.8473,1.8473,1.8415,0.0,0.0,0.0,0.0,0.0,0.0,0.0,0.0,0.0,0.0,1.9199,1.887,1.8773,1.8383,1.8091,0.0,0.0,0.0,0.0,0.0,0.0,0.0,0.0,0.0,1.8471,1.9335,1.9985,2.0521,1.9635,1.9573,2.0257,1.9026,1.8964,1.9985,2.0212,2.0709,2.1311,2.0619,2.0574,2.0952,2.0257,2.0529,0.0,0.0,0.0,0.0,2.1687,2.1687,0.0,0.0,0.0,0.0,0.0,0.0,0.0,0.0,1.656,1.7378,1.6914,0.0,1.7353,1.7528,1.7582,1.7582,0.0,1.7582,1.7582,1.7582,1.7582,1.7582,1.7582,1.7582,1.7782,1.8397,1.849,1.8691,1.9336,0.0,0.0,0.0,0.0,0.0,0.0,0.0,0.0,0.0,0.0,0.0,0.0,0.0,1.9301,1.9301,1.9185,1.9068,1.8881,1.9127,1.9301,1.943,1.943,1.943,1.943,1.943,0.0,0.0,0.0,0.0,1.943,1.943,1.9359,1.9301,1.9301,1.9243,1.9185,1.9185,1.901,1.8823,0.0,0.0,0.0,0.0,0.0,0.0,0.0,0.0,0.0,0.0,1.887,1.8598,1.8598,1.8227,1.8008,0.0,0.0,0.0,0.0,0.0,0.0,0.0,0.0,1.8453,1.8526,1.9442,2.0076,2.0521,1.9957,2.012,2.0907,1.994,2.0031,2.0952,2.0952,2.1221,2.1687,2.1177,2.1221,2.1642,2.1132,0.0,0.0,0.0,0.0,0.0,2.1687,2.1687,0.0,2.0619,2.0574,2.0574,0.0,0.0,0.0,0.0,1.6985,1.7452,1.6878,1.6927,1.7273,1.7515,1.7582,1.7582,1.7582,1.7582,1.7582,1.7582,1.7582,1.7582,1.7582,1.7702,1.7943,0.0,1.8597,0.0,0.0,0.0,0.0,0.0,0.0,0.0,0.0,0.0,0.0,0.0,0.0,0.0,0.0,0.0,1.943,1.943,1.943,1.9301,1.9113,1.9301,1.943,1.943,1.943,1.943,1.943,1.943,0.0,0.0,0.0,0.0,1.943,1.943,1.943,1.943,1.943,1.943,1.943,1.943,1.9301,1.9185,0.0,0.0,0.0,0.0,0.0,0.0,0.0,0.0,0.0,0.0,0.0,0.0,0.0,0.0,0.0,0.0,0.0,0.0,0.0,0.0,0.0,0.0,1.8302,1.8527,1.8744,1.9567,2.0149,2.0521,2.0157,2.0589,2.1687,2.0907,2.0952,2.1687,2.1687,2.1687,2.1687,2.1687,2.1687,2.1687,2.1687,0.0,0.0,0.0,0.0,0.0,0.0,0.0,0.0,2.0754,2.1042,2.1374,1.9575,0.0,0.0,0.0,0.0,0.0,1.7267,1.7291,1.736,1.7554,1.7582,1.7582,1.7582,1.7582,1.7582,1.7582,1.7582,1.7595,0.0,1.7862,0.0,0.0,0.0,0.0,0.0,0.0,0.0,0.0,0.0,0.0,0.0,0.0,0.0,0.0,0.0,0.0,0.0,0.0,0.0,1.943,1.943,1.943,1.943,1.943,1.943,1.943,1.943,1.943,1.943,1.943,0.0,0.0,0.0,0.0,1.943,1.943,1.943,1.943,1.943,1.943,1.943,1.943,1.943,1.943,0.0,0.0,0.0,0.0,0.0,0.0,0.0,0.0,0.0,0.0,0.0,0.0,0.0,0.0,0.0,0.0,0.0,0.0,0.0,0.0,0.0,1.8358,1.8378,1.8564,1.8954,1.9924,2.0466,2.0521,2.1098,2.1498,2.1687,2.1553,2.1553,2.1687,2.1687,2.1687,2.1687,2.1687,2.1687,2.1687,2.1687,0.0,0.0,0.0,0.0,0.0,0.0,0.0,0.0,2.1553,2.1597,2.1508,2.0393,0.0,0.0,0.0,0.0,0.0,1.9429,1.8701,1.796,1.7657,1.7582,1.7582,1.7582,1.7582,1.7582,1.7582,0.0,0.0,0.0,1.7955,1.8169,0.0,0.0,0.0,0.0,0.0,0.0,0.0,0.0,0.0,0.0,0.0,0.0,0.0,0.0,0.0,0.0,0.0,0.0,1.943,1.943,1.943,1.943,1.943,1.943,1.943,1.943,1.943,1.943,1.943,1.943,0.0,0.0,1.943,1.943,1.943,1.943,1.943,1.943,1.943,1.943,1.943,1.943,1.943,0.0,0.0,0.0,0.0,0.0,0.0,0.0,0.0,0.0,0.0,0.0,0.0,0.0,0.0,0.0,0.0,0.0,0.0,0.0,0.0,1.8297,1.8864,1.888,1.906,1.9485,2.0159,2.0631,2.0833,2.1394,2.1687,2.1687,2.1687,2.1687,2.1687,2.1687,2.1687,2.1687,2.1687,2.1687,2.1687,0.0,0.0,0.0,0.0,0.0,0.0,0.0,0.0,0.0,0.0,2.1687,2.1642,2.1177,0.0,0.0,0.0,0.0,0.0,1.991,1.8999,1.8238,1.841,1.8042,1.7582,1.7582,1.7582,1.7582,1.7582,0.0,0.0,0.0,0.0,1.8664,1.9092,0.0,0.0,0.0,0.0,0.0,0.0,0.0,0.0,0.0,0.0,0.0,0.0,0.0,0.0,0.0,0.0,0.0,0.0,1.943,1.943,1.943,1.943,1.943,1.943,1.943,1.943,1.943,1.943,1.943,1.943,0.0,1.943,1.943,1.943,1.943,1.943,1.943,1.943,1.943,1.943,1.943,1.943,0.0,0.0,0.0,0.0,0.0,0.0,0.0,0.0,0.0,0.0,0.0,0.0,0.0,0.0,0.0,0.0,0.0,0.0,0.0,1.8252,1.8449,1.926,1.9496,1.9684,1.9893,2.0453,2.0839,2.1108,2.1574,2.1776,2.1687,2.1687,2.1687,2.1687,2.1687,2.1687,2.1687,2.1687,2.1687,2.1687,0.0,0.0,0.0,0.0,0.0,0.0,0.0,0.0,0.0,0.0,0.0,0.0,0.0,0.0,0.0,2.0862,2.0689,2.0715,2.0564,1.9648,1.8875,1.9749,1.876,1.7582,1.7582,1.7582,1.7609,1.7675,0.0,0.0,0.0,1.8677,0.0,1.939,0.0,0.0,0.0,0.0,0.0,0.0,0.0,0.0,0.0,0.0,0.0,0.0,0.0,0.0,0.0,0.0,0.0,0.0,1.943,1.943,1.943,1.943,1.943,1.943,1.943,1.943,1.943,1.943,1.943,1.943,1.943,1.943,1.943,1.943,1.943,1.943,1.943,1.943,1.943,1.943,1.943,1.943,0.0,0.0,0.0,0.0,0.0,0.0,0.0,0.0,0.0,0.0,0.0,0.0,0.0,0.0,0.0,0.0,0.0,0.0,0.0,1.8718,1.901,1.9279,2.0053,2.0304,1.9934,2.0898,2.1349,2.1108,2.175,2.1909,2.1687,2.1687,2.1687,2.1687,2.1687,2.1687,2.1687,2.1687,2.1687,2.1687,2.1687,0.0,0.0,0.0,0.0,0.0,0.0,0.0,0.0,0.0,0.0,0.0,0.0,0.0,2.1687,2.1642,2.1853,2.2235,2.2579,2.1451,2.05,2.1912,1.9901,1.7582,1.7582,1.7582,1.7662,1.7902,1.7982,0.0,0.0,1.9118,0.0,0.0,0.0,0.0,0.0,0.0,0.0,0.0,0.0,0.0,0.0,0.0,0.0,0.0,0.0,0.0,0.0,0.0,0.0,0.0,0.0,1.943,1.943,1.943,1.943,1.943,1.943,1.943,1.943,1.943,1.943,1.943,1.943,1.943,1.943,1.943,1.943,1.943,1.943,1.943,1.943,1.943,1.943,1.943,0.0,0.0,0.0,0.0,0.0,0.0,0.0,0.0,0.0,0.0,0.0,1.8008,1.8008,0.0,0.0,0.0,0.0,0.0,0.0,1.9084,1.9392,1.9889,2.059,2.0821,2.0449,2.1131,2.1584,2.1713,2.1791,2.1776,2.1687,2.1687,2.1687,2.1687,2.1687,2.1687,2.1687,2.1687,2.1687,2.1687,2.1687,2.1687,0.0,0.0,0.0,0.0,0.0,0.0,0.0,0.0,2.1687,2.1687,2.1687,2.1687,2.1687,2.1687,2.1961,2.2382,2.2785,2.2097,2.1478,2.2332,2.103,1.9642,1.9642,1.9859,1.9828,1.9163,1.9396,0.0,0.0,0.0,0.0,0.0,0.0,0.0,0.0,0.0,0.0,0.0,0.0,0.0,0.0,0.0,0.0,0.0,0.0,0.0,0.0,0.0,0.0,0.0,0.0,1.943,1.943,1.943,1.943,1.943,1.943,1.943,1.943,1.943,1.943,1.943,1.943,1.943,1.943,1.943,1.943,1.943,1.943,1.943,1.943,1.943,1.943,1.943,0.0,0.0,0.0,0.0,0.0,0.0,0.0,0.0,1.8008,0.0,0.0,0.0,0.0,1.7906,0.0,0.0,0.0,0.0,1.9453,1.9504,1.9736,2.0294,2.096,2.1191,2.0922,2.1422,2.1764,2.1954,2.1776,2.1687,2.1687,2.1687,2.1687,2.1687,2.1687,2.1687,2.1687,2.1687,2.1687,2.1687,2.1687,2.1687,0.0,0.0,0.0,0.0,0.0,0.0,0.0,0.0,2.1687,2.1687,2.1687,2.1687,2.1723,2.1833,2.2163,2.2565,2.2986,2.258,2.2242,2.2868,2.23,2.1669,2.2027,2.1486,2.0779,2.0136,2.0181,2.0132,1.9506,0.0,0.0,0.0,0.0,0.0,0.0,0.0,0.0,0.0,0.0,0.0,0.0,0.0,0.0,0.0,0.0,0.0,0.0,0.0,0.0,0.0,0.0,0.0,1.943,1.943,1.943,1.943,1.943,1.943,1.943,1.943,1.943,1.943,1.943,1.943,1.943,1.943,1.943,1.943,1.943,1.943,1.943,1.943,1.943,1.943,0.0,0.0,0.0,0.0,0.0,0.0,0.0,0.0,1.8008,1.8008,1.7818,0.0,0.0,0.0,0.0,0.0,0.0,0.0,1.9863,1.9922,2.0003,2.0294,2.1082,2.1419,2.1233,2.1808,2.1972,2.1687,2.1687,2.1687,2.1687,2.1687,2.1687,2.1687,2.1687,2.1687,2.1687,2.1687,2.1687,2.1687,2.1687,2.1687,2.1687,0.0,0.0,0.0,0.0,0.0,0.0,0.0,2.1687,2.1687,2.1687,2.1687,2.1778,2.2163,2.2584,2.3004,2.3389,2.3036,2.2787,2.3904,2.3672,2.3392,2.4572,2.2201,1.9955,2.0615,2.0003,1.943,1.943,1.943,0.0,0.0,0.0,0.0,0.0,0.0,0.0,0.0,0.0,0.0,0.0,0.0,0.0,0.0,0.0,0.0,0.0,0.0,0.0,0.0,0.0,0.0,1.943,1.943,1.943,1.943,1.943,1.943,1.943,1.943,1.943,1.943,1.943,1.943,1.943,1.943,1.943,1.943,1.943,1.943,1.943,1.943,1.943,1.943,0.0,0.0,0.0,0.0,0.0,0.0,0.0,0.0,1.7666,1.7784,1.7647,0.0,0.0,0.0,0.0,0.0,0.0,0.0,1.9902,2.01,2.0352,2.0716,2.1072,2.1408,2.1627,2.1958,2.1972,2.1687,2.1687,2.1687,2.1687,2.1687,2.1687,2.1687,2.1687,2.1687,2.1687,2.1687,2.1687,2.1687,2.1687,2.1687,2.1687,0.0,0.0,0.0,0.0,0.0,0.0,0.0,0.0,0.0,2.1687,2.1888,2.2126,2.2254,2.2767,2.3352,2.3462,2.3595,2.3805,2.4102,2.4263,2.4473,2.5072,2.4649,2.3793,0.0,2.0773,1.943,1.943,0.0,0.0,0.0,0.0,0.0,0.0,0.0,0.0,0.0,0.0,0.0,0.0,0.0,0.0,0.0,0.0,0.0,0.0,0.0,0.0,0.0,0.0,0.0,1.943,1.943,1.943,1.943,1.943,1.943,1.943,1.943,1.943,1.943,1.943,1.943,1.943,1.943,1.943,1.943,1.943,1.943,1.943,1.943,1.943,1.943,0.0,0.0,0.0,0.0,0.0,0.0,1.7769,1.7632,1.7529,1.7613,1.7495,1.7449,0.0,0.0,0.0,1.8741,1.9369,0.0,1.9889,2.0042,2.0289,2.0607,2.0882,2.1287,2.1758,2.1887,2.1865,2.1687,2.1687,2.1687,2.1687,2.1687,2.1687,2.1687,2.1687,2.1687,2.1687,2.1687,2.1687,2.1687,2.1687,2.1687,2.1687,0.0,0.0,0.0,0.0,0.0,0.0,0.0,0.0,0.0,2.187,2.2089,2.2346,2.2657,2.3114,2.3535,2.3749,2.3969,2.4202,2.4202,2.4643,2.5212,2.5729,0.0,0.0,0.0,2.1843,2.0673,2.0213,0.0,0.0,0.0,0.0,0.0,0.0,0.0,0.0,0.0,0.0,0.0,0.0,0.0,0.0,0.0,0.0,0.0,0.0,0.0,0.0,0.0,0.0,0.0,1.943,1.943,1.943,1.943,1.943,1.943,1.943,1.943,1.943,1.943,1.943,1.943,1.943,1.943,1.943,1.943,1.943,1.943,1.943,1.943,1.943,1.943,0.0,0.0,1.7647,1.7529,0.0,0.0,1.7552,1.7517,1.7502,1.7574,1.7401,1.7497,0.0,0.0,0.0,1.9222,1.9507,1.9697,0.0,1.9902,2.0031,2.0238,2.0685,2.1133,2.1668,2.1731,2.1731,2.1687,2.1687,2.1687,2.1687,2.1687,2.1687,2.1687,2.1687,2.1687,2.1687,2.1687,2.1687,2.1687,2.1687,2.1687,2.1687,2.1687,0.0,0.0,0.0,0.0,0.0,0.0,0.0,0.0,2.2163,2.2327,2.2529,2.3279,2.3517,2.3675,2.411,2.4202,2.4202,2.4202,2.4808,0.0,2.6408,2.5734,2.4612,2.3424,0.0,2.2636,0.0,0.0,0.0,0.0,0.0,0.0,0.0,0.0,0.0,0.0,0.0,0.0,0.0,0.0,0.0,0.0,0.0,0.0,0.0,0.0,0.0,0.0,0.0,0.0,1.943,1.943,1.943,0.0,1.943,1.943,1.943,1.943,1.943,1.943,1.943,1.943,1.943,1.943,1.943,1.943,1.943,1.943,1.943,1.943,1.943,1.943,0.0,0.0,1.7529,1.7495,0.0,0.0,1.7896,1.7687,1.7674,1.8135,1.8045,1.8045,1.8303,1.8639,0.0,1.9279,1.962,1.9847,1.9902,1.9902,2.0104,2.0629,2.1435,2.1769,2.1687,2.1928,2.1909,2.1687,2.1687,2.1687,2.1687,2.1687,2.1687,2.1687,2.1687,2.1687,2.1687,2.1687,2.1687,2.1687,2.1687,2.1687,2.1687,2.1687,2.1687,0.0,0.0,0.0,0.0,0.0,0.0,0.0,2.2254,2.2712,2.3261,2.3444,2.3767,2.4091,2.4183,2.4202,2.4202,2.4202,2.4808,2.5635,2.6408,2.6427,2.5844,2.4667,2.3648,0.0,0.0,0.0,0.0,0.0,0.0,0.0,0.0,0.0,0.0,0.0,0.0,0.0,0.0,0.0,0.0,0.0,0.0,0.0,0.0,0.0,0.0,0.0,0.0,1.943,1.943,1.943,1.943,0.0,1.943,1.943,1.943,1.943,1.943,1.943,1.943,1.943,1.943,1.943,1.943,1.943,1.943,1.943,1.943,1.943,1.943,1.943,0.0,0.0,0.0,0.0,0.0,0.0,0.0,0.0,1.7917,1.823,1.8156,1.8267,1.8639,1.8881,0.0,0.0,1.9633,1.9706,1.9627,1.9773,2.0216,2.093,2.1577,2.182,2.1687,2.182,2.182,2.1687,2.1687,2.1687,2.1687,2.1687,2.1687,2.1687,2.1687,2.1687,2.1705,2.1888,2.198,2.1998,2.2199,2.2272,2.2272,2.2272,2.2272,2.2272,2.2272,0.0,0.0,0.0,0.0,0.0,0.0,0.0,2.3535,2.3785,2.3987,2.4202,2.4202,2.4202,2.4293,2.4698,0.0,2.5635,2.6408,2.6591,2.6427,2.5789,0.0,0.0,0.0,0.0,0.0,0.0,0.0,0.0,0.0,0.0,0.0,0.0,0.0,0.0,0.0,0.0,0.0,0.0,0.0,0.0,0.0,0.0,0.0,0.0,1.943,1.943,1.943,1.943,1.943,1.943,1.943,1.943,1.943,1.943,1.943,1.943,1.943,1.943,1.943,1.943,1.943,1.943,1.943,1.943,1.943,1.943,1.943,1.943,0.0,0.0,0.0,0.0,0.0,0.0,0.0,0.0,0.0,1.832,1.832,1.8524,1.9029,1.9067,1.9215,0.0,0.0,0.0,1.9402,1.9861,2.0429,2.1133,2.1511,2.1687,2.1687,2.1687,2.1687,2.1687,2.1687,2.1687,2.1687,2.1687,2.1687,2.1705,2.176,2.1797,2.1815,2.2217,2.2382,2.2419,2.2767,2.2913,2.2913,2.2913,2.2913,2.2913,2.2913,2.2913,2.2913,2.2913,0.0,0.0,0.0,0.0,2.3712,2.411,2.4202,2.4202,2.4202,2.4202,2.4404,2.5212,2.5414,0.0,2.6408,2.6591,2.6591,2.6591,0.0,0.0,0.0,0.0,0.0,0.0,0.0,0.0,0.0,0.0,0.0,0.0,0.0,0.0,0.0,0.0,0.0,0.0,0.0,0.0,0.0,0.0,1.943,1.943,1.943,1.943,1.943,1.943,1.943,1.943,1.943,1.943,1.943,1.943,1.943,1.943,1.943,1.943,1.943,1.943,1.943,1.943,1.943,1.943,1.943,1.943,1.943,1.943,0.0,0.0,0.0,0.0,0.0,0.0,0.0,0.0,0.0,0.0,1.9146,1.9243,1.9474,1.9337,1.9374,1.9606,1.9429,1.9457,1.9783,0.0,0.0,2.1343,2.1555,2.1687,2.1687,2.1687,2.1687,2.1687,2.1687,2.1687,2.1687,2.1687,2.1687,2.1705,2.2053,2.2199,2.2236,2.2638,2.2821,2.2821,2.2895,2.2913,2.2913,2.2913,2.2913,2.2913,2.2913,2.2913,2.2913,2.2913,2.3133,0.0,0.0,0.0,2.4128,2.4183,2.4202,2.4202,2.4202,0.0,2.4404,0.0,2.5414,2.5635,0.0,0.0,2.6591,0.0,0.0,0.0,0.0,0.0,0.0,0.0,0.0,0.0,0.0,0.0,0.0,0.0,0.0,0.0,0.0,0.0,0.0,0.0,0.0,0.0,0.0,1.943,1.943,1.943,1.943,1.943,1.943,1.943,1.943,1.943,1.943,1.943,1.943,1.943,1.943,1.943,1.943,1.943,1.943,1.943,1.943,1.943,1.943,1.943,1.943,1.943,1.943,1.943,0.0,0.0,0.0,0.0,0.0,0.0,0.0,0.0,0.0,0.0,0.0,1.935,1.9429,1.935,1.9442,1.9721,1.9699,1.9916,2.0558,2.0906,2.1261,2.1544,2.164,2.1687,2.1687,2.1687,2.1687,2.1687,2.1687,2.1687,2.1687,2.1687,2.1815,2.2034,2.2199,2.2419,2.2657,2.3059,2.3242,2.3261,2.3529,2.362,2.362,2.362,2.362,2.362,2.362,2.362,2.362,2.362,2.3749,2.3877,2.3877,0.0,0.0,0.0,2.4202,2.4202,2.4202,2.4202,2.4404,0.0,2.5414,2.5635,2.6408,0.0,0.0,0.0,0.0,0.0,0.0,0.0,0.0,0.0,0.0,0.0,0.0,0.0,0.0,0.0,0.0,0.0,0.0,0.0,0.0,0.0,0.0,0.0,1.943,1.943,1.943,1.943,1.943,0.0,1.943,1.943,1.943,1.943,1.943,1.943,1.943,1.943,1.943,1.943,1.943,1.943,1.943,1.943,1.943,1.943,1.943,1.943,1.943,1.943,1.943,1.943,0.0,0.0,0.0,0.0,0.0,0.0,0.0,0.0,0.0,0.0,0.0,1.9347,1.9439,0.0,0.0,0.0,2.004,2.0332,2.1071,2.12,2.1401,2.1668,2.1687,2.1687,2.1687,2.1687,2.1687,2.1687,2.1687,2.1687,2.1687,2.1687,2.1961,2.2437,2.2437,2.2675,2.3078,2.348,2.3694,2.373,2.4073,2.4202,2.4202,2.4202,2.4202,2.4202,2.4202,2.4202,2.4202,2.4202,2.4202,2.4202,2.4202,2.4202,0.0,0.0,0.0,2.4202,2.4202,0.0,2.4385,2.5084,2.5289,2.5564,0.0,0.0,0.0,0.0,0.0,0.0,0.0,0.0,0.0,0.0,0.0,0.0,0.0,0.0,0.0,0.0,0.0,0.0,0.0,0.0,0.0,0.0,0.0,0.0,1.943,1.943,1.943,1.943,1.943,1.943,1.943,1.943,1.943,1.943,1.943,1.943,1.943,1.943,1.943,1.943,1.943,1.943,1.943,1.943,1.943,1.943,1.943,1.943,1.943,1.943,1.943,1.943,0.0,0.0,0.0,0.0,0.0,0.0,0.0,0.0,0.0,0.0,0.0,1.9457,1.982,1.9857,2.0021,2.0406,2.0484,2.0668,2.1071,2.1475,2.1668,2.1687,2.1687,0.0,2.1687,2.1687,2.1687,2.1687,2.1687,2.1687,2.1687,2.1687,2.2108,2.2876,2.2876,2.3096,2.3499,2.395,2.4165,2.4183,2.4183,2.4202,2.4202,2.4202,2.4202,2.4202,2.4202,2.4202,2.4202,2.4202,2.4202,2.4202,2.4202,2.4202,2.4202,0.0,0.0,0.0,0.0,2.4202,0.0,2.4702,2.5139,2.5525,0.0,0.0,0.0,0.0,0.0,0.0,0.0,0.0,0.0,0.0,0.0,0.0,0.0,0.0,0.0,0.0,0.0,0.0,0.0,0.0,0.0,0.0,0.0,0.0,1.9475,1.943,1.943,1.943,1.943,1.943,1.943,1.943,1.943,1.943,1.943,1.943,1.943,1.943,1.943,1.943,1.943,1.943,1.943,1.943,1.943,1.943,1.943,1.943,1.943,1.943,1.943,1.943,0.0,0.0,0.0,0.0,0.0,0.0,0.0,0.0,0.0,0.0,0.0,0.0,0.0,2.0319,2.0466,2.0869,2.1101,2.1321,2.1493,2.1614,2.1687,2.1687,2.1687,2.1687,2.1687,2.1687,2.1687,2.1687,2.1687,2.1687,2.1705,2.1943,2.2364,2.2913,2.2913,2.3279,2.395,2.4146,2.4202,2.4202,2.4202,2.4367,2.4606,2.4606,2.4771,2.4955,2.4698,0.0,2.4569,2.4293,2.4202,2.4202,2.4202,2.4202,2.4202,2.4202,2.4202,2.4202,2.4202,0.0,0.0,2.4684,2.5069,2.5525,2.5929,0.0,0.0,0.0,0.0,0.0,0.0,0.0,0.0,0.0,0.0,0.0,0.0,0.0,0.0,0.0,0.0,0.0,0.0,0.0,0.0,0.0,0.0,0.0,2.0615,2.0558,2.0213,1.943,1.943,1.943,1.943,1.943,1.943,1.943,1.943,1.943,1.943,1.943,1.943,1.943,1.943,1.943,1.943,1.943,1.943,1.943,1.943,1.943,1.943,1.943,1.943,1.943,0.0,0.0,0.0,0.0,0.0,1.9567,1.9696,1.9952,2.0095,2.0095,0.0,0.0,0.0,0.0,2.0888,2.1291,2.1522,2.1687,2.1687,2.1687,2.1687,2.1687,2.1687,2.1687,2.1687,2.1687,2.1687,2.1687,2.1687,2.176,2.1888,2.2163,2.2584,2.3096,2.3096,2.3529,2.4202,2.4202,2.4293,2.4404,2.4404,2.4661,2.4977,2.4977,2.5194,2.5344,0.0,0.0,2.4941,2.4698,2.4606,2.4587,2.4459,2.4312,2.4202,2.4202,2.4202,2.4202,2.4202,0.0,0.0,0.0,2.4867,2.5271,2.5727,0.0,0.0,0.0,0.0,0.0,0.0,0.0,0.0,0.0,0.0,0.0,0.0,0.0,0.0,0.0,0.0,0.0,0.0,0.0,0.0,0.0,0.0,0.0,2.1288,2.1174,2.0673,1.943,1.943,1.943,1.943,1.943,1.943,1.943,1.943,1.943,1.943,1.943,1.943,1.943,1.943,1.943,1.943,1.943,1.943,1.943,1.943,1.943,1.943,1.943,1.943,1.943,0.0,0.0,1.9457,1.9838,1.9912,2.004,2.0466,2.0521,2.0539,2.0539,0.0,0.0,0.0,0.0,0.0,2.165,2.1687,2.1687,2.1687,2.1687,2.1687,2.1687,2.1687,2.1687,2.1687,2.1687,2.1687,2.1687,2.1687,2.1888,2.2272,2.2291,2.273,2.3499,2.3499,2.3785,2.4202,2.422,2.4459,2.4776,2.4794,2.5032,2.5433,2.5433,2.5451,0.0,2.5451,2.5433,0.0,2.5381,0.0,0.0,2.4922,2.4569,2.422,2.422,2.422,2.4202,0.0,0.0,0.0,0.0,0.0,0.0,2.5289,0.0,0.0,0.0,0.0,0.0,0.0,0.0,0.0,0.0,0.0,0.0,0.0,0.0,0.0,0.0,0.0,0.0,0.0,0.0,0.0,0.0,0.0,2.3832,2.146,2.1288,2.073,1.9475,1.943,1.943,1.943,1.943,1.943,1.943,1.943,1.943,1.943,1.943,1.943,1.943,1.943,1.943,1.943,1.943,1.943,1.943,1.943,1.943,1.943,1.943,1.943,1.943,0.0,1.9989,2.0209,2.0296,2.0314,2.0393,2.0461,2.0759,2.0943,0.0,0.0,0.0,2.1504,2.1522,2.1559,2.1687,2.1687,2.1687,2.1687,2.1687,2.1687,2.1687,2.1687,2.1687,2.1687,2.1687,2.1687,2.1687,2.1687,2.1888,2.2337,2.2602,2.3004,2.3499,2.3859,2.4091,2.422,2.4532,2.4684,2.4812,2.5139,2.5436,2.5855,2.5855,0.0,0.0,0.0,2.5855,2.58,0.0,2.5414,2.5396,0.0,2.4992,2.4611,2.4611,2.444,2.4202,2.4202,0.0,0.0,0.0,0.0,0.0,2.5396,2.5966,0.0,0.0,0.0,0.0,0.0,0.0,0.0,0.0,0.0,0.0,0.0,0.0,0.0,0.0,0.0,0.0,0.0,0.0,0.0,0.0,2.6081,2.5459,2.3888,2.2974,2.1972,2.0716,2.073,2.027,1.943,1.943,1.943,1.943,1.943,1.943,1.943,1.943,1.943,1.943,2.0328,2.0213,1.943,1.943,1.943,1.943,1.943,1.943,1.943,1.943,1.943,1.943,2.0131,2.0314,2.0534,2.0741,2.0759,2.0814,2.0955,2.1218,2.1365,0.0,0.0,0.0,2.1687,2.1833,2.1943,2.1943,2.2089,2.2199,2.2199,2.2034,2.1943,2.1943,2.1778,2.1687,2.1687,2.1687,2.1778,2.1943,2.1943,2.2236,2.2785,2.3041,2.337,2.3804,2.4091,2.4293,2.4496,2.49,2.5032,2.512,2.5506,2.5911,0.0,2.6278,2.6371,0.0,0.0,0.0,2.6188,2.5949,2.5819,0.0,0.0,0.0,2.5032,2.5032,2.479,2.4496,2.4661,2.4587,2.4496,0.0,0.0,0.0,2.5635,2.6039,2.6371,0.0,0.0,0.0,0.0,0.0,0.0,0.0,0.0,0.0,0.0,0.0,0.0,0.0,0.0,0.0,0.0,0.0,0.0,0.0,2.6591,2.6081,2.4834,2.3648,2.2467,2.1231,2.1174,2.0615,1.9417,1.943,1.943,1.943,1.943,1.943,1.943,1.943,1.943,1.9488,2.0673,2.0788,2.0155,2.0155,1.988,1.943,1.943,1.943,1.943,1.943,1.943,1.943,0.0,2.0613,2.0759,2.1108,2.1181,2.131,2.1632,2.1723,2.176,0.0,2.1797,2.1833,2.1833,2.2144,2.2346,2.2346,2.2693,2.2913,2.2913,2.2565,2.2346,2.2346,2.2016,2.1833,2.1833,2.1833,2.1998,2.2346,2.2346,2.2748,2.3499,2.3499,2.3767,2.4202,2.4257,2.4477,2.4812,2.5304,2.5488,2.5525,2.5911,2.6315,0.0,0.0,2.6591,2.6591,2.6591,2.6591,2.6591,2.6591,2.6334,0.0,0.0,0.0,0.0,0.0,2.5161,2.4922,2.5271,2.5106,2.4941,0.0,0.0,0.0,2.5929,2.6039,2.6186,0.0,0.0,0.0,0.0,0.0,0.0,0.0,0.0,0.0,0.0,0.0,0.0,0.0,0.0,0.0,0.0,0.0,2.6591,2.6591,2.6591,2.6136,2.5072,2.3983,2.2862,2.1631,2.1631,2.1002,1.9822,1.9822,1.9707,1.9591,1.9591,1.9533,1.943,1.943,1.9488,1.9649,2.0888,2.1402,2.1402,2.1517,2.0831,1.9591,1.943,1.943,1.943,1.943,1.943,1.943,2.0998,2.1229,2.1485,2.1559,2.1577,2.1595,2.1687,2.1961,2.2163,2.2163,2.2455,2.2675,2.2675,2.2748,2.2785,2.2785,2.2858,2.2913,2.2913,2.2821,2.2785,2.2785,2.2712,2.2675,2.2675,2.2675,2.2712,2.2785,2.2785,2.3023,2.3499,2.3499,2.3767,2.422,2.4569,2.4702,2.4831,2.5598,2.5892,2.5929,2.6298,2.6518,2.6591,2.6591,2.6591,2.6591,2.6591,2.6591,2.6591,2.6591,2.6536,2.6463,0.0,0.0,0.0,2.5892,0.0,0.0,0.0,0.0,0.0,0.0,0.0,0.0,2.6002,2.6278,2.6481,0.0,0.0,0.0,0.0,0.0,0.0,0.0,0.0,0.0,0.0,0.0,0.0,0.0,0.0,0.0,0.0,0.0,2.6591,2.6591,2.6591,2.6482,2.6245,2.6026,2.5348,2.4167,2.4111,2.3536,2.2297,2.2297,2.1801,2.0845,2.0845,2.0328,1.943,1.943,1.9938,2.0888,2.2127,2.2636,2.2692,2.3704,2.2805,2.073,1.9764,1.943,1.943,1.943,1.943,1.943,2.142,2.154,2.1687,2.1687,2.1851,2.198,2.198,2.2327,2.2602,2.2602,2.2767,2.2913,2.2913,2.3078,2.3206,2.3206,2.3437,2.3547,2.3547,2.3316,2.3206,2.3206,2.3023,2.2913,2.2913,2.2913,2.3004,2.3206,2.3206,2.3407,2.384,2.384,2.406,2.4532,2.4684,2.4996,2.5399,2.5837,2.6131,2.6352,2.6499,0.0,2.6591,2.6591,2.6591,2.6591,2.6591,2.6591,2.6591,2.6591,2.6591,0.0,0.0,2.6444,2.6279,0.0,2.6039,2.5764,0.0,0.0,0.0,2.5931,0.0,0.0,0.0,2.6444,2.6591,0.0,0.0,0.0,0.0,0.0,0.0,0.0,0.0,0.0,0.0,0.0,0.0,0.0,0.0,0.0,0.0,0.0,2.6591,2.6591,2.6591,2.6591,2.6591,2.6591,2.6026,2.4834,2.4778,2.4223,2.303,2.2974,2.2692,2.207,2.207,2.1801,2.1174,2.1174,2.1517,2.2127,2.3368,2.3871,2.3927,2.4556,2.4111,2.2862,2.1687,2.0845,2.027,2.027,2.027,2.027,2.1815,2.1797,2.1833,2.1906,2.2199,2.24,2.24,2.2748,2.3041,2.3133,2.3133,2.3133,2.3133,2.3425,2.3608,2.3608,2.3969,2.4202,2.4202,2.384,2.3608,2.3608,2.3297,2.3133,2.3133,2.3133,2.3297,2.3608,2.3608,2.3822,2.4202,2.4293,2.4514,2.4794,2.4941,2.5362,2.6021,2.6094,2.6279,2.6591,0.0,2.6591,2.6591,2.6591,2.6591,2.6591,2.6591,2.6591,2.6591,2.6591,2.6591,2.6591,2.6591,2.6591,0.0,0.0,0.0,0.0,0.0,0.0,0.0,0.0,0.0,2.6591,0.0,0.0,0.0,0.0,0.0,0.0,0.0,0.0,0.0,0.0,0.0,0.0,0.0,0.0,0.0,0.0,0.0,0.0,0.0,0.0,2.6591,2.6591,2.6591,2.6591,2.6591,2.6591,2.6136,2.5183,2.5183,2.4667,2.3704,2.3704,2.3592,2.3368,2.3368,2.3199,2.2974,2.2974,2.3143,2.3424,2.439,2.4944,2.5183,2.5183,2.5183,2.5,2.3536,2.241,2.1574,2.1574,2.1574,2.1574,2.2291,2.2217,2.2327,2.2693,2.2803,2.284,2.284,2.3169,2.3553,2.4018,2.4073,2.4073,2.4073,2.411,2.4128,2.4128,2.4183,2.4202,2.4202,2.4165,2.4128,2.4128,2.4091,2.4073,2.4073,2.4073,2.4091,2.4128,2.4128,2.4165,2.422,2.4537,2.4739,2.4812,2.5561,2.5929,2.6039,2.6353,2.6554,0.0,2.6591,2.6591,0.0,2.6591,2.6591,2.6591,2.6591,2.6591,2.6591,0.0,2.6591,2.6591,0.0,2.6591,2.6591,2.6591,0.0,0.0,0.0,0.0,0.0,0.0,2.6591,0.0,0.0,0.0,0.0,0.0,0.0,0.0,0.0,0.0,0.0,0.0,0.0,0.0,0.0,0.0,0.0,0.0,0.0,0.0,0.0,0.0,0.0,2.6591,2.6591,2.6591,2.6591,2.6591,2.6537,2.6427,2.6427,2.63,2.619,2.619,2.5624,2.4612,2.4612,2.4055,2.2974,2.2974,2.3592,2.4612,2.4723,2.5404,2.6427,2.6427,2.6427,2.619,2.3871,2.2918,2.2805,2.2805,2.2805,2.2805,2.2675,2.2638,2.2693,2.2876,2.3096,2.3242,2.3242,2.3639,2.395,2.4183,2.4422,2.4569,2.4569,2.4771,2.4918,2.4918,0.0,2.4918,0.0,0.0,2.4808,2.4569,2.4569,2.4459,2.4202,2.4202,2.4202,2.4202,2.4202,2.433,2.4569,2.4702,2.5032,2.5525,2.5855,2.6149,2.6334,0.0,2.6591,0.0,0.0,0.0,0.0,2.6591,2.6591,2.6591,2.6591,2.6591,2.6591,0.0,2.6591,0.0,0.0,0.0,0.0,0.0,0.0,0.0,0.0,0.0,0.0,0.0,0.0,0.0,2.6591,0.0,2.6591,0.0,0.0,0.0,0.0,0.0,0.0,0.0,0.0,0.0,0.0,0.0,0.0,0.0,0.0,0.0,0.0,0.0,0.0,0.0,0.0,2.6591,2.6591,2.6591,2.6591,2.6591,2.6591,2.6591,2.6591,2.6591,2.6354,2.5861,2.5861,2.5569,2.5055,2.5055,2.5348,2.5861,2.5861,2.6136,2.6591,2.6591,2.6591,2.6482,2.5459,2.4667,2.4055,2.4055,2.4055,2.4055,2.329,2.3151,2.3114,2.3224,2.3529,2.3712,2.3712,2.406,2.4367,2.4367,2.4735,2.4941,2.4941,2.5249,2.5414,2.5414,2.5414,2.5414,0.0,0.0,2.5286,2.4959,2.4941,2.4845,2.4551,2.4532,2.4532,2.4532,2.4532,2.4698,2.4941,2.5051,2.547,2.6021,2.6131,2.6352,2.6591,0.0,2.6591,2.6591,2.6591,2.6591,2.6591,2.6591,2.6591,2.6591,2.6591,2.6591,2.6591,2.6591,2.6591,0.0,2.6591,0.0,0.0,0.0,0.0,0.0,2.6591,0.0,0.0,0.0,0.0,0.0,0.0,0.0,0.0,0.0,0.0,0.0,0.0,0.0,0.0,0.0,0.0,0.0,0.0,0.0,0.0,0.0,0.0,0.0,0.0,0.0,0.0,0.0,0.0,0.0,2.6591,2.6591,2.6591,2.6591,2.6591,2.6591,2.6591,2.6591,2.6591,2.6591,2.6591,2.6591,2.6591,2.6591,2.6591,2.6591,2.6591,2.6591,2.6591,2.6591,2.6591,2.6591,2.6591,2.6081,2.5293,2.5293,2.5293,2.5293,2.4165,2.3785,2.3608,2.4091,2.4183,2.4183,2.4183,2.4551,2.4757,2.4757,0.0,0.0,0.0,0.0,0.0,0.0,0.0,2.5414,2.5414,0.0,2.5362,0.0,0.0,2.5396,2.5378,2.5378,2.5378,2.5378,2.5378,2.5396,2.5414,2.58,2.5984,2.6021,2.6389,2.6573,2.6591,2.6591,2.6591,2.6591,2.6591,2.6591,2.6591,0.0,2.6591,2.6591,2.6591,0.0,0.0,2.6591,2.6591,0.0,0.0,0.0,0.0,0.0,0.0,0.0,0.0,0.0,0.0,2.6591,0.0,0.0,0.0,0.0,2.6591,0.0,0.0,0.0,0.0,0.0,0.0,2.6591,0.0,0.0,0.0,0.0,0.0,0.0,0.0,0.0,0.0,0.0,0.0,0.0,0.0,0.0,2.6591,2.6591,2.6591,2.6591,2.6591,2.6591,2.6591,2.6591,2.6591,2.6591,2.6591,2.6591,2.6591,2.6591,2.6591,2.6591,2.6591,2.6591,2.6591,2.6591,2.6591,2.6591,2.6591,2.6591,2.6537,2.6537,2.6537,2.6537,2.4202,2.4091,2.3987,2.4183,2.4202,2.4293,2.4569,2.4684,0.0,0.0,2.5561,0.0,0.0,2.6004,2.6169,0.0,0.0,2.6169,2.6169,2.6169,0.0,0.0,0.0,2.569,0.0,2.5414,2.5414,2.5414,2.5414,2.5561,2.5819,2.5947,2.6168,2.6389,2.6518,2.6591,0.0,0.0,0.0,0.0,0.0,2.6591,2.6591,0.0,0.0,2.6591,2.6591,2.6591,0.0,2.6591,2.6591,2.6591,2.6591,2.6591,2.6591,2.6591,2.6591,0.0,0.0,0.0,2.6591,2.6591,0.0,0.0,0.0,0.0,0.0,0.0,0.0,0.0,0.0,0.0,2.6591,2.6591,2.6353,0.0,0.0,0.0,0.0,0.0,0.0,0.0,0.0,0.0,0.0,0.0,0.0,0.0,0.0,2.6591,2.6591,2.6591,2.6591,2.6591,2.6591,2.6591,2.6591,2.6591,2.6591,2.6591,2.6591,2.6591,2.6591,2.6591,2.6591,2.6591,2.6591,2.6591,2.6591,2.6591,2.6591,2.6591,2.6591,2.6591,2.6591,2.6591,2.4643,2.4643,2.4587,2.4459,2.4532,2.4735,2.4941,0.0,0.0,0.0,2.5984,0.0,2.6188,0.0,2.6591,0.0,2.6591,2.6591,2.6591,2.6591,0.0,2.6188,2.6188,0.0,0.0,0.0,0.0,2.5803,2.5803,2.5931,2.6188,2.6188,2.6334,2.6591,2.6591,2.6591,2.6591,2.6591,2.6591,0.0,0.0,2.6591,0.0,0.0,2.6591,2.6591,0.0,2.6591,2.6591,2.6591,2.6591,2.6591,2.6591,2.6591,2.6591,2.6591,2.6591,2.6591,2.6591,2.6591,0.0,0.0,2.6591,0.0,2.6591,0.0,0.0,0.0,0.0,0.0,0.0,0.0,0.0,2.6646,2.6461,0.0,0.0,2.6214,0.0,0.0,0.0,0.0,0.0,0.0,0.0,0.0,0.0,0.0,0.0,0.0,2.6591,2.6591,2.6591,2.6591,2.6591,2.6591,2.6591,2.6591,2.6591,2.6591,2.6591,2.6591,2.6591,2.6591,2.6591,2.6591,2.6591,2.6591,2.6591,2.6591,2.6591,2.6591,2.6591,2.6591,2.6591,2.6591,2.5414,2.5433,2.5341,2.4904,2.5142,0.0,0.0,0.0,2.6021,0.0,2.6334,2.6591,2.6609,2.6609,2.6628,2.6646,2.6646,2.6628,2.6628,2.6609,0.0,0.0,2.6591,2.6591,2.6591,0.0,0.0,0.0,0.0,2.6591,2.6591,2.6591,2.6591,2.6591,2.6591,0.0,2.6591,2.6591,2.6591,2.6591,2.6591,2.6591,2.6591,2.6591,0.0,2.6591,2.6591,2.6591,2.6591,2.6591,2.6591,2.6591,2.6591,2.6591,2.6591,2.6591,2.6591,2.6591,2.6591,2.6591,2.6591,2.6591,0.0,0.0,0.0,0.0,2.6591,0.0,0.0,0.0,0.0,0.0,0.0,2.67,2.6845,2.6894,0.0,0.0,0.0,0.0,0.0,0.0,0.0,0.0,0.0,0.0,0.0,0.0,0.0,0.0,0.0,2.6591,2.6591,2.6591,2.6591,2.6591,2.6591,2.6591,2.6591,2.6591,2.6591,2.6591,2.6591,2.6591,2.6591,2.6591,2.6591,2.6591,2.6591,2.6591,2.6591,2.6591,2.6591,2.6591,2.6591,2.6591,2.5414,2.5653,2.5837,0.0,2.5543,2.5525,0.0,0.0,0.0,0.0,2.6518,2.6701,2.6995,2.7031,2.7141,2.7491,2.7471,0.0,0.0,0.0,0.0,2.6591,2.6591,2.6591,2.6591,2.6591,0.0,2.6591,0.0,2.6591,2.6591,2.6591,2.6591,2.6591,2.6591,2.6591,2.6591,2.6591,2.6591,2.6591,2.6591,2.6591,0.0,0.0,2.6591,2.6591,2.6591,2.6591,2.6591,2.6591,2.6591,2.6591,2.6591,2.6591,2.6591,2.6591,2.6591,2.6591,2.6591,2.6591,2.6591,2.6591,2.6591,2.6646,0.0,0.0,0.0,0.0,0.0,0.0,0.0,0.0,0.0,0.0,0.0,0.0,0.0,0.0,0.0,0.0,0.0,0.0,0.0,0.0,0.0,0.0,0.0,0.0,0.0,0.0,0.0,2.6591,2.6591,2.6591,2.6591,2.6591,2.6591,2.6591,2.6591,2.6591,2.6591,2.6591,2.6591,2.6591,2.6591,2.6591,2.6591,2.6591,2.6591,2.6591,2.6591,2.6591,2.6591,2.6591,2.6591,2.6591,2.5913,2.6131,0.0,2.6278,0.0,0.0,2.626,0.0,0.0,2.6793,2.6848,0.0,2.7454,2.7435,2.7526,2.7803,2.7822,0.0,2.7509,0.0,0.0,2.6848,2.6683,2.6591,2.6591,2.6591,0.0,2.6591,0.0,2.6591,2.6591,2.6591,2.6591,2.6591,2.6591,2.6591,2.6591,2.6591,2.6591,2.6591,2.6591,0.0,0.0,2.6591,2.6591,2.6591,2.6591,2.6591,2.6591,2.6591,2.6591,2.6591,2.6591,2.6591,2.6591,2.6591,2.6591,2.6591,2.6591,2.6591,2.6591,2.6591,2.6591,2.6646,2.6791,2.6791,2.6845,0.0,0.0,0.0,0.0,0.0,0.0,0.0,0.0,0.0,0.0,0.0,0.0,0.0,0.0,0.0,0.0,0.0,0.0,0.0,0.0,0.0,0.0,0.0,0.0,2.6591,2.6591,2.6591,2.6591,2.6591,2.6591,2.6591,2.6591,2.6591,2.6591,2.6591,2.6591,2.6591,2.6591,2.6591,2.6591,2.6591,2.6591,2.6591,2.6591,2.6591,2.6591,2.6591,2.6591,2.6591,2.6591,2.6591,0.0,0.0,0.0,0.0,0.0,2.6664,0.0,2.7141,0.0,2.7398,2.7801,2.7914,2.7932,2.7969,0.0,2.7893,2.7914,2.7526,2.7288,2.7178,2.6848,2.6646,2.6591,2.6591,2.6591,0.0,2.6591,2.6591,2.6591,2.6591,2.6591,2.6591,2.6591,0.0,0.0,2.6591,2.6591,2.6591,2.6591,2.6591,2.6591,2.6591,2.6591,2.6591,2.6591,2.6591,2.6591,2.6591,2.6591,2.6591,2.6591,2.6591,2.6591,2.6591,2.6591,2.6591,2.6591,2.6591,2.6591,2.6591,2.6591,2.6591,2.6646,2.6791,2.6989,2.7043,2.7206,0.0,0.0,0.0,0.0,0.0,0.0,0.0,0.0,0.0,0.0,0.0,0.0,0.0,0.0,0.0,0.0,0.0,0.0,0.0,0.0,0.0,0.0,0.0,2.6591,0.0,2.6591,0.0,2.6591,2.6591,2.6591,2.6591,2.6591,2.6591,2.6591,2.6591,2.6591,2.6591,2.6591,2.6591,2.6591,2.6591,2.6591,2.6591,2.6591,2.6591,2.6591,2.6591,2.6591,2.6591,0.0,0.0,0.0,2.6701,2.7013,2.7068,2.7105,2.716,2.7509,2.782,2.8242,2.8278,2.8407,2.8737,2.8773,0.0,0.0,0.0,0.0,2.7215,2.7105,2.6921,2.6591,2.6591,2.6591,0.0,2.6591,2.6591,2.6591,2.6591,2.6591,2.6591,2.6591,0.0,2.6591,2.6591,0.0,2.6591,2.6591,2.6591,2.6591,2.6591,2.6591,2.6591,2.6591,2.6591,2.6591,2.6591,2.6591,2.6591,2.6591,2.6591,2.6591,2.6591,2.6591,2.6591,2.6591,2.6591,2.6591,2.6591,2.6591,2.6646,2.6899,2.6791,2.6791,2.7206,2.7206,2.7206,2.7638,0.0,0.0,0.0,0.0,0.0,0.0,0.0,0.0,0.0,0.0,0.0,0.0,0.0,0.0,0.0,0.0,0.0,0.0,0.0,0.0,0.0,0.0,0.0,0.0,0.0,0.0,2.6591,2.6591,2.6591,2.6591,2.6591,2.6591,2.6591,2.6591,2.6591,2.6591,2.6591,2.6591,2.6591,2.6591,2.6591,2.6591,2.6591,2.6591,2.6591,2.6591,0.0,0.0,0.0,0.0,0.0,0.0,2.7673,0.0,2.7801,2.7967,2.8242,2.8663,2.87,2.8773,2.8975,2.8975,2.8902,2.8718,2.8517,2.8223,2.782,2.7398,0.0,2.6903,2.6701,2.6591,2.6591,2.6591,2.6591,2.6591,2.6591,2.6591,2.6591,0.0,2.6591,0.0,0.0,0.0,2.6591,2.6591,2.6591,2.6591,2.6591,2.6591,2.6591,2.6591,2.6591,2.6591,2.6591,2.6591,2.6591,2.6591,2.6591,2.6591,2.6591,2.6591,2.6591,2.6591,2.6591,2.6591,2.6591,2.6591,2.6646,2.6736,2.6791,2.6899,2.7152,2.7206,2.7368,2.7799,2.8014,0.0,0.0,0.0,0.0,0.0,0.0,0.0,0.0,0.0,0.0,0.0,0.0,0.0,0.0,0.0,0.0,0.0,0.0,0.0,0.0,0.0,0.0,0.0,0.0,0.0,2.6591,2.6591,2.6591,2.6591,2.6591,2.6591,2.6591,2.6591,2.6591,2.6591,2.6591,2.6591,2.6591,2.6591,2.6591,2.6591,2.6591,2.6591,2.6591,0.0,2.6774,0.0,0.0,2.7362,0.0,2.7895,2.8187,2.8388,2.8388,2.8462,2.8645,2.8957,2.8975,2.8975,2.8975,2.8975,2.8975,2.8975,2.87,2.848,2.8407,2.7691,2.727,2.7178,2.6793,2.6591,0.0,2.6591,2.6591,0.0,2.6591,0.0,0.0,0.0,0.0,0.0,0.0,2.6591,2.6591,2.6591,2.6591,2.6591,2.6591,2.6591,2.6591,2.6591,2.6591,2.6591,2.6591,2.6591,2.6591,2.6591,2.6591,2.6591,2.6591,2.6591,2.6591,2.6591,2.6591,2.6591,2.67,2.67,2.6682,2.6755,2.6954,2.7098,2.7206,2.7422,2.7638,2.796,2.796,0.0,0.0,0.0,0.0,0.0,0.0,0.0,0.0,0.0,0.0,0.0,0.0,0.0,0.0,0.0,2.6755,2.6682,2.6646,0.0,0.0,0.0,0.0,2.6682,0.0,2.6591,0.0,2.6591,2.6591,2.6591,2.6591,2.6591,2.6591,2.6591,2.6591,2.6591,2.6591,2.6591,2.6591,2.6591,2.6591,2.6591,2.6591,2.6591,2.6591,0.0,0.0,0.0,0.0,0.0,0.0,0.0,2.837,2.8388,2.8388,2.87,2.8938,2.8975,2.8975,2.8975,2.8975,2.8975,2.8975,2.8975,2.8957,2.8773,2.8407,2.7948,2.7601,2.7178,2.6793,2.6591,0.0,0.0,2.6591,0.0,0.0,0.0,0.0,0.0,0.0,0.0,2.6591,2.6591,2.6591,2.6591,2.6591,2.6591,2.6591,2.6591,2.6591,2.6591,2.6591,2.6591,2.6591,2.6591,2.6591,2.6591,2.6591,2.6591,2.6591,2.6591,2.6591,2.6591,2.6591,2.6646,2.6881,2.6935,2.7043,2.726,2.7314,2.7422,2.7745,2.8014,2.8247,2.8247,2.8247,2.8281,0.0,0.0,0.0,0.0,0.0,0.0,0.0,0.0,0.0,0.0,0.0,0.0,0.0,0.0,2.7206,2.6989,2.6736,0.0,2.6935,0.0,2.6736,2.6935,2.6736,0.0,2.6591,2.6591,2.6591,2.6591,2.6591,2.6591,2.6591,2.6591,2.6591,2.6591,2.6591,2.6591,2.6591,2.6591,2.6591,2.6591,2.6591,2.6591,2.6591,0.0,0.0,0.0,0.0,0.0,0.0,0.0,2.8755,2.8755,2.8755,2.8883,2.8975,2.8975,2.8975,2.8975,2.8975,2.8975,2.8975,2.8975,2.8975,2.892,2.8755,2.8352,2.7948,2.7601,2.7141,2.683,0.0,0.0,0.0,0.0,0.0,0.0,0.0,0.0,2.6591,2.6591,2.6591,2.6591,2.6591,2.6591,2.6591,2.6591,2.6591,2.6591,2.6591,2.6591,2.6591,2.6591,2.6591,2.6591,2.6591,2.6591,2.6682,2.6791,2.6646,2.6845,2.7062,2.6899,2.6954,2.7116,2.7206,2.726,2.726,2.7368,2.7368,2.7422,2.7584,2.7853,2.8067,2.8067,2.8174,2.8301,0.0,0.0,0.0,0.0,0.0,0.0,0.0,0.0,0.0,0.0,0.0,0.0,0.0,0.0,0.0,2.6989,2.6899,0.0,2.6736,0.0,2.6646,2.6736,2.6646,2.6591,2.6591,2.6591,2.6591,2.6591,2.6591,2.6591,2.6591,2.6591,2.6591,2.6591,2.6591,2.6591,2.6591,2.6591,2.6591,2.6591,2.6591,2.6591,2.6591,2.8005,0.0,2.8223,0.0,2.8572,2.8663,2.8938,2.8975,2.8975,2.8975,2.8975,2.8975,2.8975,2.8975,2.8975,2.8975,2.8975,2.8975,2.8975,2.8975,2.8975,2.8975,2.8608,0.0,2.7967,2.7435,2.7031,2.6756,2.6646,0.0,0.0,0.0,0.0,0.0,2.6591,2.6591,2.6591,2.6591,2.6591,2.6591,2.6591,2.6591,2.6591,2.6591,2.6591,2.6591,2.6591,2.6591,2.6591,2.6591,2.6646,2.6682,2.6646,2.6791,2.6935,2.6791,2.7062,2.7368,2.7152,2.726,2.7422,2.753,2.753,2.7584,2.7638,2.7638,2.7638,2.7638,2.7853,2.8014,2.8014,2.8174,2.8301,0.0,0.0,0.0,0.0,0.0,0.0,0.0,2.8301,2.8301,2.8301,0.0,0.0,0.0,0.0,0.0,0.0,0.0,0.0,0.0,0.0,0.0,0.0,0.0,2.6591,2.6591,2.6591,2.6591,2.6591,2.6591,2.6591,2.6591,2.6591,2.6591,2.6591,2.6591,2.6591,2.6591,2.6591,2.6591,2.6591,2.6591,2.6591,2.6591,2.8388,2.87,2.8975,2.8975,2.8975,2.8975,2.8975,2.8975,2.8975,2.8975,2.8975,2.8975,2.8975,2.8975,2.8975,2.8975,2.8975,2.8975,2.8975,2.8975,2.8975,0.0,0.0,2.8388,2.8388,2.7581,2.7178,2.7178,0.0,0.0,2.6591,0.0,0.0,2.6591,2.6591,2.6591,2.6591,2.6591,2.6591,2.6591,2.6591,2.6591,2.6591,2.6591,2.6591,2.6591,2.6591,2.6591,2.6591,2.6591,2.6791,2.6935,2.6682,2.6791,2.6989,2.6989,2.7206,2.7368,2.7368,2.7368,2.7476,2.7799,2.7906,2.796,2.8247,2.8301,2.8301,2.8301,2.8281,2.8301,2.8301,2.8301,2.8301,2.8301,0.0,0.0,0.0,0.0,0.0,0.0,2.8301,2.8301,2.8301,0.0,0.0,0.0,0.0,0.0,0.0,0.0,0.0,2.7853,2.7314,0.0,2.7368,2.6845,2.6591,2.6591,2.6591,2.6591,2.6591,2.6591,2.6591,2.6591,2.6591,2.6591,2.6591,2.6591,2.6591,2.6591,2.6591,2.6591,2.6591,2.6591,2.6591,2.6591,2.8792,2.8902,2.8975,2.8975,2.8975,2.8975,2.8975,2.8975,2.8975,2.8975,2.8975,2.8975,2.8975,2.8975,2.8975,0.0,2.8975,2.8975,0.0,2.8975,2.8975,2.8975,2.8865,2.8663,2.8407,2.8132,2.7856,2.7638,0.0,0.0,0.0,2.6591,2.6591,2.6591,2.6591,2.6591,2.6591,2.6591,2.6591,2.6591,2.6591,2.6591,2.6591,2.6591,2.6756,2.6995,2.6995,2.716,2.7454,2.7623,2.7735,2.7791,2.7677,2.745,2.726,2.7043,2.7368,2.7745,2.7745,2.7853,2.8014,2.8121,2.8174,2.8174,2.8301,2.8301,2.8301,2.8301,2.8301,2.8301,2.8301,2.8301,2.8301,2.8301,0.0,0.0,0.0,0.0,0.0,0.0,2.8301,2.8301,0.0,2.8301,0.0,0.0,0.0,0.0,0.0,0.0,0.0,0.0,2.6899,0.0,2.6845,2.67,2.6591,2.6591,2.6591,2.6591,2.6591,2.6591,2.6591,2.6591,2.6591,2.6591,2.6591,2.6591,2.6591,2.6591,2.6591,2.6591,2.6591,2.6591,2.6591,2.6591,2.8975,2.8975,2.8975,2.8975,2.8975,2.8975,2.8975,2.8975,2.8975,2.8975,2.8975,2.8975,2.8975,2.8975,0.0,2.8975,2.8975,2.8975,2.8975,2.8975,2.8975,2.8975,2.8975,2.8865,2.8627,0.0,0.0,2.8003,2.76,2.727,2.7031,2.7031,2.7031,2.7031,2.7031,2.7031,2.7031,2.7031,2.7031,2.7031,2.7031,2.7031,2.7031,2.7031,2.7178,2.7454,2.7454,2.762,2.7822,2.8106,2.8276,2.8408,2.8313,2.8214,2.7948,2.7463,2.7691,2.8067,2.8067,2.8174,2.8301,2.8301,2.8301,2.8301,2.8301,2.8301,2.8301,2.8301,2.8301,2.8301,2.8301,2.8301,2.8301,2.8301,0.0,2.8301,2.8301,0.0,0.0,0.0,0.0,0.0,0.0,2.8301,0.0,0.0,0.0,0.0,0.0,0.0,0.0,2.7368,2.6954,0.0,2.6736,2.6646,2.6591,2.6591,2.6591,2.6591,2.6591,2.6591,2.6591,2.6591,2.6591,2.6591,2.6591,2.6591,2.6591,2.6591,2.6591,2.6591,2.6591,2.6591,2.6591,2.6591,2.8975,2.8975,0.0,0.0,2.8975,0.0,2.8975,2.8975,2.8975,2.8975,2.8975,2.8975,2.8975,2.8975,2.8975,2.8975,0.0,0.0,0.0,2.8975,2.8975,2.8975,2.8975,0.0,2.8975,2.8627,2.8425,2.8388,2.8003,2.7858,2.7822,2.7822,2.7822,2.7822,2.7822,2.7822,2.7822,2.7822,2.7822,2.7822,2.7822,2.7822,2.7822,2.7822,2.784,2.7858,2.7858,2.7877,2.7971,2.8256,2.854,2.8804,2.8823,2.8992,2.9007,2.8195,2.8125,2.832,2.8301,2.8301,2.8301,2.8301,2.8301,2.8301,2.8301,2.8301,2.8301,2.8301,2.8301,2.8301,2.8301,2.8301,2.8301,2.8301,2.8301,2.8301,2.8301,0.0,0.0,0.0,0.0,0.0,0.0,2.8301,2.8301,0.0,0.0,0.0,0.0,0.0,0.0,2.7853,2.7314,2.6989,2.6989,2.6736,2.6591,2.6591,2.6591,2.6591,2.6591,2.6591,2.6591,2.6591,2.6591,2.6591,2.6591,2.6591,2.6591,2.6591,2.6646,2.6646,2.6591,2.6646,2.6646,2.6591,0.0,0.0,2.8975,2.8975,2.8975,2.8975,2.8975,2.8975,2.8975,2.8975,2.8975,2.8975,2.8975,2.8975,2.8975,2.8975,2.8975,2.8975,2.8975,2.8975,2.8975,2.8975,2.8975,2.8975,2.8975,2.8902,2.87,2.8388,2.8297,2.8077,2.7822,2.7822,2.7822,2.7822,2.7822,2.7822,2.7822,2.7822,2.7822,2.7822,2.7822,2.7822,2.7822,2.7822,2.7967,2.8242,2.8242,2.8618,2.9151,2.9385,2.9735,2.9968,2.9871,2.9888,2.9713,2.8658,2.8407,2.8439,2.8325,2.8301,2.8301,2.8301,2.8301,2.8301,2.8301,2.8301,2.8301,2.8301,2.8301,2.8301,2.8301,2.8301,2.8301,2.8301,2.8301,2.8301,2.8301,2.8301,0.0,0.0,2.8301,2.8301,2.8301,2.8301,2.8301,0.0,0.0,0.0,0.0,0.0,2.7799,2.753,2.7152,2.6881,2.6682,2.6646,2.6591,2.6591,2.6591,2.6591,2.6591,2.6591,2.6591,2.6591,2.6591,2.6591,2.6591,2.6591,2.6591,2.6646,2.6845,2.6791,2.6646,2.6845,2.6791,2.6591,2.8975,2.8975,2.8975,2.8975,2.8975,2.8975,2.8975,2.8975,2.8975,2.8975,2.8975,2.8975,2.8975,2.8975,2.8975,2.8975,2.8975,2.8975,2.8975,2.8975,2.8975,2.8975,2.8975,2.8975,2.8975,2.8975,2.8883,2.8663,2.8663,2.8553,2.8315,2.8315,2.8315,2.8315,2.8315,2.8315,2.8315,2.8315,2.8315,2.8315,2.8315,2.8315,2.8315,2.8315,2.8462,2.8663,2.8663,2.9028,2.9568,2.9804,3.0098,3.0412,3.047,3.0508,3.0391,2.9538,2.9153,2.892,2.8637,2.8574,2.8535,2.834,2.8301,2.8301,2.8301,2.8301,2.8301,2.8301,2.8301,2.8301,2.8301,2.8301,2.8301,2.8301,2.8301,2.8301,2.8301,2.8301,0.0,2.8301,2.8301,2.8301,2.8301,2.8301,2.8301,2.8301,0.0,0.0,2.8301,2.8174,2.796,2.7638,2.7314,2.7098,2.6954,2.6845,2.6736,2.6591,2.6591,2.6591,2.6591,2.6591,2.67,2.6791,2.6791,2.6791,2.6791,2.6791,2.6682,2.6591,2.6736,2.6791,2.6791,2.6935,2.6881,2.6791,2.8975,2.8975,2.8975,2.8975,2.8975,2.8975,2.8975,2.8975,2.8975,2.8975,2.8975,2.8975,2.8975,2.8975,2.8975,2.8975,2.8975,2.8975,2.8975,2.8975,2.8975,2.8975,2.8975,2.8975,2.8975,2.8975,2.8975,2.8975,2.8975,2.8975,2.8975,2.8975,2.8975,2.8975,2.8975,2.8975,2.8975,2.8975,2.8975,2.8975,2.8975,2.8975,2.8975,2.8975,2.8975,2.8975,2.8975,2.9213,2.9627,2.9804,3.0157,3.0509,3.082,3.0898,3.082,3.041,3.0059,2.9668,2.916,2.8965,2.8809,2.8398,2.8301,2.8301,2.8301,2.8301,2.8301,2.8301,2.8301,2.8301,2.8301,2.8301,2.8301,2.8301,2.8301,2.8301,2.8301,0.0,2.8301,2.8301,2.8301,2.8301,2.8301,2.8301,2.8301,2.8301,2.8301,0.0,0.0,2.8301,2.8174,2.796,2.7638,2.7422,2.7368,2.7152,2.6954,2.6627,2.6627,2.6646,2.6591,2.6591,2.6736,2.6989,2.6989,2.7043,2.7043,2.7043,2.6899,2.6627,2.6682,2.6845,2.6989,2.7043,2.7043,2.7043,2.8975,2.8975,2.8975,2.8975,2.8975,2.8975,2.8975,2.8975,2.8975,2.8975,2.8975,2.8975,2.8975,2.8975,2.8975,2.8975,2.8975,2.8975,2.8975,2.8975,2.8975,2.8975,2.8975,2.8975,2.8975,2.8975,2.8975,2.8975,2.8975,2.8975,2.8975,2.8975,2.8975,2.8975,2.8975,2.8975,2.8975,2.8975,2.8975,2.8975,2.8975,2.8975,2.8975,2.8975,2.8975,2.8975,2.8975,2.9331,2.9863,2.9863,3.0294,3.082,3.0898,3.0898,3.0879,3.0801,3.0742,3.0508,2.9687,2.9199,2.8809,2.8398,2.8301,2.8301,2.8301,2.8301,2.8301,2.8301,2.8301,2.8301,2.8301,2.8301,2.8301,2.8301,2.8301,2.8301,0.0,0.0,2.8301,2.8301,2.8301,2.8301,2.8301,2.8301,2.8301,2.8301,2.8301,2.8301,2.8301,2.8301,2.8301,2.8228,2.796,2.7691,2.7368,2.7368,2.7206,2.6935,2.6935,2.6845,2.6591,2.6591,2.6736,2.6989,2.6989,2.7152,2.7314,2.7314,2.7152,2.6935,2.7206,2.7152,2.7043,2.726,2.7314,2.7314,2.8975,2.8975,2.8975,2.8975,2.8975,2.8975,2.8975,2.8975,2.8975,2.8975,2.8975,2.8975,2.8975,2.8975,2.8975,2.8975,2.8975,2.8975,2.8975,2.8975,2.8975,2.8975,2.8975,2.8975,2.8975,2.8975,2.8975,2.8975,2.8975,2.8975,2.8975,2.8975,2.8975,2.8975,2.8975,2.8975,2.8975,2.8975,2.8975,2.8975,2.8975,2.8975,2.8975,2.8975,2.8975,2.8975,2.8975,2.9272,2.9686,2.9863,3.0216,3.0645,3.082,3.0898,3.0898,3.0898,3.0703,3.043,3.0019,2.9414,2.8867,2.8672,2.8457,2.8301,2.8301,2.8301,2.8301,2.8301,2.8301,2.8301,2.8301,2.8301,2.8301,2.8301,2.8301,0.0,0.0,2.8301,2.8301,2.8301,2.8301,2.8301,2.8301,2.8301,2.8301,2.8301,2.8301,2.8301,2.8301,2.8301,2.8301,2.8301,2.8174,2.796,2.7691,2.7691,2.753,2.7206,2.7206,2.7043,2.6845,2.6845,2.6954,2.7206,2.7206,2.7368,2.7691,2.7691,2.7476,2.7206,2.7206,2.7314,2.7476,2.7422,2.753,2.7638,2.8975,2.8975,2.8975,2.8975,2.8975,2.8975,2.8975,2.8975,2.8975,2.8975,2.8975,2.8975,2.8975,2.8975,2.8975,2.8975,2.8975,2.8975,2.8975,2.8975,2.8975,2.8975,2.8975,2.8975,2.8975,2.8975,2.8975,2.8975,2.8975,2.8975,2.8975,2.8975,2.8975,2.8975,2.8975,2.8975,2.8975,2.8975,2.8975,2.8975,2.8975,2.8975,2.8975,2.8975,2.8975,2.8975,2.8975,2.9272,2.9627,2.9804,3.0157,3.0567,3.082,3.0898,3.0898,3.0898,3.0644,3.0332,3.0234,2.9707,2.9199,2.9101,2.875,2.8437,2.8437,2.8359,2.8301,2.8301,2.8301,2.8301,2.8301,2.8301,2.8301,2.8301,0.0,0.0,0.0,2.8301,2.8301,2.8301,2.8301,2.8301,2.8301,2.8301,2.8301,2.8301,2.8301,2.8301,2.8301,2.8301,2.8301,2.8301,2.8301,2.8174,2.8014,2.8014,2.7853,2.753,2.753,2.7368,2.7098,2.7098,2.726,2.753,2.753,2.7691,2.8014,2.8014,2.7799,2.7476,2.7206,2.7368,2.7745,2.7476,2.7584,2.7906,2.8975,2.8975,2.8975,2.8975,2.8975,2.8975,2.8975,2.8975,2.8975,2.8975,2.8975,2.8975,2.8975,2.8975,2.8975,2.8975,2.8975,2.8975,2.8975,2.8975,2.8975,2.8975,2.8975,2.8975,2.8975,2.8975,2.8975,2.8975,2.8975,2.8975,2.8975,2.8975,2.8975,2.8975,2.8975,2.8975,2.8975,2.8975,2.8975,2.8975,2.8975,2.8975,2.8975,2.8975,2.8975,2.8975,2.8975,2.939,2.9863,2.9863,3.0352,3.0879,3.0898,3.0898,3.0898,3.0898,3.0859,3.0742,3.0312,3.0156,3.0,2.9629,2.9199,2.8867,2.8867,2.8574,2.8301,2.8301,2.8301,2.8301,2.8301,2.8301,2.8301,2.8301,0.0,0.0,2.8301,2.8301,2.8301,2.8301,2.8301,2.8301,2.8301,2.8301,2.8301,2.8301,2.8301,2.8301,2.8301,2.8301,2.8301,2.8301,2.8301,2.8281,2.8281,2.8281,2.8121,2.7853,2.7853,2.7691,2.7368,2.7368,2.753,2.7853,2.7853,2.8014,2.8281,2.8281,2.8121,2.7853,2.7476,2.7368,2.7422,2.7422,2.7584,2.7906,2.8975,2.8975,2.8975,2.8975,2.8975,2.8975,2.8975,2.8975,2.8975,2.8975,2.8975,2.8975,2.8975,2.8975,2.8975,2.8975,2.8975,2.8975,2.8975,2.8975,2.8975,2.8975,2.8975,2.8975,2.8975,2.8975,2.8975,2.8975,2.8975,2.8975,2.8975,2.8975,2.8975,2.8975,2.8975,2.8975,2.8975,2.8975,2.8975,2.8975,2.8975,2.8975,2.8975,2.8975,2.8975,2.8975,2.8975,2.9272,2.9686,2.9863,3.0216,3.0645,3.082,3.0898,3.0898,3.0898,3.0898,3.0859,3.0684,3.041,3.0156,3.0,2.9648,2.9258,2.8984,2.8789,2.8613,2.834,2.8301,2.8301,2.8301,2.8301,2.8301,2.8301,0.0,2.8301,2.8301,2.8301,2.8301,2.8301,2.8301,2.8301,2.8301,2.8301,2.8301,2.8301,2.8301,2.8301,2.8301,2.8301,2.8301,2.8301,2.8301,2.8301,2.8301,2.8301,2.8247,2.8121,2.8121,2.796,2.7691,2.7691,2.7799,2.7906,2.7906,2.8067,2.8301,2.8301,2.8228,2.8121,2.7799,2.7799,2.7906,2.7745,2.7906,2.8121,2.8975,2.8975,2.8975,2.8975,2.8975,2.8975,2.8975,2.8975,2.8975,2.8975,2.8975,2.8975,2.8975,2.8975,2.8975,2.8975,2.8975,2.8975,2.8975,2.8975,2.8975,2.8975,2.8975,2.8975,2.8975,2.8975,2.8975,2.8975,2.8975,2.8975,2.8975,2.8975,2.8975,2.8975,2.8975,2.8975,2.8975,2.8975,2.8975,2.8975,2.8975,2.8975,2.8975,2.8975,2.8975,2.8975,2.8975,2.9272,2.9627,2.9863,3.0157,3.0567,3.082,3.0898,3.0898,3.0898,3.0898,3.0898,3.0898,3.0664,3.041,3.041,3.0098,2.9687,2.9394,2.9219,2.9004,2.8574,2.8496,2.8437,2.832,2.8301,2.8301,2.8301,2.8301,2.8301,2.8301,2.8301,2.8301,2.8301,2.8301,2.8301,2.8301,2.8301,2.8301,2.8301,2.8301,2.8301,2.8301,2.8301,2.8301,2.8301,2.8301,2.8301,2.8301,2.8301,2.8301,2.8301,2.8301,2.8174,2.8014,2.8014,2.8014,2.8014,2.8014,2.8121,2.8301,2.8301,2.8301,2.8281,2.8014,2.8014,2.8121,2.796,2.8014,2.8194,2.8975,2.8975,2.8975,2.8975,2.8975,2.8975,2.8975,2.8975,2.8975,2.8975,2.8975,2.8975,2.8975,2.8975,2.8975,2.8975,2.8975,2.8975,2.8975,2.8975,2.8975,2.8975,2.8975,2.8975,2.8975,2.8975,2.8975,2.8975,2.8975,2.8975,2.8975,2.8975,2.8975,2.8975,2.8975,2.8975,2.8975,2.8975,2.8975,2.8975,2.8975,2.8975,2.8975,2.8975,2.8975,2.8975,2.8975,2.939,2.9922,2.9922,3.0352,3.0898,3.0898,3.0898,3.0898,3.0898,3.0898,3.0898,3.0898,3.0898,3.0898,3.0898,3.0547,3.0195,3.0195,2.9863,2.9453,2.9004,2.8926,2.8789,2.8379,2.8301,2.8301,2.8301,2.8301,2.8301,2.8301,2.8301,2.8301,2.8301,2.8301,2.8301,2.8301,2.8301,2.8301,2.8301,2.8301,2.8301,2.8301,2.8301,2.8301,2.8301,2.8301,2.8301,2.8301,2.8301,2.8301,2.8301,2.8301,2.8301,2.8301,2.8301,2.8301,2.8301,2.8301,2.8301,2.8301,2.8301,2.8301,2.8281,2.8014,2.7906,2.7906,2.7906,2.7906,2.796,2.8975,2.8975,2.8975,2.8975,2.8975,2.8975,2.8975,2.8975,2.8975,2.8975,2.8975,2.8975,2.8975,2.8975,2.8975,2.8975,2.8975,2.8975,2.8975,2.8975,2.8975,2.8975,2.8975,2.8975,2.8975,2.8975,2.8975,2.8975,2.8975,2.8975,2.8975,2.8975,2.8975,2.8975,2.8975,2.8975,2.8975,2.8975,2.8975,2.8975,2.8975,2.8975,2.8975,2.8975,2.8975,2.9035,2.9272,2.9568,2.9922,3.0157,3.0528,3.0898,3.0898,3.0898,3.0898,3.0898,3.0898,3.0898,3.0898,3.0898,3.0898,3.0898,3.0781,3.0586,3.0273,3.0098,2.9883,2.9453,2.9141,2.8887,2.875,2.8496,2.8301,2.8301,2.8301,2.8301,2.8301,2.8301,2.8301,2.8301,2.8301,2.8301,2.8301,2.8301,2.8301,2.8301,2.8301,2.8301,2.8301,2.8301,2.8301,2.8301,2.8301,2.8301,2.8301,2.8301,2.8301,2.8301,2.8301,2.8301,2.8301,2.8301,2.8301,2.8301,2.8301,2.8301,2.8301,2.8301,2.8301,2.8281,2.8228,2.8174,2.8174,2.8174,2.8174,2.8174,2.8975,2.8975,2.8975,2.8975,2.8975,2.8975,2.8975,2.8975,2.8975,2.8975,2.8975,2.8975,2.8975,2.8975,2.8975,2.8975,2.8975,2.8975,2.8975,2.8975,2.8975,2.8975,2.8975,2.8975,2.8975,2.8975,2.8975,2.8975,2.8975,2.8975,2.8975,2.8975,2.8975,2.8975,2.8975,2.8975,2.8975,2.8975,2.8975,2.8975,2.8975,2.8975,2.8975,2.8975,2.8975,2.9035,2.9213,2.9568,2.9922,3.0157,3.0528,3.0898,3.0898,3.0898,3.0898,3.0898,3.0898,3.0898,3.0898,3.0898,3.0898,3.0898,3.0898,3.082,3.0527,3.0469,3.0351,2.9902,2.9609,2.9375,2.9199,2.8828,2.8535,2.8535,2.8398,2.8301,2.8301,2.8301,2.8301,2.8301,2.8301,2.8301,2.8301,2.8301,2.8301,2.8301,2.8301,2.8301,2.8301,2.8301,2.8301,2.8301,2.8301,2.8301,2.8301,2.8301,2.8301,2.8301,2.8301,2.8301,2.8301,2.8301,2.8301,2.8301,2.8301,2.8301,2.8301,2.8301,2.8301,2.8301,2.8301,2.8301,2.8301,2.8301,2.8301,2.8301,2.8975,2.8975,2.8975,2.8975,2.8975,2.8975,2.8975,2.8975,2.8975,2.8975,2.8975,2.8975,2.8975,2.8975,2.8975,2.8975,2.8975,2.8975,2.8975,2.8975,2.8975,2.8975,2.8975,2.8975,2.8975,2.8975,2.8975,2.8975,2.8975,2.8975,2.8975,2.8975,2.8975,2.8975,2.8975,2.8975,2.8975,2.8975,2.8975,2.8975,2.8975,2.8975,2.8975,2.8975,2.8975,2.8975,2.9035,2.939,2.9922,2.9981,3.0411,3.0898,3.0898,3.0898,3.0898,3.0898,3.0898,3.0898,3.0898,3.0898,3.0898,3.0898,3.0898,3.0898,3.0898,3.0898,3.0762,3.0351,3.0234,3.0078,2.9687,2.9277,2.8984,2.8984,2.8652,2.8398,2.8359,2.834,2.834,2.8301,2.8301,2.8301,2.8301,2.8301,2.8301,2.8301,2.8301,2.8301,2.8301,2.8301,2.8301,2.8301,2.8301,2.8301,2.8301,2.8301,2.8301,2.8301,2.8301,2.8301,2.8301,2.8301,2.8301,2.8301,2.8301,2.8301,2.8301,2.8301,2.8301,2.8301,2.8301,2.8301,2.8301,2.8301,2.8301,2.8301,2.8975,2.8975,2.8975,2.8975,2.8975,2.8975,2.8975,2.8975,2.8975,2.8975,2.8975,2.8975,2.8975,2.8975,2.8975,2.8975,2.8975,2.8975,2.8975,2.8975,2.8975,2.8975,2.8975,2.8975,2.8975,2.8975,2.8975,2.8975,2.8975,2.8975,2.8975,2.8975,2.8975,2.8975,2.8975,2.8975,2.8975,2.8975,2.8975,2.8975,2.8975,2.8975,2.8975,2.8975,2.8975,2.9035,2.9272,2.9627,2.9981,3.0528,3.0762,3.0898,3.0898,3.0898,3.0898,3.0898,3.0898,3.0898,3.0898,3.0898,3.0898,3.0898,3.0898,3.0898,3.0898,3.0898,3.0859,3.0762,3.0449,3.0176,3.0078,2.9707,2.9434,2.9434,2.9355,2.918,2.8828,2.8789,2.8652,2.834,2.8301,2.8301,2.8301,2.8301,2.8301,2.8301,2.8301,2.8301,2.8301,2.8301,2.8301,2.8301,2.8301,2.8301,2.8301,2.8301,2.8301,2.8301,2.8301,2.8301,2.8301,2.8301,2.8301,2.8301,2.8301,2.8301,2.8301,2.8301,2.8301,2.8301,2.8301,2.8301,2.8301,2.8301,2.8301,2.8301,2.8975,2.8975,2.8975,2.8975,2.8975,2.8975,2.8975,2.8975,2.8975,2.8975,2.8975,2.8975,2.8975,2.8975,2.8975,2.8975,2.8975,2.8975,2.8975,2.8975,2.8975,2.8975,2.8975,2.8975,2.8975,2.8975,2.8975,2.8975,2.8975,2.8975,2.8975,2.8975,2.8975,2.8975,2.8975,2.8975,2.8975,2.8975,2.8975,2.8975,2.8975,2.8975,2.8975,2.8975,2.8975,2.9035,2.9213,2.9509,2.9981,3.0645,3.0898,3.0898,3.0898,3.0898,3.0898,3.0898,3.0898,3.0898,3.0898,3.0898,3.0898,3.0898,3.0898,3.0898,3.0898,3.0898,3.0898,3.0898,3.0703,3.0527,3.0527,3.0156,2.9863,2.9863,2.9707,2.9492,2.9258,2.9219,2.9141,2.8926,2.8711,2.8516,2.832,2.8301,2.8379,2.8574,2.8594,2.8691,2.8887,2.8906,2.8906,2.8906,2.8906,2.8906,2.8906,2.8906,2.8789,2.8594,2.8398,2.8301,2.8301,2.8301,2.8301,2.8301,2.8301,2.8301,2.8301,2.8301,2.8301,2.8301,2.8301,2.8301,2.8301,2.8301,2.8301,2.8301,2.8975,2.8975,2.8975,2.8975,2.8975,2.8975,2.8975,2.8975,2.8975,2.8975,2.8975,2.8975,2.8975,2.8975,2.8975,2.8975,2.8975,2.8975,2.8975,2.8975,2.8975,2.8975,2.8975,2.8975,2.8975,2.8975,2.8975,2.8975,2.8975,2.8975,2.8975,2.8975,2.8975,2.8975,2.8975,2.8975,2.8975,2.8975,2.8975,2.8975,2.8975,2.8975,2.8975,2.8975,2.8975,2.8993,2.9035,2.945,2.9981,3.0587,3.082,3.082,3.082,3.082,3.0898,3.0898,3.0898,3.0898,3.0898,3.0898,3.0898,3.0898,3.0898,3.0898,3.0898,3.0898,3.0898,3.0898,3.0898,3.0898,3.0898,3.0566,3.0312,3.0312,3.0019,2.9766,2.9687,2.9668,2.9704,2.9626,2.9258,2.8887,2.8555,2.8516,2.8652,2.9004,2.9023,2.918,2.9551,2.9626,2.9626,2.9626,2.9626,2.9626,2.9626,2.9626,2.9394,2.9023,2.8672,2.8437,2.8301,2.8301,2.8301,2.8301,2.8301,2.8301,2.8301,2.8301,2.8301,2.8301,2.8301,2.8301,2.8301,2.8301,2.8301,2.8301,2.8975,2.8975,2.8975,2.8975,2.8975,2.8975,2.8975,2.8975,2.8975,2.8975,2.8975,2.8975,2.8975,2.8975,2.8975,2.8975,2.8975,2.8975,2.8975,2.8975,2.8975,2.8975,2.8975,2.8975,2.8975,2.8975,2.8975,2.8975,2.8975,2.8975,2.8975,2.8975,2.8975,2.8975,2.8975,2.8975,2.8975,2.8975,2.8975,2.8975,2.8975,2.8975,2.8975,2.8975,2.8975,2.9035,2.9331,2.9627,2.9981,3.0333,3.045,3.045,3.045,3.0704,3.0898,3.0898,3.0898,3.0898,3.0898,3.0898,3.0898,3.0898,3.0898,3.0898,3.0898,3.0898,3.0898,3.0898,3.0898,3.0898,3.0898,3.084,3.0801,3.0801,3.0742,3.0566,3.0176,3.0117,2.998,2.9609,2.9512,2.9453,2.945,2.9394,2.947,2.9473,2.9492,2.9512,2.9626,2.9626,2.9626,2.9626,2.9626,2.9626,2.9626,2.9626,2.9607,2.9473,2.9434,2.9004,2.8301,2.8301,2.8301,2.8301,2.8301,2.8301,2.8301,2.8301,2.8301,2.8301,2.8301,2.8301,2.8301,2.8301,2.8301,2.8301,2.9305,2.914,2.8975,2.8975,2.8975,2.8975,2.8975,2.8975,2.8975,2.8975,2.8975,2.8975,2.8975,2.8975,2.8975,2.8975,2.8975,2.8975,2.8975,2.8975,2.8975,2.8975,2.8975,2.8975,2.8975,2.8975,2.8975,2.8975,2.8975,2.8975,2.8975,2.8975,2.8975,2.8975,2.8975,2.8975,2.8975,2.8975,2.8975,2.8975,2.8975,2.8975,2.8975,2.8975,2.8975,2.9035,2.939,2.9686,2.9922,3.0098,3.0274,3.0392,3.0392,3.0645,3.0898,3.0898,3.0898,3.0898,3.0898,3.0898,3.0898,3.0898,3.0898,3.0898,3.0898,3.0898,3.0898,3.0898,3.0898,3.0898,3.0898,3.0898,3.0898,3.0898,3.0898,3.082,3.0605,3.0586,3.041,2.998,2.9922,2.9824,2.959,2.9626,2.9668,2.9902,2.9922,3.0039,3.0293,3.0312,3.0312,3.0312,3.0312,3.0312,3.0312,3.0312,3.0176,2.9922,2.9922,2.9473,2.8633,2.8633,2.8516,2.8301,2.8301,2.8301,2.8301,2.8301,2.8301,2.8301,2.8301,2.8301,2.8301,2.8301,2.8301,2.8301]}]]